Spplingen 38373
Wetterdaten: aktuell Dienstag, 19.02.2019 21:59
Datum Zeit Temp. Aussen Temp. Wind Windchill X Feuchte I. Feuchte Auss Luftdruck Regen Wind Richtung Richtung Taupunkt Windchill Windben
19.02.2019 21:59 6,2 C 4,1 C 0,0 C 30 % 84 % 1017,7 hPa 0,0 mm 8,5 km/h W-SW 252 3,7 C 2,2 C 15,5 km/h
19.02.2019 21:58 6,2 C 4,1 C 0,0 C 30 % 85 % 1017,7 hPa 0,0 mm 7,6 km/h W-SW 257 3,9 C 3,0 C 13,7 km/h
19.02.2019 21:57 6,2 C 4,1 C 0,0 C 30 % 85 % 1017,6 hPa 0,0 mm 6,5 km/h W 259 3,9 C 4,0 C 15,5 km/h
19.02.2019 21:56 6,1 C 4,1 C 0,0 C 30 % 85 % 1017,7 hPa 0,0 mm 8,2 km/h W 274 3,8 C 2,5 C 8,2 km/h
19.02.2019 21:55 6,1 C 4,1 C 0,0 C 30 % 85 % 1017,7 hPa 0,0 mm 7,9 km/h W-NW 292 3,8 C 2,7 C 16,9 km/h
19.02.2019 21:54 6,1 C 4,1 C 0,0 C 30 % 85 % 1017,6 hPa 0,0 mm 6,5 km/h W 275 3,8 C 4,0 C 10,1 km/h
19.02.2019 21:53 6,1 C 4,1 C 0,0 C 30 % 85 % 1017,6 hPa 0,0 mm 6,3 km/h SW 227 3,8 C 4,1 C 10,1 km/h
19.02.2019 21:52 6,1 C 4,1 C 0,0 C 30 % 85 % 1017,5 hPa 0,0 mm 6,4 km/h W-SW 237 3,8 C 4,1 C 8,6 km/h
19.02.2019 21:51 6,1 C 4,1 C 0,0 C 30 % 85 % 1017,6 hPa 0,0 mm 6,4 km/h SW 230 3,8 C 4,1 C 10,1 km/h
19.02.2019 21:50 6,0 C 4,0 C 0,0 C 30 % 85 % 1017,6 hPa 0,0 mm 6,3 km/h SW 227 3,7 C 4,0 C 13,7 km/h
19.02.2019 21:49 6,1 C 4,1 C 0,0 C 30 % 85 % 1017,5 hPa 0,0 mm 6,6 km/h S-SW 210 3,8 C 3,9 C 10,1 km/h
19.02.2019 21:48 6,0 C 4,0 C 0,0 C 30 % 85 % 1017,6 hPa 0,0 mm 7,3 km/h W 259 3,7 C 3,2 C 11,9 km/h
19.02.2019 21:47 6,0 C 4,0 C 0,0 C 30 % 85 % 1017,6 hPa 0,0 mm 6,6 km/h W-SW 240 3,7 C 3,8 C 11,9 km/h
19.02.2019 21:46 6,0 C 4,0 C 0,0 C 30 % 85 % 1017,5 hPa 0,0 mm 5,5 km/h W-SW 250 3,7 C 4,0 C 11,9 km/h
19.02.2019 21:45 6,0 C 4,0 C 0,0 C 30 % 85 % 1017,5 hPa 0,0 mm 6,6 km/h W-SW 255 3,7 C 3,8 C 6,8 km/h
19.02.2019 21:44 6,0 C 4,0 C 0,0 C 30 % 85 % 1017,5 hPa 0,0 mm 8,4 km/h W 269 3,7 C 2,2 C 11,9 km/h
19.02.2019 21:43 6,0 C 4,0 C 0,0 C 30 % 85 % 1017,5 hPa 0,0 mm 8,8 km/h W-SW 237 3,7 C 1,9 C 13,7 km/h
19.02.2019 21:42 6,0 C 4,0 C 0,0 C 30 % 85 % 1017,5 hPa 0,0 mm 8,1 km/h W 271 3,7 C 2,5 C 15,5 km/h
19.02.2019 21:41 5,9 C 3,9 C 0,0 C 30 % 85 % 1017,5 hPa 0,0 mm 8,1 km/h W-SW 254 3,6 C 2,4 C 13,7 km/h
19.02.2019 21:40 5,9 C 3,9 C 0,0 C 30 % 85 % 1017,5 hPa 0,0 mm 8,3 km/h W-SW 241 3,6 C 2,2 C 13,7 km/h
19.02.2019 21:39 5,9 C 3,9 C 0,0 C 30 % 85 % 1017,5 hPa 0,0 mm 7,5 km/h W 269 3,6 C 2,9 C 15,5 km/h
19.02.2019 21:38 5,9 C 3,9 C 0,0 C 30 % 85 % 1017,5 hPa 0,0 mm 7,1 km/h W-SW 240 3,6 C 3,3 C 10,1 km/h
19.02.2019 21:37 5,9 C 3,9 C 0,0 C 30 % 85 % 1017,5 hPa 0,0 mm 7,0 km/h W 271 3,6 C 3,4 C 10,1 km/h
19.02.2019 21:36 6,0 C 4,0 C 0,0 C 30 % 85 % 1017,5 hPa 0,0 mm 5,8 km/h W-SW 243 3,7 C 4,0 C 10,1 km/h
19.02.2019 21:35 6,0 C 4,0 C 0,0 C 30 % 85 % 1017,5 hPa 0,0 mm 5,1 km/h W 266 3,7 C 4,0 C 11,9 km/h
19.02.2019 21:34 6,0 C 4,0 C 0,0 C 30 % 85 % 1017,6 hPa 0,0 mm 6,6 km/h W-SW 250 3,7 C 3,8 C 6,8 km/h
19.02.2019 21:33 6,1 C 4,1 C 0,0 C 30 % 85 % 1017,6 hPa 0,0 mm 7,1 km/h W 278 3,8 C 3,5 C 15,5 km/h
19.02.2019 21:32 6,1 C 4,1 C 0,0 C 30 % 85 % 1017,6 hPa 0,0 mm 8,0 km/h W-NW 285 3,8 C 2,7 C 10,1 km/h
19.02.2019 21:31 6,1 C 4,1 C 0,0 C 30 % 85 % 1017,6 hPa 0,0 mm 8,3 km/h W-SW 252 3,8 C 2,4 C 10,1 km/h
19.02.2019 21:30 6,1 C 4,1 C 0,0 C 30 % 85 % 1017,6 hPa 0,0 mm 8,1 km/h SW 227 3,8 C 2,6 C 15,5 km/h
19.02.2019 21:29 6,1 C 4,1 C 0,0 C 30 % 85 % 1017,6 hPa 0,0 mm 7,4 km/h W-SW 258 3,8 C 3,2 C 16,9 km/h
19.02.2019 21:28 6,1 C 4,1 C 0,0 C 30 % 85 % 1017,6 hPa 0,0 mm 6,1 km/h W 281 3,8 C 4,1 C 13,7 km/h
19.02.2019 21:27 6,2 C 4,1 C 0,0 C 30 % 85 % 1017,5 hPa 0,0 mm 6,1 km/h W-SW 245 3,9 C 4,1 C 11,9 km/h
19.02.2019 21:26 6,2 C 4,1 C 0,0 C 30 % 85 % 1017,6 hPa 0,0 mm 7,7 km/h W 276 3,9 C 2,9 C 8,6 km/h
19.02.2019 21:25 6,2 C 4,1 C 0,0 C 30 % 84 % 1017,5 hPa 0,0 mm 8,5 km/h W-SW 255 3,7 C 2,2 C 15,5 km/h
19.02.2019 21:24 6,2 C 4,1 C 0,0 C 30 % 84 % 1017,4 hPa 0,0 mm 7,8 km/h W-SW 244 3,7 C 2,8 C 13,7 km/h
19.02.2019 21:23 6,2 C 4,1 C 0,0 C 30 % 84 % 1017,5 hPa 0,0 mm 7,2 km/h W-SW 250 3,7 C 3,4 C 13,7 km/h
19.02.2019 21:22 6,2 C 4,1 C 0,0 C 30 % 84 % 1017,5 hPa 0,0 mm 6,8 km/h SW 221 3,7 C 3,7 C 13,7 km/h
19.02.2019 21:21 6,3 C 4,2 C 0,0 C 30 % 84 % 1017,5 hPa 0,0 mm 6,9 km/h W 261 3,8 C 3,8 C 8,6 km/h
19.02.2019 21:20 6,3 C 4,2 C 0,0 C 30 % 84 % 1017,4 hPa 0,0 mm 7,4 km/h W 271 3,8 C 3,3 C 10,1 km/h
19.02.2019 21:19 6,3 C 4,2 C 0,0 C 30 % 84 % 1017,5 hPa 0,0 mm 6,6 km/h SW 233 3,8 C 4,0 C 13,7 km/h
19.02.2019 21:18 6,3 C 4,2 C 0,0 C 30 % 84 % 1017,5 hPa 0,0 mm 7,2 km/h W 264 3,8 C 3,5 C 11,9 km/h
19.02.2019 21:17 6,3 C 4,2 C 0,0 C 30 % 84 % 1017,5 hPa 0,0 mm 9,6 km/h W-SW 254 3,8 C 1,5 C 11,9 km/h
19.02.2019 21:16 6,3 C 4,2 C 0,0 C 30 % 84 % 1017,4 hPa 0,0 mm 11,2 km/h W-NW 290 3,8 C 0,4 C 32,4 km/h
19.02.2019 21:15 6,4 C 4,3 C 0,0 C 30 % 84 % 1017,5 hPa 0,0 mm 10,4 km/h SW 230 3,9 C 1,0 C 15,5 km/h
19.02.2019 21:14 6,4 C 4,3 C 0,0 C 30 % 84 % 1017,5 hPa 0,0 mm 9,8 km/h W-SW 238 3,9 C 1,4 C 22,3 km/h
19.02.2019 21:13 6,4 C 4,3 C 0,0 C 30 % 84 % 1017,5 hPa 0,0 mm 9,1 km/h W 281 3,9 C 2,0 C 20,5 km/h
19.02.2019 21:12 6,4 C 4,3 C 0,0 C 30 % 84 % 1017,4 hPa 0,0 mm 7,8 km/h W-SW 237 3,9 C 3,0 C 13,7 km/h
19.02.2019 21:11 6,4 C 4,3 C 0,0 C 30 % 84 % 1017,4 hPa 0,0 mm 8,6 km/h W-SW 254 3,9 C 2,4 C 11,9 km/h
19.02.2019 21:10 6,4 C 4,3 C 0,0 C 30 % 84 % 1017,5 hPa 0,0 mm 10,8 km/h W-NW 285 3,9 C 0,7 C 10,8 km/h
19.02.2019 21:09 6,4 C 4,3 C 0,0 C 30 % 84 % 1017,5 hPa 0,0 mm 11,0 km/h W-SW 254 3,9 C 0,6 C 18,7 km/h
19.02.2019 21:08 6,4 C 4,3 C 0,0 C 30 % 84 % 1017,4 hPa 0,0 mm 8,3 km/h W-NW 288 3,9 C 2,6 C 18,7 km/h
19.02.2019 21:07 6,4 C 4,3 C 0,0 C 30 % 84 % 1017,4 hPa 0,0 mm 8,5 km/h SW 234 3,9 C 2,5 C 10,1 km/h
19.02.2019 21:06 6,4 C 4,3 C 0,0 C 30 % 85 % 1017,5 hPa 0,0 mm 10,2 km/h W-SW 251 4,1 C 1,2 C 13,7 km/h
19.02.2019 21:05 6,4 C 4,3 C 0,0 C 30 % 85 % 1017,4 hPa 0,0 mm 8,6 km/h W 271 4,1 C 2,4 C 18,7 km/h
19.02.2019 21:04 6,4 C 4,3 C 0,0 C 30 % 85 % 1017,5 hPa 0,0 mm 7,3 km/h W-NW 286 4,1 C 3,5 C 10,1 km/h
19.02.2019 21:03 6,4 C 4,3 C 0,0 C 30 % 85 % 1017,4 hPa 0,0 mm 7,3 km/h W-SW 251 4,1 C 3,5 C 11,9 km/h
19.02.2019 21:02 6,4 C 4,3 C 0,0 C 30 % 85 % 1017,5 hPa 0,0 mm 7,0 km/h W-NW 282 4,1 C 3,8 C 11,9 km/h
19.02.2019 21:01 6,4 C 4,3 C 0,0 C 30 % 85 % 1017,5 hPa 0,0 mm 8,2 km/h W 271 4,1 C 2,7 C 10,1 km/h
19.02.2019 21:00 6,4 C 4,3 C 0,0 C 30 % 85 % 1017,5 hPa 0,0 mm 8,8 km/h W 272 4,1 C 2,2 C 15,5 km/h
19.02.2019 20:59 6,4 C 4,3 C 0,0 C 30 % 85 % 1017,5 hPa 0,0 mm 8,8 km/h W 266 4,1 C 2,2 C 13,7 km/h
19.02.2019 20:58 6,4 C 4,3 C 0,0 C 30 % 85 % 1017,4 hPa 0,0 mm 10,0 km/h W-SW 252 4,1 C 1,3 C 10,1 km/h
19.02.2019 20:57 6,4 C 4,3 C 0,0 C 30 % 85 % 1017,4 hPa 0,0 mm 10,6 km/h W 265 4,1 C 0,9 C 16,9 km/h
19.02.2019 20:56 6,4 C 4,3 C 0,0 C 30 % 85 % 1017,4 hPa 0,0 mm 9,6 km/h N-NW 331 4,1 C 1,6 C 16,9 km/h
19.02.2019 20:55 6,4 C 4,3 C 0,0 C 30 % 85 % 1017,3 hPa 0,0 mm 8,0 km/h W-SW 244 4,1 C 2,9 C 16,9 km/h
19.02.2019 20:54 6,4 C 4,3 C 0,0 C 30 % 85 % 1017,4 hPa 0,0 mm 8,5 km/h W 266 4,1 C 2,5 C 10,1 km/h
19.02.2019 20:53 6,4 C 4,3 C 0,0 C 30 % 85 % 1017,3 hPa 0,0 mm 10,7 km/h W 269 4,1 C 0,8 C 10,7 km/h
19.02.2019 20:52 6,4 C 4,3 C 0,0 C 30 % 85 % 1017,3 hPa 0,0 mm 9,9 km/h W-SW 247 4,1 C 1,4 C 25,6 km/h
19.02.2019 20:51 6,4 C 4,3 C 0,0 C 30 % 85 % 1017,4 hPa 0,0 mm 6,9 km/h W 274 4,1 C 3,9 C 16,9 km/h
19.02.2019 20:50 6,4 C 4,3 C 0,0 C 30 % 85 % 1017,3 hPa 0,0 mm 6,6 km/h W 275 4,1 C 4,1 C 8,6 km/h
19.02.2019 20:49 6,4 C 4,3 C 0,0 C 30 % 85 % 1017,3 hPa 0,0 mm 7,6 km/h W-NW 286 4,1 C 3,2 C 11,9 km/h
19.02.2019 20:48 6,4 C 4,3 C 0,0 C 30 % 85 % 1017,3 hPa 0,0 mm 7,9 km/h W-SW 255 4,1 C 3,0 C 10,1 km/h
19.02.2019 20:47 6,4 C 4,3 C 0,0 C 30 % 85 % 1017,4 hPa 0,0 mm 9,2 km/h W-NW 285 4,1 C 1,9 C 10,1 km/h
19.02.2019 20:46 6,4 C 4,3 C 0,0 C 30 % 85 % 1017,3 hPa 0,0 mm 11,3 km/h W 265 4,1 C 0,4 C 11,3 km/h
19.02.2019 20:45 6,4 C 4,3 C 0,0 C 30 % 85 % 1017,3 hPa 0,0 mm 11,4 km/h W-SW 238 4,1 C 0,3 C 20,5 km/h
19.02.2019 20:44 6,4 C 4,3 C 0,0 C 30 % 85 % 1017,3 hPa 0,0 mm 11,1 km/h W 272 4,1 C 0,5 C 18,7 km/h
19.02.2019 20:43 6,4 C 4,3 C 0,0 C 30 % 85 % 1017,3 hPa 0,0 mm 10,0 km/h SW 226 4,1 C 1,3 C 20,5 km/h
19.02.2019 20:42 6,4 C 4,3 C 0,0 C 30 % 85 % 1017,3 hPa 0,0 mm 8,2 km/h W-SW 245 4,1 C 2,7 C 15,5 km/h
19.02.2019 20:41 6,4 C 4,3 C 0,0 C 30 % 85 % 1017,3 hPa 0,0 mm 8,1 km/h SW 233 4,1 C 2,8 C 11,9 km/h
19.02.2019 20:40 6,4 C 4,3 C 0,0 C 30 % 85 % 1017,4 hPa 0,0 mm 9,1 km/h W-SW 247 4,1 C 2,0 C 10,1 km/h
19.02.2019 20:39 6,4 C 4,3 C 0,0 C 30 % 85 % 1017,2 hPa 0,0 mm 9,9 km/h W-SW 251 4,1 C 1,4 C 16,9 km/h
19.02.2019 20:38 6,4 C 4,3 C 0,0 C 30 % 85 % 1017,3 hPa 0,0 mm 10,1 km/h W-SW 241 4,1 C 1,2 C 20,5 km/h
19.02.2019 20:37 6,4 C 4,3 C 0,0 C 30 % 85 % 1017,3 hPa 0,0 mm 11,5 km/h W-SW 251 4,1 C 0,3 C 13,7 km/h
19.02.2019 20:36 6,4 C 4,3 C 0,0 C 30 % 85 % 1017,3 hPa 0,0 mm 11,3 km/h W-SW 243 4,1 C 0,4 C 23,8 km/h
19.02.2019 20:35 6,4 C 4,3 C 0,0 C 30 % 85 % 1017,4 hPa 0,0 mm 9,5 km/h W 271 4,1 C 1,7 C 22,3 km/h
19.02.2019 20:34 6,4 C 4,3 C 0,0 C 30 % 85 % 1017,3 hPa 0,0 mm 10,4 km/h W-SW 243 4,1 C 1,0 C 15,5 km/h
19.02.2019 20:33 6,3 C 4,2 C 0,0 C 30 % 85 % 1017,4 hPa 0,0 mm 10,8 km/h W-NW 285 4,0 C 0,6 C 15,5 km/h
19.02.2019 20:32 6,3 C 4,2 C 0,0 C 30 % 85 % 1017,3 hPa 0,0 mm 10,4 km/h W 269 4,0 C 0,9 C 16,9 km/h
19.02.2019 20:31 6,3 C 4,2 C 0,0 C 30 % 85 % 1017,3 hPa 0,0 mm 11,4 km/h W-NW 282 4,0 C 0,2 C 13,7 km/h
19.02.2019 20:30 6,3 C 4,2 C 0,0 C 30 % 85 % 1017,3 hPa 0,0 mm 11,4 km/h W-NW 282 4,0 C 0,2 C 16,9 km/h
19.02.2019 20:29 6,3 C 4,2 C 0,0 C 30 % 85 % 1017,3 hPa 0,0 mm 12,2 km/h W-SW 245 4,0 C -0,3 C 23,8 km/h
19.02.2019 20:28 6,2 C 4,1 C 0,0 C 30 % 85 % 1017,4 hPa 0,0 mm 12,4 km/h W 274 3,9 C -0,5 C 18,7 km/h
19.02.2019 20:27 6,2 C 4,1 C 0,0 C 30 % 85 % 1017,2 hPa 0,0 mm 11,6 km/h W-SW 252 3,9 C -0,0 C 29,2 km/h
19.02.2019 20:26 6,2 C 4,1 C 0,0 C 30 % 85 % 1017,3 hPa 0,0 mm 13,0 km/h W 265 3,9 C -0,9 C 13,7 km/h
19.02.2019 20:25 6,2 C 4,1 C 0,0 C 30 % 86 % 1017,3 hPa 0,0 mm 14,8 km/h W 276 4,0 C -1,9 C 18,7 km/h
19.02.2019 20:24 6,1 C 4,1 C 0,0 C 30 % 86 % 1017,2 hPa 0,0 mm 13,1 km/h W 262 3,9 C -1,0 C 25,6 km/h
19.02.2019 20:23 6,1 C 4,1 C 0,0 C 30 % 85 % 1017,2 hPa 0,0 mm 9,8 km/h W-SW 251 3,8 C 1,2 C 18,7 km/h
19.02.2019 20:22 6,1 C 4,1 C 0,0 C 30 % 85 % 1017,3 hPa 0,0 mm 9,0 km/h W 261 3,8 C 1,8 C 20,5 km/h
19.02.2019 20:21 6,1 C 4,1 C 0,0 C 30 % 85 % 1017,3 hPa 0,0 mm 10,4 km/h W-NW 289 3,8 C 0,8 C 11,9 km/h
19.02.2019 20:20 6,1 C 4,1 C 0,0 C 30 % 85 % 1017,2 hPa 0,0 mm 11,0 km/h W-SW 247 3,8 C 0,4 C 22,3 km/h
19.02.2019 20:19 6,1 C 4,1 C 0,0 C 30 % 85 % 1017,1 hPa 0,0 mm 11,4 km/h W-SW 245 3,8 C 0,1 C 15,5 km/h
19.02.2019 20:18 6,1 C 4,1 C 0,0 C 30 % 85 % 1017,2 hPa 0,0 mm 12,0 km/h W-NW 303 3,8 C -0,3 C 16,9 km/h
19.02.2019 20:17 6,1 C 4,1 C 0,0 C 30 % 85 % 1017,2 hPa 0,0 mm 11,0 km/h W-NW 299 3,8 C 0,4 C 18,7 km/h
19.02.2019 20:16 6,1 C 4,1 C 0,0 C 30 % 85 % 1017,1 hPa 0,0 mm 11,0 km/h W 278 3,8 C 0,4 C 18,7 km/h
19.02.2019 20:15 6,1 C 4,1 C 0,0 C 30 % 85 % 1017,2 hPa 0,0 mm 11,5 km/h W-SW 244 3,8 C 0,0 C 20,5 km/h
19.02.2019 20:14 6,1 C 4,1 C 0,0 C 30 % 85 % 1017,2 hPa 0,0 mm 13,0 km/h W-SW 250 3,8 C -0,9 C 18,7 km/h
19.02.2019 20:13 6,1 C 4,1 C 0,0 C 30 % 86 % 1017,1 hPa 0,0 mm 14,0 km/h W 271 3,9 C -1,5 C 18,7 km/h
19.02.2019 20:12 6,1 C 4,1 C 0,0 C 30 % 86 % 1017,2 hPa 0,0 mm 10,8 km/h W 281 3,9 C 0,5 C 22,3 km/h
19.02.2019 20:11 6,1 C 4,1 C 0,0 C 30 % 86 % 1017,1 hPa 0,0 mm 8,3 km/h W-SW 245 3,9 C 2,4 C 16,9 km/h
19.02.2019 20:10 6,1 C 4,1 C 0,0 C 30 % 86 % 1017,1 hPa 0,0 mm 8,3 km/h W 278 3,9 C 2,4 C 16,9 km/h
19.02.2019 20:09 6,1 C 4,1 C 0,0 C 30 % 86 % 1017,1 hPa 0,0 mm 10,2 km/h W 262 3,9 C 0,9 C 10,2 km/h
19.02.2019 20:08 6,1 C 4,1 C 0,0 C 30 % 86 % 1017,1 hPa 0,0 mm 11,3 km/h W-SW 241 3,9 C 0,2 C 16,9 km/h
19.02.2019 20:07 6,1 C 4,1 C 0,0 C 30 % 86 % 1017,1 hPa 0,0 mm 9,9 km/h W 275 3,9 C 1,2 C 20,5 km/h
19.02.2019 20:06 6,1 C 4,1 C 0,0 C 30 % 86 % 1017,1 hPa 0,0 mm 9,2 km/h W 265 3,9 C 1,7 C 13,7 km/h
19.02.2019 20:05 6,1 C 4,1 C 0,0 C 30 % 86 % 1017,1 hPa 0,0 mm 10,6 km/h W 266 3,9 C 0,7 C 13,7 km/h
19.02.2019 20:04 6,1 C 4,1 C 0,0 C 30 % 86 % 1017,1 hPa 0,0 mm 12,6 km/h W-SW 248 3,9 C -0,7 C 18,7 km/h
19.02.2019 20:03 6,1 C 4,1 C 0,0 C 30 % 86 % 1017,2 hPa 0,0 mm 12,8 km/h W-SW 250 3,9 C -0,8 C 23,8 km/h
19.02.2019 20:02 6,1 C 4,1 C 0,0 C 30 % 86 % 1017,1 hPa 0,0 mm 10,8 km/h NW 313 3,9 C 0,5 C 16,9 km/h
19.02.2019 20:01 6,1 C 4,1 C 0,0 C 30 % 86 % 1017,1 hPa 0,0 mm 8,8 km/h W-NW 290 3,9 C 2,0 C 16,9 km/h
19.02.2019 20:00 6,1 C 4,1 C 0,0 C 30 % 86 % 1017,2 hPa 0,0 mm 9,0 km/h SW 223 3,9 C 1,8 C 10,1 km/h
19.02.2019 19:59 6,1 C 4,1 C 0,0 C 30 % 85 % 1017,2 hPa 0,0 mm 9,3 km/h W-SW 248 3,8 C 1,6 C 15,5 km/h
19.02.2019 19:58 6,2 C 4,1 C 0,0 C 30 % 85 % 1017,2 hPa 0,0 mm 10,1 km/h W 278 3,9 C 1,0 C 13,7 km/h
19.02.2019 19:57 6,2 C 4,1 C 0,0 C 30 % 85 % 1017,2 hPa 0,0 mm 10,6 km/h W-SW 248 3,9 C 0,7 C 16,9 km/h
19.02.2019 19:56 6,2 C 4,1 C 0,0 C 30 % 85 % 1017,3 hPa 0,0 mm 11,4 km/h W 262 3,9 C 0,1 C 18,7 km/h
19.02.2019 19:55 6,3 C 4,2 C 0,0 C 30 % 84 % 1017,2 hPa 0,0 mm 13,8 km/h W 281 3,8 C -1,2 C 15,5 km/h
19.02.2019 19:54 6,4 C 4,3 C 0,0 C 30 % 84 % 1017,3 hPa 0,0 mm 14,6 km/h W-SW 238 3,9 C -1,6 C 27,4 km/h
19.02.2019 19:53 6,4 C 4,3 C 0,0 C 30 % 84 % 1017,4 hPa 0,2 mm 15,1 km/h W-SW 257 3,9 C -1,8 C 25,6 km/h
19.02.2019 19:52 6,6 C 4,4 C 0,0 C 30 % 83 % 1017,4 hPa 0,0 mm 13,8 km/h W-SW 245 3,9 C -1,0 C 32,4 km/h
19.02.2019 19:51 6,7 C 4,5 C 0,0 C 30 % 82 % 1017,3 hPa 0,0 mm 11,9 km/h SW 224 3,8 C 0,2 C 27,4 km/h
19.02.2019 19:50 6,7 C 4,5 C 0,0 C 30 % 82 % 1017,4 hPa 0,2 mm 13,6 km/h W-SW 245 3,8 C -0,8 C 16,9 km/h
19.02.2019 19:49 6,8 C 4,5 C 0,0 C 30 % 82 % 1017,3 hPa 0,0 mm 16,5 km/h NW 323 3,9 C -2,3 C 16,5 km/h
19.02.2019 19:48 6,9 C 4,6 C 0,0 C 30 % 82 % 1017,3 hPa 0,0 mm 17,8 km/h W-SW 241 4,0 C -2,8 C 30,6 km/h
19.02.2019 19:47 6,9 C 4,6 C 0,0 C 30 % 81 % 1017,3 hPa 0,0 mm 17,0 km/h W 276 3,9 C -2,4 C 27,4 km/h
19.02.2019 19:46 6,9 C 4,6 C 0,0 C 30 % 81 % 1017,1 hPa 0,2 mm 12,6 km/h W 259 3,9 C -0,1 C 36,0 km/h
19.02.2019 19:45 7,0 C 4,7 C 0,0 C 30 % 80 % 1016,9 hPa 0,0 mm 8,9 km/h W-SW 248 3,8 C 2,6 C 16,9 km/h
19.02.2019 19:44 7,1 C 4,7 C 0,0 C 30 % 80 % 1017,0 hPa 0,0 mm 10,4 km/h W-NW 282 3,9 C 1,5 C 15,5 km/h
19.02.2019 19:43 7,2 C 4,8 C 0,0 C 30 % 80 % 1016,9 hPa 0,0 mm 12,6 km/h W 264 4,0 C 0,2 C 13,7 km/h
19.02.2019 19:42 7,2 C 4,8 C 0,0 C 30 % 79 % 1016,9 hPa 0,0 mm 13,7 km/h W 259 3,8 C -0,5 C 22,3 km/h
19.02.2019 19:41 7,3 C 4,9 C 0,0 C 30 % 78 % 1017,0 hPa 0,0 mm 15,7 km/h W-NW 288 3,7 C -1,4 C 22,3 km/h
19.02.2019 19:40 7,4 C 4,9 C 0,0 C 30 % 78 % 1016,9 hPa 0,0 mm 16,3 km/h SW 228 3,8 C -1,7 C 30,6 km/h
19.02.2019 19:39 7,6 C 5,1 C 0,0 C 30 % 77 % 1016,9 hPa 0,0 mm 13,5 km/h W-SW 245 3,8 C -0,0 C 18,7 km/h
19.02.2019 19:38 7,7 C 5,1 C 0,0 C 30 % 76 % 1016,9 hPa 0,0 mm 11,3 km/h W 262 3,7 C 1,3 C 29,2 km/h
19.02.2019 19:37 7,8 C 5,2 C 0,0 C 30 % 76 % 1017,0 hPa 0,2 mm 9,0 km/h W 261 3,8 C 3,0 C 18,7 km/h
19.02.2019 19:36 7,8 C 5,2 C 0,0 C 30 % 74 % 1017,0 hPa 0,0 mm 9,4 km/h W 274 3,5 C 2,7 C 11,9 km/h
19.02.2019 19:35 7,9 C 5,3 C 0,0 C 30 % 73 % 1017,0 hPa 0,0 mm 10,1 km/h NW 314 3,4 C 2,3 C 15,5 km/h
19.02.2019 19:34 7,9 C 5,3 C 0,0 C 30 % 73 % 1016,9 hPa 0,0 mm 9,3 km/h SW 223 3,4 C 2,9 C 18,7 km/h
19.02.2019 19:33 7,9 C 5,3 C 0,0 C 30 % 72 % 1016,9 hPa 0,0 mm 10,0 km/h S-SW 213 3,2 C 2,4 C 10,1 km/h
19.02.2019 19:32 7,9 C 5,3 C 0,0 C 30 % 72 % 1016,9 hPa 0,0 mm 10,3 km/h W-NW 296 3,2 C 2,2 C 15,5 km/h
19.02.2019 19:31 7,9 C 5,3 C 0,0 C 30 % 72 % 1016,9 hPa 0,0 mm 8,4 km/h W-NW 285 3,2 C 3,6 C 16,9 km/h
19.02.2019 19:30 7,9 C 5,3 C 0,0 C 30 % 72 % 1016,7 hPa 0,0 mm 7,2 km/h W 269 3,2 C 4,6 C 10,1 km/h
19.02.2019 19:29 7,9 C 5,3 C 0,0 C 30 % 71 % 1016,7 hPa 0,0 mm 8,0 km/h W 278 3,0 C 3,9 C 8,6 km/h
19.02.2019 19:28 7,9 C 5,3 C 0,0 C 30 % 71 % 1016,6 hPa 0,0 mm 8,7 km/h W 262 3,0 C 3,4 C 16,9 km/h
19.02.2019 19:27 7,9 C 5,3 C 0,0 C 30 % 72 % 1016,7 hPa 0,0 mm 8,6 km/h W 268 3,2 C 3,4 C 11,9 km/h
19.02.2019 19:26 7,9 C 5,3 C 0,0 C 30 % 71 % 1016,6 hPa 0,0 mm 8,8 km/h W 265 3,0 C 3,3 C 11,9 km/h
19.02.2019 19:25 7,9 C 5,3 C 0,0 C 30 % 72 % 1016,6 hPa 0,0 mm 9,1 km/h W 276 3,2 C 3,1 C 16,9 km/h
19.02.2019 19:24 7,9 C 5,3 C 0,0 C 30 % 72 % 1016,6 hPa 0,0 mm 8,9 km/h W 268 3,2 C 3,2 C 15,5 km/h
19.02.2019 19:23 7,9 C 5,3 C 0,0 C 30 % 72 % 1016,6 hPa 0,0 mm 7,4 km/h W 269 3,2 C 4,4 C 13,7 km/h
19.02.2019 19:22 7,9 C 5,3 C 0,0 C 30 % 72 % 1016,5 hPa 0,0 mm 6,7 km/h W-SW 248 3,2 C 5,1 C 11,9 km/h
19.02.2019 19:21 7,9 C 5,3 C 0,0 C 30 % 72 % 1016,6 hPa 0,0 mm 7,0 km/h W 271 3,2 C 4,8 C 13,7 km/h
19.02.2019 19:20 7,9 C 5,3 C 0,0 C 30 % 72 % 1016,6 hPa 0,0 mm 7,5 km/h W-NW 283 3,2 C 4,3 C 10,1 km/h
19.02.2019 19:19 8,0 C 5,3 C 0,0 C 30 % 71 % 1016,6 hPa 0,0 mm 8,9 km/h W-SW 255 3,1 C 3,2 C 11,9 km/h
19.02.2019 19:18 8,0 C 5,3 C 0,0 C 30 % 71 % 1016,5 hPa 0,0 mm 8,5 km/h W 264 3,1 C 3,5 C 13,7 km/h
19.02.2019 19:17 8,0 C 5,3 C 0,0 C 30 % 71 % 1016,6 hPa 0,0 mm 8,1 km/h W-SW 251 3,1 C 3,8 C 15,5 km/h
19.02.2019 19:16 8,0 C 5,3 C 0,0 C 30 % 71 % 1016,6 hPa 0,0 mm 8,2 km/h W-SW 241 3,1 C 3,8 C 13,7 km/h
19.02.2019 19:15 8,0 C 5,3 C 0,0 C 30 % 71 % 1016,6 hPa 0,0 mm 8,4 km/h W-NW 283 3,1 C 3,6 C 13,7 km/h
19.02.2019 19:14 8,0 C 5,3 C 0,0 C 30 % 71 % 1016,7 hPa 0,0 mm 9,4 km/h W 276 3,1 C 2,8 C 11,9 km/h
19.02.2019 19:13 8,0 C 5,3 C 0,0 C 30 % 71 % 1016,6 hPa 0,0 mm 8,8 km/h SW 223 3,1 C 3,3 C 15,5 km/h
19.02.2019 19:12 8,0 C 5,3 C 0,0 C 30 % 71 % 1016,7 hPa 0,0 mm 9,6 km/h W-NW 288 3,1 C 2,7 C 13,7 km/h
19.02.2019 19:11 8,0 C 5,3 C 0,0 C 30 % 71 % 1016,6 hPa 0,0 mm 11,0 km/h W 278 3,1 C 1,7 C 11,0 km/h
19.02.2019 19:10 8,0 C 5,3 C 0,0 C 30 % 71 % 1016,6 hPa 0,0 mm 9,2 km/h W-NW 298 3,1 C 3,0 C 18,7 km/h
19.02.2019 19:09 8,0 C 5,3 C 0,0 C 30 % 71 % 1016,6 hPa 0,0 mm 7,9 km/h W-SW 258 3,1 C 4,0 C 16,9 km/h
19.02.2019 19:08 8,0 C 5,3 C 0,0 C 30 % 71 % 1016,6 hPa 0,0 mm 7,3 km/h W 268 3,1 C 4,5 C 11,9 km/h
19.02.2019 19:07 8,1 C 5,4 C 0,0 C 30 % 71 % 1016,6 hPa 0,0 mm 7,7 km/h W 269 3,2 C 4,3 C 10,1 km/h
19.02.2019 19:06 8,1 C 5,4 C 0,0 C 30 % 71 % 1016,6 hPa 0,0 mm 8,3 km/h W 274 3,2 C 3,8 C 10,1 km/h
19.02.2019 19:05 8,1 C 5,4 C 0,0 C 30 % 71 % 1016,5 hPa 0,0 mm 9,6 km/h W-SW 240 3,2 C 2,8 C 11,9 km/h
19.02.2019 19:04 8,1 C 5,4 C 0,0 C 30 % 70 % 1016,6 hPa 0,0 mm 11,2 km/h W-SW 255 3,0 C 1,7 C 15,5 km/h
19.02.2019 19:03 8,2 C 5,5 C 0,0 C 30 % 70 % 1016,5 hPa 0,0 mm 9,7 km/h W-SW 250 3,1 C 2,8 C 16,9 km/h
19.02.2019 19:02 8,2 C 5,5 C 0,0 C 30 % 70 % 1016,6 hPa 0,0 mm 8,2 km/h W-SW 243 3,1 C 4,0 C 15,5 km/h
19.02.2019 19:01 8,3 C 5,5 C 0,0 C 30 % 69 % 1016,5 hPa 0,0 mm 8,4 km/h W-NW 292 3,0 C 3,8 C 13,7 km/h
19.02.2019 19:00 8,3 C 5,5 C 0,0 C 30 % 68 % 1016,6 hPa 0,0 mm 8,3 km/h W 265 2,7 C 3,9 C 13,7 km/h
19.02.2019 18:59 8,3 C 5,5 C 0,0 C 30 % 67 % 1016,6 hPa 0,0 mm 10,7 km/h W 269 2,5 C 2,2 C 13,7 km/h
19.02.2019 18:58 8,3 C 5,5 C 0,0 C 30 % 67 % 1016,5 hPa 0,0 mm 11,4 km/h W-NW 285 2,5 C 1,7 C 16,9 km/h
19.02.2019 18:57 8,3 C 5,5 C 0,0 C 30 % 67 % 1016,5 hPa 0,0 mm 11,0 km/h W-SW 252 2,5 C 2,0 C 16,9 km/h
19.02.2019 18:56 8,3 C 5,5 C 0,0 C 30 % 67 % 1016,4 hPa 0,0 mm 11,3 km/h W-SW 240 2,5 C 1,8 C 15,5 km/h
19.02.2019 18:55 8,3 C 5,5 C 0,0 C 30 % 67 % 1016,4 hPa 0,0 mm 12,0 km/h W-SW 248 2,5 C 1,3 C 18,7 km/h
19.02.2019 18:54 8,3 C 5,5 C 0,0 C 30 % 67 % 1016,4 hPa 0,0 mm 12,9 km/h W-SW 254 2,5 C 0,8 C 16,9 km/h
19.02.2019 18:53 8,3 C 5,5 C 0,0 C 30 % 67 % 1016,3 hPa 0,0 mm 11,2 km/h W-SW 250 2,5 C 1,8 C 18,7 km/h
19.02.2019 18:52 8,3 C 5,5 C 0,0 C 30 % 67 % 1016,3 hPa 0,0 mm 9,3 km/h W 269 2,5 C 3,1 C 15,5 km/h
19.02.2019 18:51 8,4 C 5,6 C 0,0 C 30 % 67 % 1016,3 hPa 0,0 mm 8,0 km/h W-NW 298 2,6 C 4,2 C 15,5 km/h
19.02.2019 18:50 8,4 C 5,6 C 0,0 C 30 % 67 % 1016,3 hPa 0,0 mm 8,2 km/h SW 227 2,6 C 4,1 C 13,7 km/h
19.02.2019 18:49 8,4 C 5,6 C 0,0 C 30 % 67 % 1016,3 hPa 0,0 mm 11,1 km/h W 262 2,6 C 2,0 C 11,1 km/h
19.02.2019 18:48 8,4 C 5,6 C 0,0 C 30 % 66 % 1016,3 hPa 0,0 mm 13,4 km/h W-SW 254 2,4 C 0,6 C 16,9 km/h
19.02.2019 18:47 8,4 C 5,6 C 0,0 C 30 % 66 % 1016,2 hPa 0,0 mm 13,7 km/h W 269 2,4 C 0,5 C 18,7 km/h
19.02.2019 18:46 8,5 C 5,7 C 0,0 C 30 % 66 % 1016,3 hPa 0,0 mm 11,9 km/h W 271 2,5 C 1,6 C 22,3 km/h
19.02.2019 18:45 8,5 C 5,7 C 0,0 C 30 % 65 % 1016,2 hPa 0,0 mm 11,5 km/h W-SW 243 2,3 C 1,9 C 20,5 km/h
19.02.2019 18:44 8,4 C 5,6 C 0,0 C 30 % 65 % 1016,3 hPa 0,0 mm 12,6 km/h W-SW 254 2,2 C 1,1 C 18,7 km/h
19.02.2019 18:43 8,4 C 5,6 C 0,0 C 30 % 65 % 1016,3 hPa 0,0 mm 12,6 km/h W 275 2,2 C 1,1 C 18,7 km/h
19.02.2019 18:42 8,4 C 5,6 C 0,0 C 30 % 65 % 1016,2 hPa 0,0 mm 12,2 km/h W 264 2,2 C 1,3 C 16,9 km/h
19.02.2019 18:41 8,4 C 5,6 C 0,0 C 30 % 65 % 1016,1 hPa 0,0 mm 11,7 km/h W-SW 245 2,2 C 1,6 C 16,9 km/h
19.02.2019 18:40 8,4 C 5,6 C 0,0 C 30 % 65 % 1016,2 hPa 0,0 mm 10,4 km/h W-SW 255 2,2 C 2,5 C 18,7 km/h
19.02.2019 18:39 8,4 C 5,6 C 0,0 C 30 % 65 % 1016,2 hPa 0,0 mm 9,1 km/h W-SW 244 2,2 C 3,4 C 15,5 km/h
19.02.2019 18:38 8,4 C 5,6 C 0,0 C 30 % 65 % 1016,1 hPa 0,0 mm 9,1 km/h W 265 2,2 C 3,4 C 11,9 km/h
19.02.2019 18:37 8,4 C 5,6 C 0,0 C 30 % 64 % 1016,2 hPa 0,0 mm 10,5 km/h W 268 2,0 C 2,4 C 15,5 km/h
19.02.2019 18:36 8,5 C 5,7 C 0,0 C 30 % 64 % 1016,1 hPa 0,0 mm 11,9 km/h W-SW 245 2,1 C 1,6 C 11,9 km/h
19.02.2019 18:35 8,4 C 5,6 C 0,0 C 30 % 64 % 1016,1 hPa 0,0 mm 12,1 km/h W 278 2,0 C 1,4 C 20,5 km/h
19.02.2019 18:34 8,4 C 5,6 C 0,0 C 30 % 64 % 1016,1 hPa 0,0 mm 13,0 km/h W 268 2,0 C 0,9 C 18,7 km/h
19.02.2019 18:33 8,4 C 5,6 C 0,0 C 30 % 64 % 1016,1 hPa 0,0 mm 14,3 km/h W-SW 252 2,0 C 0,2 C 16,9 km/h
19.02.2019 18:32 8,4 C 5,6 C 0,0 C 30 % 64 % 1016,1 hPa 0,0 mm 14,9 km/h W 274 2,0 C -0,1 C 22,3 km/h
19.02.2019 18:31 8,4 C 5,6 C 0,0 C 30 % 65 % 1016,1 hPa 0,0 mm 13,5 km/h W-SW 244 2,2 C 0,6 C 23,8 km/h
19.02.2019 18:30 8,3 C 5,5 C 0,0 C 30 % 65 % 1016,0 hPa 0,0 mm 11,7 km/h W-SW 250 2,1 C 1,5 C 18,7 km/h
19.02.2019 18:29 8,3 C 5,5 C 0,0 C 30 % 65 % 1016,0 hPa 0,0 mm 11,2 km/h W-SW 248 2,1 C 1,8 C 18,7 km/h
19.02.2019 18:28 8,3 C 5,5 C 0,0 C 30 % 65 % 1016,0 hPa 0,0 mm 10,3 km/h W 279 2,1 C 2,4 C 16,9 km/h
19.02.2019 18:27 8,3 C 5,5 C 0,0 C 30 % 65 % 1016,1 hPa 0,0 mm 10,3 km/h W-SW 252 2,1 C 2,4 C 18,7 km/h
19.02.2019 18:26 8,3 C 5,5 C 0,0 C 30 % 64 % 1016,0 hPa 0,0 mm 11,5 km/h W 276 1,9 C 1,6 C 13,7 km/h
19.02.2019 18:25 8,3 C 5,5 C 0,0 C 30 % 64 % 1016,1 hPa 0,0 mm 12,1 km/h SW 231 1,9 C 1,3 C 16,9 km/h
19.02.2019 18:24 8,3 C 5,5 C 0,0 C 30 % 65 % 1016,1 hPa 0,0 mm 12,5 km/h W-SW 255 2,1 C 1,0 C 15,5 km/h
19.02.2019 18:23 8,3 C 5,5 C 0,0 C 30 % 65 % 1016,0 hPa 0,0 mm 13,7 km/h W-SW 250 2,1 C 0,4 C 23,8 km/h
19.02.2019 18:22 8,3 C 5,5 C 0,0 C 30 % 64 % 1016,0 hPa 0,0 mm 12,2 km/h W-SW 247 1,9 C 1,2 C 20,5 km/h
19.02.2019 18:21 8,3 C 5,5 C 0,0 C 30 % 64 % 1016,1 hPa 0,0 mm 9,3 km/h W-NW 289 1,9 C 3,1 C 20,5 km/h
19.02.2019 18:20 8,4 C 5,6 C 0,0 C 30 % 64 % 1016,0 hPa 0,0 mm 8,8 km/h W-SW 240 2,0 C 3,6 C 13,7 km/h
19.02.2019 18:19 8,4 C 5,6 C 0,0 C 30 % 64 % 1016,0 hPa 0,0 mm 9,3 km/h W-SW 243 2,0 C 3,2 C 13,7 km/h
19.02.2019 18:18 8,4 C 5,6 C 0,0 C 30 % 64 % 1016,0 hPa 0,0 mm 10,3 km/h W 269 2,0 C 2,5 C 15,5 km/h
19.02.2019 18:17 8,4 C 5,6 C 0,0 C 30 % 64 % 1016,0 hPa 0,0 mm 13,0 km/h SW 220 2,0 C 0,9 C 13,7 km/h
19.02.2019 18:16 8,4 C 5,6 C 0,0 C 30 % 64 % 1015,9 hPa 0,0 mm 13,5 km/h W-SW 241 2,0 C 0,6 C 25,6 km/h
19.02.2019 18:15 8,4 C 5,6 C 0,0 C 30 % 64 % 1015,9 hPa 0,0 mm 11,6 km/h W-SW 243 2,0 C 1,7 C 16,9 km/h
19.02.2019 18:14 8,4 C 5,6 C 0,0 C 30 % 64 % 1015,9 hPa 0,0 mm 9,5 km/h W-SW 252 2,0 C 3,1 C 22,3 km/h
19.02.2019 18:13 8,4 C 5,6 C 0,0 C 30 % 64 % 1015,9 hPa 0,0 mm 8,5 km/h W-SW 238 2,0 C 3,8 C 10,1 km/h
19.02.2019 18:12 8,4 C 5,6 C 0,0 C 30 % 64 % 1015,9 hPa 0,0 mm 8,9 km/h W-SW 247 2,0 C 3,5 C 13,7 km/h
19.02.2019 18:11 8,4 C 5,6 C 0,0 C 30 % 64 % 1015,8 hPa 0,0 mm 9,8 km/h W 272 2,0 C 2,9 C 11,9 km/h
19.02.2019 18:10 8,4 C 5,6 C 0,0 C 30 % 64 % 1015,9 hPa 0,0 mm 13,3 km/h W-SW 251 2,0 C 0,7 C 15,5 km/h
19.02.2019 18:09 8,4 C 5,6 C 0,0 C 30 % 64 % 1015,8 hPa 0,0 mm 13,3 km/h W 275 2,0 C 0,7 C 23,8 km/h
19.02.2019 18:08 8,3 C 5,5 C 0,0 C 30 % 64 % 1015,8 hPa 0,0 mm 11,4 km/h W-SW 244 1,9 C 1,7 C 27,4 km/h
19.02.2019 18:07 8,3 C 5,5 C 0,0 C 30 % 64 % 1015,9 hPa 0,0 mm 11,7 km/h W 259 1,9 C 1,5 C 15,5 km/h
19.02.2019 18:06 8,3 C 5,5 C 0,0 C 30 % 64 % 1015,8 hPa 0,0 mm 11,0 km/h SW 233 1,9 C 2,0 C 23,8 km/h
19.02.2019 18:05 8,3 C 5,5 C 0,0 C 30 % 64 % 1015,8 hPa 0,0 mm 9,9 km/h SW 230 1,9 C 2,7 C 18,7 km/h
19.02.2019 18:04 8,3 C 5,5 C 0,0 C 30 % 64 % 1015,9 hPa 0,0 mm 10,2 km/h W-SW 240 1,9 C 2,5 C 15,5 km/h
19.02.2019 18:03 8,3 C 5,5 C 0,0 C 30 % 64 % 1015,9 hPa 0,0 mm 11,5 km/h W-SW 255 1,9 C 1,6 C 13,7 km/h
19.02.2019 18:02 8,3 C 5,5 C 0,0 C 30 % 64 % 1015,8 hPa 0,0 mm 11,4 km/h W 274 1,9 C 1,7 C 16,9 km/h
19.02.2019 18:01 8,3 C 5,5 C 0,0 C 30 % 64 % 1015,9 hPa 0,0 mm 10,4 km/h W-SW 245 1,9 C 2,4 C 16,9 km/h
19.02.2019 18:00 8,3 C 5,5 C 0,0 C 30 % 64 % 1015,9 hPa 0,0 mm 10,5 km/h W-SW 248 1,9 C 2,3 C 13,7 km/h
19.02.2019 17:59 8,3 C 5,5 C 0,0 C 30 % 64 % 1015,8 hPa 0,0 mm 11,0 km/h W 261 1,9 C 2,0 C 13,7 km/h
19.02.2019 17:58 8,3 C 5,5 C 0,0 C 30 % 64 % 1015,9 hPa 0,0 mm 9,7 km/h W 281 1,9 C 2,8 C 20,5 km/h
19.02.2019 17:57 8,3 C 5,5 C 0,0 C 30 % 64 % 1015,9 hPa 0,0 mm 9,1 km/h W-NW 298 1,9 C 3,3 C 13,7 km/h
19.02.2019 17:56 8,3 C 5,5 C 0,0 C 30 % 64 % 1015,9 hPa 0,0 mm 10,1 km/h W 265 1,9 C 2,6 C 16,9 km/h
19.02.2019 17:55 8,3 C 5,5 C 0,0 C 30 % 64 % 1015,9 hPa 0,0 mm 10,5 km/h W 272 1,9 C 2,3 C 13,7 km/h
19.02.2019 17:54 8,3 C 5,5 C 0,0 C 30 % 64 % 1015,8 hPa 0,0 mm 10,1 km/h W-SW 243 1,9 C 2,6 C 18,7 km/h
19.02.2019 17:53 8,3 C 5,5 C 0,0 C 30 % 64 % 1015,8 hPa 0,0 mm 8,4 km/h W-SW 245 1,9 C 3,8 C 13,7 km/h
19.02.2019 17:52 8,4 C 5,6 C 0,0 C 30 % 64 % 1015,9 hPa 0,0 mm 8,0 km/h W 261 2,0 C 4,2 C 15,5 km/h
19.02.2019 17:51 8,4 C 5,6 C 0,0 C 30 % 64 % 1015,8 hPa 0,0 mm 8,2 km/h W-SW 245 2,0 C 4,1 C 11,9 km/h
19.02.2019 17:50 8,4 C 5,6 C 0,0 C 30 % 64 % 1015,8 hPa 0,0 mm 8,2 km/h SW 233 2,0 C 4,1 C 13,7 km/h
19.02.2019 17:49 8,4 C 5,6 C 0,0 C 30 % 64 % 1015,8 hPa 0,0 mm 10,5 km/h SW 231 2,0 C 2,4 C 11,9 km/h
19.02.2019 17:48 8,4 C 5,6 C 0,0 C 30 % 64 % 1015,8 hPa 0,0 mm 11,5 km/h W-SW 241 2,0 C 1,8 C 20,5 km/h
19.02.2019 17:47 8,4 C 5,6 C 0,0 C 30 % 64 % 1015,8 hPa 0,0 mm 9,3 km/h W-SW 255 2,0 C 3,2 C 18,7 km/h
19.02.2019 17:46 8,4 C 5,6 C 0,0 C 30 % 64 % 1015,8 hPa 0,0 mm 9,3 km/h NW 320 2,0 C 3,2 C 13,7 km/h
19.02.2019 17:45 8,4 C 5,6 C 0,0 C 30 % 64 % 1015,7 hPa 0,0 mm 9,7 km/h W-SW 241 2,0 C 2,9 C 15,5 km/h
19.02.2019 17:44 8,4 C 5,6 C 0,0 C 30 % 64 % 1015,8 hPa 0,0 mm 8,8 km/h W-SW 240 2,0 C 3,6 C 16,9 km/h
19.02.2019 17:43 8,4 C 5,6 C 0,0 C 30 % 64 % 1015,8 hPa 0,0 mm 8,6 km/h W 281 2,0 C 3,8 C 11,9 km/h
19.02.2019 17:42 8,4 C 5,6 C 0,0 C 30 % 64 % 1015,8 hPa 0,0 mm 8,7 km/h W-SW 254 2,0 C 3,7 C 11,9 km/h
19.02.2019 17:41 8,4 C 5,6 C 0,0 C 30 % 64 % 1015,8 hPa 0,0 mm 8,3 km/h W-SW 247 2,0 C 4,0 C 13,7 km/h
19.02.2019 17:40 8,5 C 5,7 C 0,0 C 30 % 65 % 1015,8 hPa 0,0 mm 8,7 km/h W 266 2,3 C 3,8 C 13,7 km/h
19.02.2019 17:39 8,5 C 5,7 C 0,0 C 30 % 64 % 1015,8 hPa 0,0 mm 9,6 km/h W-SW 252 2,1 C 3,1 C 15,5 km/h
19.02.2019 17:38 8,5 C 5,7 C 0,0 C 30 % 65 % 1015,8 hPa 0,0 mm 8,5 km/h W-SW 255 2,3 C 3,9 C 13,7 km/h
19.02.2019 17:37 8,6 C 5,7 C 0,0 C 30 % 65 % 1015,8 hPa 0,0 mm 7,2 km/h W-NW 285 2,4 C 5,0 C 13,7 km/h
19.02.2019 17:36 8,6 C 5,7 C 0,0 C 30 % 65 % 1015,7 hPa 0,0 mm 8,4 km/h W 272 2,4 C 4,0 C 10,1 km/h
19.02.2019 17:35 8,6 C 5,7 C 0,0 C 30 % 65 % 1015,7 hPa 0,0 mm 9,2 km/h W-SW 257 2,4 C 3,4 C 15,5 km/h
19.02.2019 17:34 8,6 C 5,7 C 0,0 C 30 % 65 % 1015,7 hPa 0,0 mm 9,0 km/h W-SW 237 2,4 C 3,6 C 13,7 km/h
19.02.2019 17:33 8,6 C 5,7 C 0,0 C 30 % 65 % 1015,7 hPa 0,0 mm 8,3 km/h SW 230 2,4 C 4,1 C 13,7 km/h
19.02.2019 17:32 8,6 C 5,7 C 0,0 C 30 % 65 % 1015,7 hPa 0,0 mm 7,5 km/h W-NW 298 2,4 C 4,8 C 10,1 km/h
19.02.2019 17:31 8,7 C 5,8 C 0,0 C 30 % 65 % 1015,7 hPa 0,0 mm 9,6 km/h W 259 2,5 C 3,2 C 9,6 km/h
19.02.2019 17:30 8,7 C 5,8 C 0,0 C 30 % 65 % 1015,6 hPa 0,0 mm 8,7 km/h W-SW 257 2,5 C 3,9 C 15,5 km/h
19.02.2019 17:29 8,7 C 5,8 C 0,0 C 30 % 65 % 1015,7 hPa 0,0 mm 6,1 km/h W-SW 247 2,5 C 5,8 C 15,5 km/h
19.02.2019 17:28 8,7 C 5,8 C 0,0 C 30 % 65 % 1015,5 hPa 0,0 mm 5,4 km/h W-SW 247 2,5 C 5,8 C 8,6 km/h
19.02.2019 17:27 8,7 C 5,8 C 0,0 C 30 % 65 % 1015,7 hPa 0,0 mm 4,4 km/h S-SW 206 2,5 C 5,8 C 10,1 km/h
19.02.2019 17:26 8,8 C 5,9 C 0,0 C 30 % 65 % 1015,7 hPa 0,0 mm 4,0 km/h SW 220 2,6 C 5,9 C 6,8 km/h
19.02.2019 17:25 8,8 C 5,9 C 0,0 C 30 % 64 % 1015,7 hPa 0,0 mm 5,6 km/h W-SW 244 2,4 C 5,9 C 6,8 km/h
19.02.2019 17:24 8,8 C 5,9 C 0,0 C 30 % 64 % 1015,7 hPa 0,0 mm 8,6 km/h SW 235 2,4 C 4,1 C 8,6 km/h
19.02.2019 17:23 8,8 C 5,9 C 0,0 C 30 % 64 % 1015,7 hPa 0,0 mm 9,6 km/h W-SW 250 2,4 C 3,3 C 13,7 km/h
19.02.2019 17:22 8,8 C 5,9 C 0,0 C 30 % 64 % 1015,7 hPa 0,0 mm 10,1 km/h SW 235 2,4 C 3,0 C 16,9 km/h
19.02.2019 17:21 8,8 C 5,9 C 0,0 C 30 % 64 % 1015,6 hPa 0,0 mm 11,6 km/h SW 230 2,4 C 2,0 C 13,7 km/h
19.02.2019 17:20 8,8 C 5,9 C 0,0 C 30 % 64 % 1015,6 hPa 0,0 mm 11,9 km/h SW 235 2,4 C 1,9 C 20,5 km/h
19.02.2019 17:19 8,8 C 5,9 C 0,0 C 30 % 65 % 1015,7 hPa 0,0 mm 10,3 km/h SW 220 2,6 C 2,9 C 22,3 km/h
19.02.2019 17:18 8,8 C 5,9 C 0,0 C 30 % 65 % 1015,7 hPa 0,0 mm 9,6 km/h W-SW 255 2,6 C 3,3 C 15,5 km/h
19.02.2019 17:17 8,8 C 5,9 C 0,0 C 30 % 65 % 1015,8 hPa 0,0 mm 10,5 km/h W 278 2,6 C 2,7 C 13,7 km/h
19.02.2019 17:16 8,8 C 5,9 C 0,0 C 30 % 65 % 1015,7 hPa 0,0 mm 9,3 km/h W-SW 257 2,6 C 3,6 C 15,5 km/h
19.02.2019 17:15 8,8 C 5,9 C 0,0 C 30 % 65 % 1015,6 hPa 0,0 mm 7,8 km/h W-NW 292 2,6 C 4,7 C 20,5 km/h
19.02.2019 17:14 8,8 C 5,9 C 0,0 C 30 % 65 % 1015,7 hPa 0,0 mm 8,0 km/h W-SW 247 2,6 C 4,5 C 8,6 km/h
19.02.2019 17:13 8,8 C 5,9 C 0,0 C 30 % 65 % 1015,5 hPa 0,0 mm 7,1 km/h W-SW 248 2,6 C 5,3 C 16,9 km/h
19.02.2019 17:12 8,8 C 5,9 C 0,0 C 30 % 65 % 1015,6 hPa 0,0 mm 6,6 km/h W-SW 247 2,6 C 5,8 C 10,1 km/h
19.02.2019 17:11 8,9 C 5,9 C 0,0 C 30 % 65 % 1015,6 hPa 0,0 mm 7,5 km/h W-SW 248 2,7 C 5,0 C 8,6 km/h
19.02.2019 17:10 8,9 C 5,9 C 0,0 C 30 % 65 % 1015,5 hPa 0,0 mm 8,1 km/h S-SW 206 2,7 C 4,5 C 13,7 km/h
19.02.2019 17:09 8,9 C 5,9 C 0,0 C 30 % 65 % 1015,6 hPa 0,0 mm 8,4 km/h SW 217 2,7 C 4,2 C 13,7 km/h
19.02.2019 17:08 8,9 C 5,9 C 0,0 C 30 % 65 % 1015,7 hPa 0,0 mm 8,7 km/h W-SW 257 2,7 C 4,0 C 11,9 km/h
19.02.2019 17:07 8,9 C 5,9 C 0,0 C 30 % 65 % 1015,7 hPa 0,0 mm 9,3 km/h W-NW 283 2,7 C 3,6 C 11,9 km/h
19.02.2019 17:06 8,9 C 5,9 C 0,0 C 30 % 65 % 1015,6 hPa 0,0 mm 9,4 km/h SW 235 2,7 C 3,5 C 13,7 km/h
19.02.2019 17:05 8,9 C 5,9 C 0,0 C 30 % 65 % 1015,7 hPa 0,0 mm 10,4 km/h W-NW 293 2,7 C 2,8 C 13,7 km/h
19.02.2019 17:04 8,8 C 5,9 C 0,0 C 30 % 65 % 1015,7 hPa 0,0 mm 10,7 km/h SW 230 2,6 C 2,6 C 13,7 km/h
19.02.2019 17:03 8,9 C 5,9 C 0,0 C 30 % 65 % 1015,8 hPa 0,0 mm 8,1 km/h SW 235 2,7 C 4,5 C 20,5 km/h
19.02.2019 17:02 8,9 C 5,9 C 0,0 C 30 % 65 % 1015,8 hPa 0,0 mm 7,0 km/h W-SW 248 2,7 C 5,4 C 10,1 km/h
19.02.2019 17:01 8,9 C 5,9 C 0,0 C 30 % 65 % 1015,7 hPa 0,0 mm 8,4 km/h W 276 2,7 C 4,2 C 8,6 km/h
19.02.2019 17:00 8,9 C 5,9 C 0,0 C 30 % 65 % 1015,7 hPa 0,0 mm 8,1 km/h SW 228 2,7 C 4,5 C 15,5 km/h
19.02.2019 16:59 8,9 C 5,9 C 0,0 C 30 % 65 % 1015,8 hPa 0,0 mm 7,4 km/h SW 235 2,7 C 5,0 C 10,1 km/h
19.02.2019 16:58 8,9 C 5,9 C 0,0 C 30 % 65 % 1015,8 hPa 0,0 mm 8,4 km/h SW 226 2,7 C 4,2 C 10,1 km/h
19.02.2019 16:57 8,8 C 5,9 C 0,0 C 30 % 65 % 1015,7 hPa 0,0 mm 9,4 km/h W-SW 245 2,6 C 3,5 C 18,7 km/h
19.02.2019 16:56 8,8 C 5,9 C 0,0 C 30 % 65 % 1015,7 hPa 0,0 mm 9,5 km/h W-NW 289 2,6 C 3,4 C 15,5 km/h
19.02.2019 16:55 8,8 C 5,9 C 0,0 C 30 % 65 % 1015,7 hPa 0,0 mm 9,7 km/h W-SW 255 2,6 C 3,3 C 15,5 km/h
19.02.2019 16:54 8,8 C 5,9 C 0,0 C 30 % 65 % 1015,7 hPa 0,0 mm 9,0 km/h W 262 2,6 C 3,8 C 13,7 km/h
19.02.2019 16:53 8,8 C 5,9 C 0,0 C 30 % 65 % 1015,7 hPa 0,0 mm 8,3 km/h W-SW 252 2,6 C 4,3 C 15,5 km/h
19.02.2019 16:52 8,9 C 5,9 C 0,0 C 30 % 65 % 1015,7 hPa 0,0 mm 8,6 km/h W-SW 255 2,7 C 4,1 C 11,9 km/h
19.02.2019 16:51 8,9 C 5,9 C 0,0 C 30 % 65 % 1015,8 hPa 0,0 mm 10,3 km/h W 274 2,7 C 2,9 C 15,5 km/h
19.02.2019 16:50 8,9 C 5,9 C 0,0 C 30 % 65 % 1015,7 hPa 0,0 mm 11,4 km/h SW 214 2,7 C 2,2 C 15,5 km/h
19.02.2019 16:49 8,8 C 5,9 C 0,0 C 30 % 65 % 1015,6 hPa 0,0 mm 10,5 km/h W-SW 254 2,6 C 2,7 C 20,5 km/h
19.02.2019 16:48 8,8 C 5,9 C 0,0 C 30 % 65 % 1015,7 hPa 0,0 mm 9,0 km/h W-SW 252 2,6 C 3,8 C 16,9 km/h
19.02.2019 16:47 8,8 C 5,9 C 0,0 C 30 % 65 % 1015,7 hPa 0,0 mm 8,5 km/h W 274 2,6 C 4,2 C 10,1 km/h
19.02.2019 16:46 8,8 C 5,9 C 0,0 C 30 % 65 % 1015,8 hPa 0,0 mm 9,9 km/h SW 227 2,6 C 3,1 C 11,9 km/h
19.02.2019 16:45 8,8 C 5,9 C 0,0 C 30 % 65 % 1015,7 hPa 0,0 mm 8,8 km/h W-SW 254 2,6 C 3,9 C 16,9 km/h
19.02.2019 16:44 8,8 C 5,9 C 0,0 C 30 % 65 % 1015,8 hPa 0,0 mm 8,4 km/h W-SW 258 2,6 C 4,2 C 10,1 km/h
19.02.2019 16:43 8,8 C 5,9 C 0,0 C 30 % 65 % 1015,8 hPa 0,0 mm 9,5 km/h SW 228 2,6 C 3,4 C 10,1 km/h
19.02.2019 16:42 8,8 C 5,9 C 0,0 C 30 % 66 % 1015,8 hPa 0,0 mm 8,9 km/h W-SW 258 2,8 C 3,9 C 16,9 km/h
19.02.2019 16:41 8,8 C 5,9 C 0,0 C 30 % 66 % 1015,7 hPa 0,0 mm 8,6 km/h W-SW 240 2,8 C 4,1 C 11,9 km/h
19.02.2019 16:40 8,8 C 5,9 C 0,0 C 30 % 66 % 1015,7 hPa 0,0 mm 7,7 km/h W 264 2,8 C 4,8 C 15,5 km/h
19.02.2019 16:39 8,8 C 5,9 C 0,0 C 30 % 66 % 1015,6 hPa 0,0 mm 6,6 km/h W 274 2,8 C 5,8 C 10,1 km/h
19.02.2019 16:38 8,8 C 5,9 C 0,0 C 30 % 66 % 1015,7 hPa 0,0 mm 7,2 km/h W 271 2,8 C 5,2 C 8,6 km/h
19.02.2019 16:37 8,8 C 5,9 C 0,0 C 30 % 66 % 1015,6 hPa 0,0 mm 8,5 km/h W 281 2,8 C 4,2 C 11,9 km/h
19.02.2019 16:36 8,8 C 5,9 C 0,0 C 30 % 66 % 1015,7 hPa 0,0 mm 9,1 km/h W-SW 240 2,8 C 3,7 C 13,7 km/h
19.02.2019 16:35 8,8 C 5,9 C 0,0 C 30 % 66 % 1015,7 hPa 0,0 mm 9,1 km/h W-SW 251 2,8 C 3,7 C 15,5 km/h
19.02.2019 16:34 8,8 C 5,9 C 0,0 C 30 % 66 % 1015,7 hPa 0,0 mm 9,8 km/h W 278 2,8 C 3,2 C 11,9 km/h
19.02.2019 16:33 8,8 C 5,9 C 0,0 C 30 % 66 % 1015,7 hPa 0,0 mm 11,5 km/h W-SW 247 2,8 C 2,1 C 15,5 km/h
19.02.2019 16:32 8,8 C 5,9 C 0,0 C 30 % 66 % 1015,6 hPa 0,0 mm 11,1 km/h W-SW 251 2,8 C 2,3 C 18,7 km/h
19.02.2019 16:31 8,8 C 5,9 C 0,0 C 30 % 66 % 1015,7 hPa 0,0 mm 8,9 km/h SW 217 2,8 C 3,9 C 15,5 km/h
19.02.2019 16:30 8,8 C 5,9 C 0,0 C 30 % 66 % 1015,8 hPa 0,0 mm 8,7 km/h W-SW 250 2,8 C 4,0 C 11,9 km/h
19.02.2019 16:29 8,8 C 5,9 C 0,0 C 30 % 66 % 1015,7 hPa 0,0 mm 11,2 km/h SW 214 2,8 C 2,3 C 11,9 km/h
19.02.2019 16:28 8,8 C 5,9 C 0,0 C 30 % 66 % 1015,7 hPa 0,0 mm 11,1 km/h W-SW 248 2,8 C 2,3 C 16,9 km/h
19.02.2019 16:27 8,8 C 5,9 C 0,0 C 30 % 65 % 1015,7 hPa 0,0 mm 10,2 km/h W-SW 252 2,6 C 2,9 C 22,3 km/h
19.02.2019 16:26 8,8 C 5,9 C 0,0 C 30 % 65 % 1015,8 hPa 0,0 mm 11,7 km/h W-SW 240 2,6 C 2,0 C 13,7 km/h
19.02.2019 16:25 8,8 C 5,9 C 0,0 C 30 % 66 % 1015,8 hPa 0,0 mm 11,5 km/h W-SW 243 2,8 C 2,1 C 20,5 km/h
19.02.2019 16:24 8,9 C 5,9 C 0,0 C 30 % 65 % 1015,8 hPa 0,0 mm 10,3 km/h W 271 2,7 C 2,9 C 18,7 km/h
19.02.2019 16:23 8,9 C 5,9 C 0,0 C 30 % 66 % 1015,8 hPa 0,0 mm 10,2 km/h W 259 2,9 C 2,9 C 18,7 km/h
19.02.2019 16:22 8,8 C 5,9 C 0,0 C 30 % 66 % 1015,8 hPa 0,0 mm 11,6 km/h SW 228 2,8 C 2,0 C 13,7 km/h
19.02.2019 16:21 8,9 C 5,9 C 0,0 C 30 % 66 % 1015,8 hPa 0,0 mm 13,2 km/h W-SW 250 2,9 C 1,1 C 13,7 km/h
19.02.2019 16:20 8,9 C 5,9 C 0,0 C 30 % 66 % 1015,8 hPa 0,0 mm 15,1 km/h SW 233 2,9 C 0,1 C 20,5 km/h
19.02.2019 16:19 8,9 C 5,9 C 0,0 C 30 % 65 % 1015,8 hPa 0,0 mm 15,9 km/h W-SW 258 2,7 C -0,3 C 25,6 km/h
19.02.2019 16:18 8,8 C 5,9 C 0,0 C 30 % 66 % 1015,8 hPa 0,0 mm 12,8 km/h W 274 2,8 C 1,3 C 23,8 km/h
19.02.2019 16:17 8,9 C 5,9 C 0,0 C 30 % 66 % 1015,8 hPa 0,0 mm 9,0 km/h SW 235 2,9 C 3,8 C 23,8 km/h
19.02.2019 16:16 8,9 C 5,9 C 0,0 C 30 % 66 % 1015,8 hPa 0,0 mm 7,5 km/h W 271 2,9 C 5,0 C 11,9 km/h
19.02.2019 16:15 8,9 C 5,9 C 0,0 C 30 % 66 % 1015,8 hPa 0,0 mm 8,1 km/h W-SW 238 2,9 C 4,5 C 11,9 km/h
19.02.2019 16:14 8,9 C 5,9 C 0,0 C 30 % 66 % 1015,9 hPa 0,0 mm 10,0 km/h W-NW 288 2,9 C 3,1 C 11,9 km/h
19.02.2019 16:13 8,9 C 5,9 C 0,0 C 30 % 66 % 1015,9 hPa 0,0 mm 10,6 km/h S-SO 162 2,9 C 2,7 C 16,9 km/h
19.02.2019 16:12 8,9 C 5,9 C 0,0 C 30 % 66 % 1015,9 hPa 0,0 mm 8,9 km/h W-SW 255 2,9 C 3,9 C 18,7 km/h
19.02.2019 16:11 8,9 C 5,9 C 0,0 C 30 % 66 % 1015,9 hPa 0,0 mm 8,8 km/h W-NW 298 2,9 C 3,9 C 8,8 km/h
19.02.2019 16:10 8,9 C 5,9 C 0,0 C 30 % 66 % 1015,9 hPa 0,0 mm 9,4 km/h W-SW 248 2,9 C 3,5 C 16,9 km/h
19.02.2019 16:09 8,9 C 5,9 C 0,0 C 30 % 66 % 1015,9 hPa 0,0 mm 9,3 km/h W-SW 244 2,9 C 3,6 C 13,7 km/h
19.02.2019 16:08 8,9 C 5,9 C 0,0 C 30 % 66 % 1016,0 hPa 0,0 mm 9,4 km/h W-SW 245 2,9 C 3,5 C 13,7 km/h
19.02.2019 16:07 8,9 C 5,9 C 0,0 C 30 % 66 % 1015,9 hPa 0,0 mm 9,2 km/h W-SW 258 2,9 C 3,6 C 11,9 km/h
19.02.2019 16:06 8,9 C 5,9 C 0,0 C 30 % 66 % 1016,0 hPa 0,0 mm 9,5 km/h W-SW 255 2,9 C 3,4 C 16,9 km/h
19.02.2019 16:05 8,9 C 5,9 C 0,0 C 30 % 66 % 1015,9 hPa 0,0 mm 9,9 km/h W 259 2,9 C 3,1 C 11,9 km/h
19.02.2019 16:04 8,9 C 5,9 C 0,0 C 30 % 66 % 1015,9 hPa 0,0 mm 9,3 km/h W-SW 244 2,9 C 3,6 C 16,9 km/h
19.02.2019 16:03 8,9 C 5,9 C 0,0 C 30 % 66 % 1015,9 hPa 0,0 mm 8,9 km/h SW 234 2,9 C 3,9 C 13,7 km/h
19.02.2019 16:02 8,9 C 5,9 C 0,0 C 30 % 66 % 1015,9 hPa 0,0 mm 8,6 km/h W-SW 237 2,9 C 4,1 C 10,1 km/h
19.02.2019 16:01 8,9 C 5,9 C 0,0 C 30 % 66 % 1015,9 hPa 0,0 mm 9,6 km/h W 276 2,9 C 3,3 C 15,5 km/h
19.02.2019 16:00 9,0 C 6,0 C 0,0 C 30 % 65 % 1015,9 hPa 0,0 mm 11,4 km/h W 265 2,8 C 2,3 C 11,9 km/h
19.02.2019 15:59 9,0 C 6,0 C 0,0 C 30 % 65 % 1015,9 hPa 0,0 mm 11,5 km/h W-SW 240 2,8 C 2,2 C 20,5 km/h
19.02.2019 15:58 9,0 C 6,0 C 0,0 C 30 % 65 % 1015,9 hPa 0,0 mm 10,4 km/h W-NW 283 2,8 C 2,9 C 18,7 km/h
19.02.2019 15:57 9,0 C 6,0 C 0,0 C 30 % 66 % 1015,9 hPa 0,0 mm 10,0 km/h W 261 3,0 C 3,2 C 15,5 km/h
19.02.2019 15:56 9,1 C 6,1 C 0,0 C 30 % 66 % 1015,9 hPa 0,0 mm 10,0 km/h W 278 3,1 C 3,3 C 13,7 km/h
19.02.2019 15:55 9,1 C 6,1 C 0,0 C 30 % 65 % 1015,9 hPa 0,0 mm 10,1 km/h W-SW 258 2,9 C 3,2 C 11,9 km/h
19.02.2019 15:54 9,1 C 6,1 C 0,0 C 30 % 65 % 1015,8 hPa 0,0 mm 10,0 km/h W 261 2,9 C 3,3 C 13,7 km/h
19.02.2019 15:53 9,1 C 6,1 C 0,0 C 30 % 65 % 1015,8 hPa 0,0 mm 10,2 km/h SW 234 2,9 C 3,2 C 11,9 km/h
19.02.2019 15:52 9,1 C 6,1 C 0,0 C 30 % 64 % 1015,9 hPa 0,0 mm 12,0 km/h W 261 2,7 C 2,0 C 13,7 km/h
19.02.2019 15:51 9,1 C 6,1 C 0,0 C 30 % 65 % 1015,8 hPa 0,0 mm 13,1 km/h W-SW 251 2,9 C 1,4 C 15,5 km/h
19.02.2019 15:50 9,1 C 6,1 C 0,0 C 30 % 65 % 1015,8 hPa 0,0 mm 13,6 km/h W-NW 289 2,9 C 1,1 C 20,5 km/h
19.02.2019 15:49 9,1 C 6,1 C 0,0 C 30 % 65 % 1015,8 hPa 0,0 mm 14,6 km/h W-SW 240 2,9 C 0,6 C 20,5 km/h
19.02.2019 15:48 9,1 C 6,1 C 0,0 C 30 % 64 % 1015,7 hPa 0,0 mm 15,3 km/h W-SW 250 2,7 C 0,3 C 18,7 km/h
19.02.2019 15:47 9,1 C 6,1 C 0,0 C 30 % 64 % 1015,7 hPa 0,0 mm 15,3 km/h W-SW 243 2,7 C 0,3 C 27,4 km/h
19.02.2019 15:46 9,1 C 6,1 C 0,0 C 30 % 64 % 1015,8 hPa 0,0 mm 16,0 km/h W 281 2,7 C -0,1 C 23,8 km/h
19.02.2019 15:45 9,1 C 6,1 C 0,0 C 30 % 64 % 1015,7 hPa 0,0 mm 15,0 km/h W 271 2,7 C 0,4 C 29,2 km/h
19.02.2019 15:44 9,2 C 6,1 C 0,0 C 30 % 65 % 1015,8 hPa 0,0 mm 11,8 km/h W-SW 254 3,0 C 2,1 C 25,6 km/h
19.02.2019 15:43 9,2 C 6,1 C 0,0 C 30 % 64 % 1015,7 hPa 0,0 mm 12,6 km/h W 271 2,8 C 1,7 C 16,9 km/h
19.02.2019 15:42 9,2 C 6,1 C 0,0 C 30 % 64 % 1015,8 hPa 0,0 mm 13,5 km/h W-SW 245 2,8 C 1,2 C 22,3 km/h
19.02.2019 15:41 9,2 C 6,1 C 0,0 C 30 % 64 % 1015,8 hPa 0,0 mm 13,2 km/h W-SW 258 2,8 C 1,3 C 20,5 km/h
19.02.2019 15:40 9,2 C 6,1 C 0,0 C 30 % 64 % 1015,7 hPa 0,0 mm 11,9 km/h W-SW 244 2,8 C 2,1 C 20,5 km/h
19.02.2019 15:39 9,2 C 6,1 C 0,0 C 30 % 65 % 1015,8 hPa 0,0 mm 10,2 km/h W-SW 248 3,0 C 3,2 C 15,5 km/h
19.02.2019 15:38 9,2 C 6,1 C 0,0 C 30 % 65 % 1015,7 hPa 0,0 mm 10,1 km/h W 269 3,0 C 3,2 C 11,9 km/h
19.02.2019 15:37 9,2 C 6,1 C 0,0 C 30 % 65 % 1015,7 hPa 0,0 mm 9,6 km/h W-SW 250 3,0 C 3,6 C 16,9 km/h
19.02.2019 15:36 9,2 C 6,1 C 0,0 C 30 % 65 % 1015,7 hPa 0,0 mm 9,1 km/h W 261 3,0 C 3,9 C 13,7 km/h
19.02.2019 15:35 9,2 C 6,1 C 0,0 C 30 % 65 % 1015,7 hPa 0,0 mm 9,8 km/h W-SW 251 3,0 C 3,4 C 13,7 km/h
19.02.2019 15:34 9,2 C 6,1 C 0,0 C 30 % 65 % 1015,7 hPa 0,0 mm 9,5 km/h W 279 3,0 C 3,6 C 15,5 km/h
19.02.2019 15:33 9,2 C 6,1 C 0,0 C 30 % 65 % 1015,7 hPa 0,0 mm 10,6 km/h W 276 3,0 C 2,9 C 11,9 km/h
19.02.2019 15:32 9,2 C 6,1 C 0,0 C 30 % 65 % 1015,7 hPa 0,0 mm 12,2 km/h W-NW 282 3,0 C 1,9 C 13,7 km/h
19.02.2019 15:31 9,2 C 6,1 C 0,0 C 30 % 65 % 1015,7 hPa 0,0 mm 10,9 km/h W-SW 248 3,0 C 2,7 C 27,4 km/h
19.02.2019 15:30 9,2 C 6,1 C 0,0 C 30 % 65 % 1015,6 hPa 0,0 mm 9,7 km/h W-SW 257 3,0 C 3,5 C 15,5 km/h
19.02.2019 15:29 9,2 C 6,1 C 0,0 C 30 % 65 % 1015,7 hPa 0,0 mm 9,4 km/h W-NW 295 3,0 C 3,7 C 13,7 km/h
19.02.2019 15:28 9,2 C 6,1 C 0,0 C 30 % 65 % 1015,7 hPa 0,0 mm 11,5 km/h SW 228 3,0 C 2,3 C 15,5 km/h
19.02.2019 15:27 9,2 C 6,1 C 0,0 C 30 % 65 % 1015,6 hPa 0,0 mm 11,8 km/h SW 230 3,0 C 2,1 C 18,7 km/h
19.02.2019 15:26 9,2 C 6,1 C 0,0 C 30 % 65 % 1015,8 hPa 0,0 mm 10,8 km/h W-SW 257 3,0 C 2,8 C 23,8 km/h
19.02.2019 15:25 9,2 C 6,1 C 0,0 C 30 % 65 % 1015,8 hPa 0,0 mm 10,8 km/h W-SW 257 3,0 C 2,8 C 15,5 km/h
19.02.2019 15:24 9,2 C 6,1 C 0,0 C 30 % 66 % 1015,8 hPa 0,0 mm 10,3 km/h W-SW 247 3,2 C 3,1 C 18,7 km/h
19.02.2019 15:23 9,2 C 6,1 C 0,0 C 30 % 66 % 1015,8 hPa 0,0 mm 8,9 km/h W 274 3,2 C 4,1 C 18,7 km/h
19.02.2019 15:22 9,2 C 6,1 C 0,0 C 30 % 66 % 1015,8 hPa 0,0 mm 7,4 km/h W 278 3,2 C 5,3 C 15,5 km/h
19.02.2019 15:21 9,2 C 6,1 C 0,0 C 30 % 66 % 1015,7 hPa 0,0 mm 8,5 km/h W-SW 245 3,2 C 4,4 C 11,9 km/h
19.02.2019 15:20 9,2 C 6,1 C 0,0 C 30 % 66 % 1015,7 hPa 0,0 mm 11,4 km/h W-SW 248 3,2 C 2,4 C 11,4 km/h
19.02.2019 15:19 9,2 C 6,1 C 0,0 C 30 % 65 % 1015,7 hPa 0,0 mm 11,9 km/h SW 235 3,0 C 2,1 C 15,5 km/h
19.02.2019 15:18 9,2 C 6,1 C 0,0 C 30 % 65 % 1015,7 hPa 0,0 mm 11,1 km/h W 271 3,0 C 2,6 C 20,5 km/h
19.02.2019 15:17 9,2 C 6,1 C 0,0 C 30 % 65 % 1015,7 hPa 0,0 mm 11,8 km/h W-SW 247 3,0 C 2,1 C 13,7 km/h
19.02.2019 15:16 9,3 C 6,2 C 0,0 C 30 % 65 % 1015,6 hPa 0,0 mm 10,8 km/h W 278 3,1 C 2,9 C 18,7 km/h
19.02.2019 15:15 9,3 C 6,2 C 0,0 C 30 % 65 % 1015,6 hPa 0,0 mm 10,2 km/h W-SW 251 3,1 C 3,3 C 20,5 km/h
19.02.2019 15:14 9,3 C 6,2 C 0,0 C 30 % 65 % 1015,6 hPa 0,0 mm 11,5 km/h W 272 3,1 C 2,4 C 15,5 km/h
19.02.2019 15:13 9,3 C 6,2 C 0,0 C 30 % 65 % 1015,6 hPa 0,0 mm 11,6 km/h W 266 3,1 C 2,4 C 16,9 km/h
19.02.2019 15:12 9,3 C 6,2 C 0,0 C 30 % 65 % 1015,5 hPa 0,0 mm 12,7 km/h SW 231 3,1 C 1,7 C 16,9 km/h
19.02.2019 15:11 9,3 C 6,2 C 0,0 C 30 % 65 % 1015,6 hPa 0,0 mm 13,3 km/h W-SW 250 3,1 C 1,4 C 22,3 km/h
19.02.2019 15:10 9,3 C 6,2 C 0,0 C 30 % 64 % 1015,7 hPa 0,0 mm 12,2 km/h W-SW 254 2,8 C 2,0 C 16,9 km/h
19.02.2019 15:09 9,3 C 6,2 C 0,0 C 30 % 65 % 1015,5 hPa 0,0 mm 10,9 km/h W-SW 247 3,1 C 2,8 C 23,8 km/h
19.02.2019 15:08 9,3 C 6,2 C 0,0 C 30 % 65 % 1015,6 hPa 0,0 mm 9,9 km/h SW 231 3,1 C 3,5 C 15,5 km/h
19.02.2019 15:07 9,3 C 6,2 C 0,0 C 30 % 64 % 1015,7 hPa 0,0 mm 10,7 km/h W 276 2,8 C 2,9 C 16,9 km/h
19.02.2019 15:06 9,3 C 6,2 C 0,0 C 30 % 64 % 1015,6 hPa 0,0 mm 10,6 km/h W 264 2,8 C 3,0 C 13,7 km/h
19.02.2019 15:05 9,3 C 6,2 C 0,0 C 30 % 65 % 1015,6 hPa 0,0 mm 11,4 km/h W-NW 285 3,1 C 2,5 C 16,9 km/h
19.02.2019 15:04 9,3 C 6,2 C 0,0 C 30 % 64 % 1015,7 hPa 0,0 mm 11,2 km/h W-NW 285 2,8 C 2,6 C 13,7 km/h
19.02.2019 15:03 9,3 C 6,2 C 0,0 C 30 % 65 % 1015,6 hPa 0,0 mm 9,9 km/h W 264 3,1 C 3,5 C 23,8 km/h
19.02.2019 15:02 9,3 C 6,2 C 0,0 C 30 % 64 % 1015,6 hPa 0,0 mm 11,6 km/h W 261 2,8 C 2,4 C 16,9 km/h
19.02.2019 15:01 9,3 C 6,2 C 0,0 C 30 % 64 % 1015,7 hPa 0,0 mm 14,9 km/h W-SW 254 2,8 C 0,6 C 16,9 km/h
19.02.2019 15:00 9,3 C 6,2 C 0,0 C 30 % 64 % 1015,7 hPa 0,0 mm 15,2 km/h W-SW 240 2,8 C 0,4 C 20,5 km/h
19.02.2019 14:59 9,4 C 6,3 C 0,0 C 30 % 63 % 1015,6 hPa 0,0 mm 13,4 km/h W 264 2,7 C 1,5 C 27,4 km/h
19.02.2019 14:58 9,4 C 6,3 C 0,0 C 30 % 63 % 1015,6 hPa 0,0 mm 14,1 km/h W-SW 254 2,7 C 1,1 C 18,7 km/h
19.02.2019 14:57 9,4 C 6,3 C 0,0 C 30 % 63 % 1015,7 hPa 0,0 mm 16,9 km/h W 262 2,7 C -0,2 C 18,7 km/h
19.02.2019 14:56 9,4 C 6,3 C 0,0 C 30 % 63 % 1015,6 hPa 0,0 mm 15,7 km/h SW 235 2,7 C 0,3 C 25,6 km/h
19.02.2019 14:55 9,5 C 6,3 C 0,0 C 30 % 62 % 1015,6 hPa 0,0 mm 14,7 km/h W 274 2,6 C 0,8 C 27,4 km/h
19.02.2019 14:54 9,5 C 6,3 C 0,0 C 30 % 62 % 1015,5 hPa 0,0 mm 16,3 km/h W-SW 251 2,6 C 0,0 C 18,7 km/h
19.02.2019 14:53 9,6 C 6,4 C 0,0 C 30 % 62 % 1015,6 hPa 0,0 mm 15,7 km/h W-SW 240 2,7 C 0,4 C 25,6 km/h
19.02.2019 14:52 9,6 C 6,4 C 0,0 C 30 % 63 % 1015,7 hPa 0,0 mm 13,8 km/h W-NW 295 2,9 C 1,4 C 34,2 km/h
19.02.2019 14:51 9,6 C 6,4 C 0,0 C 30 % 62 % 1015,7 hPa 0,0 mm 13,3 km/h NW 306 2,7 C 1,6 C 18,7 km/h
19.02.2019 14:50 9,6 C 6,4 C 0,0 C 30 % 62 % 1015,6 hPa 0,0 mm 13,4 km/h SW 226 2,7 C 1,6 C 23,8 km/h
19.02.2019 14:49 9,7 C 6,5 C 0,0 C 30 % 63 % 1015,6 hPa 0,0 mm 13,2 km/h SW 231 3,0 C 1,8 C 18,7 km/h
19.02.2019 14:48 9,7 C 6,5 C 0,0 C 30 % 63 % 1015,6 hPa 0,0 mm 13,6 km/h W 278 3,0 C 1,6 C 16,9 km/h
19.02.2019 14:47 9,7 C 6,5 C 0,0 C 30 % 63 % 1015,6 hPa 0,0 mm 12,4 km/h W-SW 241 3,0 C 2,3 C 20,5 km/h
19.02.2019 14:46 9,8 C 6,5 C 0,0 C 30 % 63 % 1015,6 hPa 0,0 mm 10,9 km/h W 268 3,1 C 3,1 C 23,8 km/h
19.02.2019 14:45 9,8 C 6,5 C 0,0 C 30 % 62 % 1015,6 hPa 0,0 mm 11,1 km/h W-NW 288 2,9 C 3,0 C 15,5 km/h
19.02.2019 14:44 9,8 C 6,5 C 0,0 C 30 % 62 % 1015,5 hPa 0,0 mm 11,8 km/h SW 235 2,9 C 2,6 C 16,9 km/h
19.02.2019 14:43 9,8 C 6,5 C 0,0 C 30 % 62 % 1015,6 hPa 0,0 mm 13,6 km/h W-SW 255 2,9 C 1,6 C 16,9 km/h
19.02.2019 14:42 9,9 C 6,6 C 0,0 C 30 % 62 % 1015,5 hPa 0,0 mm 13,9 km/h SW 214 3,0 C 1,6 C 27,4 km/h
19.02.2019 14:41 9,9 C 6,6 C 0,0 C 30 % 63 % 1015,5 hPa 0,0 mm 11,0 km/h W-NW 298 3,2 C 3,2 C 23,8 km/h
19.02.2019 14:40 9,9 C 6,6 C 0,0 C 30 % 63 % 1015,6 hPa 0,0 mm 8,9 km/h W-SW 245 3,2 C 4,6 C 18,7 km/h
19.02.2019 14:39 9,9 C 6,6 C 0,0 C 30 % 63 % 1015,6 hPa 0,0 mm 10,2 km/h W-SW 247 3,2 C 3,7 C 15,5 km/h
19.02.2019 14:38 9,9 C 6,6 C 0,0 C 30 % 62 % 1015,5 hPa 0,0 mm 12,4 km/h NW 310 3,0 C 2,4 C 13,7 km/h
19.02.2019 14:37 9,9 C 6,6 C 0,0 C 30 % 61 % 1015,6 hPa 0,0 mm 16,0 km/h W-SW 240 2,7 C 0,5 C 20,5 km/h
19.02.2019 14:36 9,9 C 6,6 C 0,0 C 30 % 62 % 1015,5 hPa 0,0 mm 15,0 km/h W-SW 245 3,0 C 1,0 C 23,8 km/h
19.02.2019 14:35 9,9 C 6,6 C 0,0 C 30 % 61 % 1015,5 hPa 0,0 mm 11,6 km/h W 259 2,7 C 2,8 C 25,6 km/h
19.02.2019 14:34 10,0 C 6,7 C 0,0 C 30 % 61 % 1015,4 hPa 0,0 mm 13,1 km/h W 272 2,8 C 2,1 C 18,7 km/h
19.02.2019 14:33 10,1 C 6,7 C 0,0 C 30 % 60 % 1015,5 hPa 0,0 mm 14,8 km/h W-NW 293 2,7 C 1,2 C 18,7 km/h
19.02.2019 14:32 10,1 C 6,7 C 0,0 C 30 % 61 % 1015,5 hPa 0,0 mm 12,5 km/h SW 230 2,9 C 2,4 C 27,4 km/h
19.02.2019 14:31 10,1 C 6,7 C 0,0 C 30 % 61 % 1015,6 hPa 0,0 mm 8,9 km/h SW 223 2,9 C 4,7 C 16,9 km/h
19.02.2019 14:30 10,1 C 6,7 C 0,0 C 30 % 61 % 1015,5 hPa 0,0 mm 10,0 km/h W 278 2,9 C 4,0 C 13,7 km/h
19.02.2019 14:29 10,1 C 6,7 C 0,0 C 30 % 60 % 1015,5 hPa 0,0 mm 12,2 km/h W 275 2,7 C 2,6 C 16,9 km/h
19.02.2019 14:28 10,2 C 6,8 C 0,0 C 30 % 60 % 1015,5 hPa 0,0 mm 10,8 km/h W-SW 252 2,8 C 3,5 C 25,6 km/h
19.02.2019 14:27 10,2 C 6,8 C 0,0 C 30 % 60 % 1015,5 hPa 0,0 mm 12,1 km/h W-NW 302 2,8 C 2,8 C 12,1 km/h
19.02.2019 14:26 10,2 C 6,8 C 0,0 C 30 % 59 % 1015,4 hPa 0,0 mm 15,3 km/h W-SW 257 2,6 C 1,1 C 15,5 km/h
19.02.2019 14:25 10,4 C 6,9 C 0,0 C 30 % 58 % 1015,4 hPa 0,0 mm 15,5 km/h W 281 2,5 C 1,1 C 29,2 km/h
19.02.2019 14:24 10,5 C 7,0 C 0,0 C 30 % 59 % 1015,4 hPa 0,0 mm 13,8 km/h W 271 2,8 C 2,1 C 18,7 km/h
19.02.2019 14:23 10,6 C 7,1 C 0,0 C 30 % 60 % 1015,5 hPa 0,0 mm 11,8 km/h W-SW 258 3,2 C 3,3 C 22,3 km/h
19.02.2019 14:22 10,7 C 7,1 C 0,0 C 30 % 60 % 1015,4 hPa 0,0 mm 11,1 km/h S-SW 204 3,3 C 3,7 C 11,9 km/h
19.02.2019 14:21 10,7 C 7,1 C 0,0 C 30 % 60 % 1015,5 hPa 0,0 mm 11,1 km/h W-SW 244 3,3 C 3,7 C 20,5 km/h
19.02.2019 14:20 10,8 C 7,2 C 0,0 C 30 % 60 % 1015,4 hPa 0,0 mm 10,5 km/h W-NW 282 3,4 C 4,2 C 13,7 km/h
19.02.2019 14:19 10,8 C 7,2 C 0,0 C 30 % 60 % 1015,4 hPa 0,0 mm 10,5 km/h W-SW 258 3,4 C 4,2 C 20,5 km/h
19.02.2019 14:18 10,7 C 7,1 C 0,0 C 30 % 61 % 1015,4 hPa 0,0 mm 11,9 km/h W 268 3,5 C 3,2 C 16,9 km/h
19.02.2019 14:17 10,7 C 7,1 C 0,0 C 30 % 61 % 1015,5 hPa 0,0 mm 12,6 km/h W-NW 293 3,5 C 2,8 C 13,7 km/h
19.02.2019 14:16 10,7 C 7,1 C 0,0 C 30 % 61 % 1015,4 hPa 0,0 mm 11,4 km/h W-SW 237 3,5 C 3,5 C 29,2 km/h
19.02.2019 14:15 10,7 C 7,1 C 0,0 C 30 % 62 % 1015,4 hPa 0,0 mm 10,2 km/h NW 314 3,7 C 4,3 C 18,7 km/h
19.02.2019 14:14 10,6 C 7,1 C 0,0 C 30 % 62 % 1015,4 hPa 0,0 mm 10,4 km/h W 274 3,6 C 4,1 C 11,9 km/h
19.02.2019 14:13 10,6 C 7,1 C 0,0 C 30 % 62 % 1015,4 hPa 0,0 mm 11,0 km/h W 281 3,6 C 3,8 C 13,7 km/h
19.02.2019 14:12 10,5 C 7,0 C 0,0 C 30 % 61 % 1015,4 hPa 0,0 mm 11,2 km/h W-SW 244 3,3 C 3,5 C 18,7 km/h
19.02.2019 14:11 10,5 C 7,0 C 0,0 C 30 % 61 % 1015,4 hPa 0,0 mm 12,9 km/h W-SW 252 3,3 C 2,6 C 15,5 km/h
19.02.2019 14:10 10,5 C 7,0 C 0,0 C 30 % 61 % 1015,5 hPa 0,0 mm 11,0 km/h W 279 3,3 C 3,6 C 20,5 km/h
19.02.2019 14:09 10,5 C 7,0 C 0,0 C 30 % 62 % 1015,5 hPa 0,0 mm 9,6 km/h W-SW 244 3,5 C 4,5 C 18,7 km/h
19.02.2019 14:08 10,4 C 6,9 C 0,0 C 30 % 62 % 1015,4 hPa 0,0 mm 9,9 km/h W-SW 240 3,4 C 4,2 C 16,9 km/h
19.02.2019 14:07 10,4 C 6,9 C 0,0 C 30 % 61 % 1015,4 hPa 0,0 mm 9,5 km/h W 261 3,2 C 4,5 C 11,9 km/h
19.02.2019 14:06 10,3 C 6,9 C 0,0 C 30 % 61 % 1015,4 hPa 0,0 mm 10,2 km/h W-SW 258 3,1 C 4,0 C 13,7 km/h
19.02.2019 14:05 10,3 C 6,9 C 0,0 C 30 % 61 % 1015,3 hPa 0,0 mm 12,2 km/h W-SW 243 3,1 C 2,8 C 12,2 km/h
19.02.2019 14:04 10,3 C 6,9 C 0,0 C 30 % 62 % 1015,4 hPa 0,0 mm 11,8 km/h W 268 3,3 C 3,1 C 20,5 km/h
19.02.2019 14:03 10,3 C 6,9 C 0,0 C 30 % 62 % 1015,4 hPa 0,0 mm 10,4 km/h SW 224 3,3 C 3,9 C 20,5 km/h
19.02.2019 14:02 10,3 C 6,9 C 0,0 C 30 % 61 % 1015,3 hPa 0,0 mm 11,0 km/h W 279 3,1 C 3,5 C 20,5 km/h
19.02.2019 14:01 10,2 C 6,8 C 0,0 C 30 % 61 % 1015,3 hPa 0,0 mm 12,5 km/h W 272 3,0 C 2,5 C 15,5 km/h
19.02.2019 14:00 10,2 C 6,8 C 0,0 C 30 % 62 % 1015,2 hPa 0,0 mm 13,0 km/h W 272 3,3 C 2,3 C 18,7 km/h
19.02.2019 13:59 10,1 C 6,7 C 0,0 C 30 % 62 % 1015,3 hPa 0,0 mm 11,4 km/h W 281 3,2 C 3,1 C 18,7 km/h
19.02.2019 13:58 10,1 C 6,7 C 0,0 C 30 % 63 % 1015,3 hPa 0,0 mm 9,3 km/h W-SW 252 3,4 C 4,4 C 22,3 km/h
19.02.2019 13:57 9,9 C 6,6 C 0,0 C 30 % 64 % 1015,3 hPa 0,0 mm 8,0 km/h W-SW 243 3,4 C 5,3 C 11,9 km/h
19.02.2019 13:56 9,8 C 6,5 C 0,0 C 30 % 64 % 1015,4 hPa 0,0 mm 9,2 km/h W-SW 241 3,3 C 4,3 C 15,5 km/h
19.02.2019 13:55 9,7 C 6,5 C 0,0 C 30 % 64 % 1015,4 hPa 0,0 mm 11,2 km/h W-SW 257 3,2 C 3,0 C 16,9 km/h
19.02.2019 13:54 9,7 C 6,5 C 0,0 C 30 % 64 % 1015,4 hPa 0,0 mm 11,0 km/h W-SW 255 3,2 C 3,1 C 22,3 km/h
19.02.2019 13:53 9,6 C 6,4 C 0,0 C 30 % 63 % 1015,4 hPa 0,0 mm 10,2 km/h W 262 2,9 C 3,5 C 13,7 km/h
19.02.2019 13:52 9,6 C 6,4 C 0,0 C 30 % 64 % 1015,4 hPa 0,0 mm 10,8 km/h W-SW 258 3,1 C 3,1 C 13,7 km/h
19.02.2019 13:51 9,6 C 6,4 C 0,0 C 30 % 64 % 1015,4 hPa 0,0 mm 10,7 km/h SW 227 3,1 C 3,2 C 16,9 km/h
19.02.2019 13:50 9,6 C 6,4 C 0,0 C 30 % 64 % 1015,4 hPa 0,0 mm 10,6 km/h W-NW 289 3,1 C 3,2 C 25,6 km/h
19.02.2019 13:49 9,6 C 6,4 C 0,0 C 30 % 63 % 1015,4 hPa 0,0 mm 10,0 km/h W 276 2,9 C 3,6 C 16,9 km/h
19.02.2019 13:48 9,6 C 6,4 C 0,0 C 30 % 63 % 1015,5 hPa 0,0 mm 10,2 km/h W 269 2,9 C 3,5 C 13,7 km/h
19.02.2019 13:47 9,6 C 6,4 C 0,0 C 30 % 63 % 1015,5 hPa 0,0 mm 10,2 km/h W-SW 238 2,9 C 3,5 C 18,7 km/h
19.02.2019 13:46 9,7 C 6,5 C 0,0 C 30 % 63 % 1015,4 hPa 0,0 mm 9,2 km/h W-SW 254 3,0 C 4,3 C 15,5 km/h
19.02.2019 13:45 9,7 C 6,5 C 0,0 C 30 % 62 % 1015,4 hPa 0,0 mm 10,9 km/h W-NW 289 2,8 C 3,1 C 11,9 km/h
19.02.2019 13:44 9,7 C 6,5 C 0,0 C 30 % 63 % 1015,4 hPa 0,0 mm 11,8 km/h W-NW 285 3,0 C 2,6 C 22,3 km/h
19.02.2019 13:43 9,8 C 6,5 C 0,0 C 30 % 63 % 1015,4 hPa 0,0 mm 12,1 km/h W-SW 247 3,1 C 2,4 C 18,7 km/h
19.02.2019 13:42 9,8 C 6,5 C 0,0 C 30 % 62 % 1015,4 hPa 0,0 mm 14,5 km/h W-SW 248 2,9 C 1,1 C 20,5 km/h
19.02.2019 13:41 9,8 C 6,5 C 0,0 C 30 % 62 % 1015,4 hPa 0,0 mm 11,9 km/h W-NW 290 2,9 C 2,5 C 23,8 km/h
19.02.2019 13:40 9,8 C 6,5 C 0,0 C 30 % 63 % 1015,5 hPa 0,0 mm 8,4 km/h W-SW 248 3,1 C 4,9 C 22,3 km/h
19.02.2019 13:39 9,8 C 6,5 C 0,0 C 30 % 63 % 1015,4 hPa 0,0 mm 9,7 km/h W 279 3,1 C 3,9 C 10,1 km/h
19.02.2019 13:38 9,8 C 6,5 C 0,0 C 30 % 62 % 1015,4 hPa 0,0 mm 12,7 km/h W-SW 255 2,9 C 2,1 C 15,5 km/h
19.02.2019 13:37 9,8 C 6,5 C 0,0 C 30 % 63 % 1015,4 hPa 0,0 mm 12,5 km/h S-SW 212 3,1 C 2,2 C 27,4 km/h
19.02.2019 13:36 9,8 C 6,5 C 0,0 C 30 % 63 % 1015,4 hPa 0,0 mm 9,2 km/h W-NW 286 3,1 C 4,3 C 23,8 km/h
19.02.2019 13:35 9,8 C 6,5 C 0,0 C 30 % 63 % 1015,5 hPa 0,0 mm 10,9 km/h W-NW 290 3,1 C 3,1 C 11,9 km/h
19.02.2019 13:34 9,8 C 6,5 C 0,0 C 30 % 62 % 1015,5 hPa 0,0 mm 15,6 km/h SW 233 2,9 C 0,6 C 20,5 km/h
19.02.2019 13:33 9,8 C 6,5 C 0,0 C 30 % 62 % 1015,4 hPa 0,0 mm 17,9 km/h W-SW 254 2,9 C -0,4 C 30,6 km/h
19.02.2019 13:32 9,9 C 6,6 C 0,0 C 30 % 62 % 1015,4 hPa 0,0 mm 15,7 km/h NW 307 3,0 C 0,7 C 29,2 km/h
19.02.2019 13:31 10,0 C 6,7 C 0,0 C 30 % 61 % 1015,4 hPa 0,0 mm 14,2 km/h NW 310 2,8 C 1,5 C 25,6 km/h
19.02.2019 13:30 10,1 C 6,7 C 0,0 C 30 % 61 % 1015,5 hPa 0,0 mm 17,6 km/h SW 220 2,9 C -0,0 C 23,8 km/h
19.02.2019 13:29 10,1 C 6,7 C 0,0 C 30 % 61 % 1015,5 hPa 0,0 mm 17,4 km/h W-SW 251 2,9 C 0,1 C 30,6 km/h
19.02.2019 13:28 10,2 C 6,8 C 0,0 C 30 % 62 % 1015,5 hPa 0,0 mm 12,9 km/h W-SW 247 3,3 C 2,3 C 23,8 km/h
19.02.2019 13:27 10,2 C 6,8 C 0,0 C 30 % 63 % 1015,5 hPa 0,0 mm 11,7 km/h W 279 3,5 C 3,0 C 18,7 km/h
19.02.2019 13:26 10,2 C 6,8 C 0,0 C 30 % 62 % 1015,5 hPa 0,0 mm 13,4 km/h W 279 3,3 C 2,1 C 16,9 km/h
19.02.2019 13:25 10,1 C 6,7 C 0,0 C 30 % 63 % 1015,4 hPa 0,0 mm 13,9 km/h W 278 3,4 C 1,7 C 20,5 km/h
19.02.2019 13:24 10,1 C 6,7 C 0,0 C 30 % 62 % 1015,4 hPa 0,0 mm 14,1 km/h W-SW 255 3,2 C 1,6 C 23,8 km/h
19.02.2019 13:23 10,1 C 6,7 C 0,0 C 30 % 62 % 1015,5 hPa 0,0 mm 13,1 km/h W 281 3,2 C 2,1 C 27,4 km/h
19.02.2019 13:22 10,1 C 6,7 C 0,0 C 30 % 63 % 1015,3 hPa 0,0 mm 12,6 km/h W 272 3,4 C 2,4 C 22,3 km/h
19.02.2019 13:21 9,9 C 6,6 C 0,0 C 30 % 63 % 1015,3 hPa 0,0 mm 13,5 km/h W-NW 290 3,2 C 1,8 C 25,6 km/h
19.02.2019 13:20 9,9 C 6,6 C 0,0 C 30 % 63 % 1015,4 hPa 0,0 mm 12,4 km/h SW 235 3,2 C 2,4 C 23,8 km/h
19.02.2019 13:19 9,8 C 6,5 C 0,0 C 30 % 62 % 1015,2 hPa 0,0 mm 13,1 km/h W-SW 248 2,9 C 1,9 C 16,9 km/h
19.02.2019 13:18 9,8 C 6,5 C 0,0 C 30 % 62 % 1015,3 hPa 0,0 mm 13,4 km/h NW 307 2,9 C 1,7 C 22,3 km/h
19.02.2019 13:17 9,8 C 6,5 C 0,0 C 30 % 62 % 1015,4 hPa 0,0 mm 14,0 km/h W-NW 283 2,9 C 1,4 C 20,5 km/h
19.02.2019 13:16 9,7 C 6,5 C 0,0 C 30 % 62 % 1015,4 hPa 0,0 mm 17,1 km/h W 269 2,8 C -0,1 C 20,5 km/h
19.02.2019 13:15 9,8 C 6,5 C 0,0 C 30 % 62 % 1015,4 hPa 0,0 mm 17,2 km/h W-SW 243 2,9 C -0,1 C 30,6 km/h
19.02.2019 13:14 9,8 C 6,5 C 0,0 C 30 % 61 % 1015,4 hPa 0,0 mm 16,8 km/h W 266 2,6 C 0,1 C 22,3 km/h
19.02.2019 13:13 9,9 C 6,6 C 0,0 C 30 % 60 % 1015,4 hPa 0,0 mm 16,7 km/h W-SW 240 2,5 C 0,2 C 22,3 km/h
19.02.2019 13:12 10,1 C 6,7 C 0,0 C 30 % 60 % 1015,4 hPa 0,0 mm 18,2 km/h W-NW 283 2,7 C -0,3 C 23,8 km/h
19.02.2019 13:11 10,2 C 6,8 C 0,0 C 30 % 60 % 1015,4 hPa 0,0 mm 19,5 km/h W-SW 251 2,8 C -0,7 C 29,2 km/h
19.02.2019 13:10 10,3 C 6,9 C 0,0 C 30 % 61 % 1015,4 hPa 0,0 mm 15,9 km/h W-SW 248 3,1 C 1,0 C 29,2 km/h
19.02.2019 13:09 10,3 C 6,9 C 0,0 C 30 % 62 % 1015,4 hPa 0,0 mm 11,3 km/h W 269 3,3 C 3,4 C 22,3 km/h
19.02.2019 13:08 10,3 C 6,9 C 0,0 C 30 % 62 % 1015,3 hPa 0,0 mm 12,1 km/h W 281 3,3 C 2,9 C 13,7 km/h
19.02.2019 13:07 10,3 C 6,9 C 0,0 C 30 % 61 % 1015,2 hPa 0,0 mm 13,9 km/h W 275 3,1 C 1,9 C 18,7 km/h
19.02.2019 13:06 10,3 C 6,9 C 0,0 C 30 % 61 % 1015,4 hPa 0,0 mm 13,1 km/h W-SW 244 3,1 C 2,3 C 23,8 km/h
19.02.2019 13:05 10,3 C 6,9 C 0,0 C 30 % 62 % 1015,2 hPa 0,0 mm 10,1 km/h W-SW 250 3,3 C 4,1 C 23,8 km/h
19.02.2019 13:04 10,2 C 6,8 C 0,0 C 30 % 64 % 1015,3 hPa 0,0 mm 7,5 km/h W-SW 237 3,7 C 5,9 C 16,9 km/h
19.02.2019 13:03 10,2 C 6,8 C 0,0 C 30 % 64 % 1015,2 hPa 0,0 mm 7,2 km/h W 275 3,7 C 6,1 C 11,9 km/h
19.02.2019 13:02 10,1 C 6,7 C 0,0 C 30 % 64 % 1015,2 hPa 0,0 mm 9,3 km/h W 272 3,6 C 4,4 C 10,1 km/h
19.02.2019 13:01 10,1 C 6,7 C 0,0 C 30 % 64 % 1015,3 hPa 0,0 mm 12,6 km/h W 261 3,6 C 2,4 C 12,6 km/h
19.02.2019 13:00 10,0 C 6,7 C 0,0 C 30 % 64 % 1015,2 hPa 0,0 mm 12,7 km/h W-SW 243 3,5 C 2,3 C 20,5 km/h
19.02.2019 12:59 10,0 C 6,7 C 0,0 C 30 % 63 % 1015,3 hPa 0,0 mm 13,7 km/h W-SW 245 3,3 C 1,8 C 18,7 km/h
19.02.2019 12:58 10,0 C 6,7 C 0,0 C 30 % 62 % 1015,3 hPa 0,0 mm 14,1 km/h W 259 3,1 C 1,6 C 23,8 km/h
19.02.2019 12:57 10,0 C 6,7 C 0,0 C 30 % 64 % 1015,2 hPa 0,0 mm 10,8 km/h W-SW 257 3,5 C 3,4 C 20,5 km/h
19.02.2019 12:56 9,9 C 6,6 C 0,0 C 30 % 66 % 1015,3 hPa 0,0 mm 8,9 km/h W-SW 247 3,9 C 4,6 C 16,9 km/h
19.02.2019 12:55 9,9 C 6,6 C 0,0 C 30 % 66 % 1015,2 hPa 0,0 mm 7,7 km/h W-SW 248 3,9 C 5,5 C 13,7 km/h
19.02.2019 12:54 9,8 C 6,5 C 0,0 C 30 % 66 % 1015,3 hPa 0,0 mm 7,5 km/h W 274 3,8 C 5,6 C 10,1 km/h
19.02.2019 12:53 9,7 C 6,5 C 0,0 C 30 % 65 % 1015,2 hPa 0,0 mm 8,7 km/h W-SW 245 3,4 C 4,6 C 11,9 km/h
19.02.2019 12:52 9,6 C 6,4 C 0,0 C 30 % 66 % 1015,2 hPa 0,0 mm 9,1 km/h W 281 3,6 C 4,2 C 15,5 km/h
19.02.2019 12:51 9,6 C 6,4 C 0,0 C 30 % 66 % 1015,3 hPa 0,0 mm 8,0 km/h W 281 3,6 C 5,1 C 15,5 km/h
19.02.2019 12:50 9,4 C 6,3 C 0,0 C 30 % 65 % 1015,2 hPa 0,0 mm 9,0 km/h W 262 3,2 C 4,2 C 10,1 km/h
19.02.2019 12:49 9,4 C 6,3 C 0,0 C 30 % 65 % 1015,3 hPa 0,0 mm 11,9 km/h S-SW 213 3,2 C 2,3 C 13,7 km/h
19.02.2019 12:48 9,4 C 6,3 C 0,0 C 30 % 65 % 1015,2 hPa 0,0 mm 11,4 km/h W 268 3,2 C 2,6 C 22,3 km/h
19.02.2019 12:47 9,3 C 6,2 C 0,0 C 30 % 65 % 1015,2 hPa 0,0 mm 9,7 km/h W 259 3,1 C 3,6 C 18,7 km/h
19.02.2019 12:46 9,3 C 6,2 C 0,0 C 30 % 64 % 1015,4 hPa 0,0 mm 11,1 km/h W 278 2,8 C 2,7 C 16,9 km/h
19.02.2019 12:45 9,4 C 6,3 C 0,0 C 30 % 64 % 1015,4 hPa 0,0 mm 11,9 km/h W 278 2,9 C 2,3 C 20,5 km/h
19.02.2019 12:44 9,4 C 6,3 C 0,0 C 30 % 64 % 1015,4 hPa 0,0 mm 10,6 km/h W-NW 285 2,9 C 3,1 C 23,8 km/h
19.02.2019 12:43 9,4 C 6,3 C 0,0 C 30 % 63 % 1015,4 hPa 0,0 mm 10,3 km/h W-SW 243 2,7 C 3,3 C 13,7 km/h
19.02.2019 12:42 9,4 C 6,3 C 0,0 C 30 % 64 % 1015,2 hPa 0,0 mm 10,5 km/h W-NW 283 2,9 C 3,2 C 13,7 km/h
19.02.2019 12:41 9,4 C 6,3 C 0,0 C 30 % 64 % 1015,4 hPa 0,0 mm 8,1 km/h W-SW 252 2,9 C 4,9 C 16,9 km/h
19.02.2019 12:40 9,4 C 6,3 C 0,0 C 30 % 64 % 1015,3 hPa 0,0 mm 7,1 km/h W-SW 254 2,9 C 5,7 C 13,7 km/h
19.02.2019 12:39 9,3 C 6,2 C 0,0 C 30 % 63 % 1015,3 hPa 0,0 mm 10,5 km/h NW 307 2,6 C 3,1 C 10,5 km/h
19.02.2019 12:38 9,3 C 6,2 C 0,0 C 30 % 63 % 1015,2 hPa 0,0 mm 12,0 km/h W 278 2,6 C 2,1 C 20,5 km/h
19.02.2019 12:37 9,3 C 6,2 C 0,0 C 30 % 62 % 1015,3 hPa 0,0 mm 9,5 km/h W 261 2,4 C 3,7 C 18,7 km/h
19.02.2019 12:36 9,4 C 6,3 C 0,0 C 30 % 63 % 1015,3 hPa 0,0 mm 8,9 km/h W 272 2,7 C 4,3 C 13,7 km/h
19.02.2019 12:35 9,4 C 6,3 C 0,0 C 30 % 63 % 1015,4 hPa 0,0 mm 10,3 km/h W 271 2,7 C 3,3 C 15,5 km/h
19.02.2019 12:34 9,4 C 6,3 C 0,0 C 30 % 64 % 1015,3 hPa 0,0 mm 11,1 km/h W-SW 240 2,9 C 2,8 C 13,7 km/h
19.02.2019 12:33 9,4 C 6,3 C 0,0 C 30 % 64 % 1015,4 hPa 0,0 mm 9,4 km/h W 275 2,9 C 3,9 C 23,8 km/h
19.02.2019 12:32 9,4 C 6,3 C 0,0 C 30 % 63 % 1015,4 hPa 0,0 mm 11,0 km/h W-SW 251 2,7 C 2,9 C 13,7 km/h
19.02.2019 12:31 9,5 C 6,3 C 0,0 C 30 % 62 % 1015,3 hPa 0,0 mm 14,2 km/h W 269 2,6 C 1,1 C 14,2 km/h
19.02.2019 12:30 9,5 C 6,3 C 0,0 C 30 % 62 % 1015,4 hPa 0,0 mm 14,7 km/h W-NW 282 2,6 C 0,8 C 32,4 km/h
19.02.2019 12:29 9,6 C 6,4 C 0,0 C 30 % 62 % 1015,3 hPa 0,0 mm 14,9 km/h W-SW 257 2,7 C 0,8 C 23,8 km/h
19.02.2019 12:28 9,6 C 6,4 C 0,0 C 30 % 63 % 1015,3 hPa 0,0 mm 13,8 km/h W-SW 237 2,9 C 1,4 C 20,5 km/h
19.02.2019 12:27 9,6 C 6,4 C 0,0 C 30 % 63 % 1015,2 hPa 0,0 mm 12,4 km/h W 281 2,9 C 2,1 C 23,8 km/h
19.02.2019 12:26 9,6 C 6,4 C 0,0 C 30 % 64 % 1015,3 hPa 0,0 mm 10,2 km/h W-SW 244 3,1 C 3,5 C 18,7 km/h
19.02.2019 12:25 9,6 C 6,4 C 0,0 C 30 % 64 % 1015,3 hPa 0,0 mm 8,6 km/h S 190 3,1 C 4,6 C 16,9 km/h
19.02.2019 12:24 9,6 C 6,4 C 0,0 C 30 % 64 % 1015,4 hPa 0,0 mm 7,6 km/h W 262 3,1 C 5,4 C 15,5 km/h
19.02.2019 12:23 9,6 C 6,4 C 0,0 C 30 % 65 % 1015,3 hPa 0,0 mm 6,2 km/h W-SW 247 3,4 C 6,4 C 11,9 km/h
19.02.2019 12:22 9,6 C 6,4 C 0,0 C 30 % 65 % 1015,3 hPa 0,0 mm 7,1 km/h SW 221 3,4 C 5,8 C 10,1 km/h
19.02.2019 12:21 9,5 C 6,3 C 0,0 C 30 % 65 % 1015,4 hPa 0,0 mm 9,6 km/h W-SW 257 3,3 C 3,8 C 10,1 km/h
19.02.2019 12:20 9,4 C 6,3 C 0,0 C 30 % 64 % 1015,2 hPa 0,0 mm 10,1 km/h NW 306 2,9 C 3,4 C 22,3 km/h
19.02.2019 12:19 9,4 C 6,3 C 0,0 C 30 % 64 % 1015,2 hPa 0,0 mm 9,6 km/h W-SW 248 2,9 C 3,8 C 15,5 km/h
19.02.2019 12:18 9,4 C 6,3 C 0,0 C 30 % 65 % 1015,3 hPa 0,0 mm 10,3 km/h W-SW 250 3,2 C 3,3 C 16,9 km/h
19.02.2019 12:17 9,4 C 6,3 C 0,0 C 30 % 65 % 1015,3 hPa 0,0 mm 10,7 km/h W 268 3,2 C 3,0 C 16,9 km/h
19.02.2019 12:16 9,4 C 6,3 C 0,0 C 30 % 65 % 1015,2 hPa 0,0 mm 11,9 km/h W-SW 257 3,2 C 2,3 C 20,5 km/h
19.02.2019 12:15 9,3 C 6,2 C 0,0 C 30 % 66 % 1015,4 hPa 0,0 mm 10,9 km/h W 265 3,3 C 2,8 C 22,3 km/h
19.02.2019 12:14 9,3 C 6,2 C 0,0 C 30 % 66 % 1015,3 hPa 0,0 mm 9,9 km/h W 261 3,3 C 3,5 C 16,9 km/h
19.02.2019 12:13 9,3 C 6,2 C 0,0 C 30 % 66 % 1015,3 hPa 0,0 mm 10,8 km/h W 274 3,3 C 2,9 C 18,7 km/h
19.02.2019 12:12 9,2 C 6,1 C 0,0 C 30 % 66 % 1015,4 hPa 0,0 mm 12,5 km/h W 264 3,2 C 1,7 C 13,7 km/h
19.02.2019 12:11 9,2 C 6,1 C 0,0 C 30 % 66 % 1015,3 hPa 0,0 mm 13,7 km/h W-SW 241 3,2 C 1,1 C 18,7 km/h
19.02.2019 12:10 9,3 C 6,2 C 0,0 C 30 % 67 % 1015,4 hPa 0,0 mm 12,2 km/h W-SW 237 3,5 C 2,0 C 20,5 km/h
19.02.2019 12:09 9,2 C 6,1 C 0,0 C 30 % 68 % 1015,3 hPa 0,0 mm 10,6 km/h W 281 3,6 C 2,9 C 20,5 km/h
19.02.2019 12:08 9,2 C 6,1 C 0,0 C 30 % 67 % 1015,3 hPa 0,0 mm 11,1 km/h W 281 3,4 C 2,6 C 18,7 km/h
19.02.2019 12:07 9,2 C 6,1 C 0,0 C 30 % 67 % 1015,4 hPa 0,0 mm 13,3 km/h W-SW 255 3,4 C 1,3 C 18,7 km/h
19.02.2019 12:06 9,2 C 6,1 C 0,0 C 30 % 67 % 1015,4 hPa 0,0 mm 13,0 km/h W-NW 298 3,4 C 1,5 C 22,3 km/h
19.02.2019 12:05 9,2 C 6,1 C 0,0 C 30 % 68 % 1015,3 hPa 0,0 mm 10,1 km/h W-SW 257 3,6 C 3,2 C 22,3 km/h
19.02.2019 12:04 9,2 C 6,1 C 0,0 C 30 % 68 % 1015,4 hPa 0,0 mm 8,9 km/h S-SW 209 3,6 C 4,1 C 15,5 km/h
19.02.2019 12:03 9,2 C 6,1 C 0,0 C 30 % 68 % 1015,4 hPa 0,0 mm 9,6 km/h W-SW 254 3,6 C 3,6 C 11,9 km/h
19.02.2019 12:02 9,2 C 6,1 C 0,0 C 30 % 68 % 1015,4 hPa 0,0 mm 11,9 km/h W-SW 250 3,6 C 2,1 C 16,9 km/h
19.02.2019 12:01 9,2 C 6,1 C 0,0 C 30 % 67 % 1015,4 hPa 0,0 mm 14,4 km/h W-SW 245 3,4 C 0,7 C 15,5 km/h
19.02.2019 12:00 9,3 C 6,2 C 0,0 C 30 % 68 % 1015,4 hPa 0,0 mm 14,8 km/h W-SW 243 3,7 C 0,6 C 20,5 km/h
19.02.2019 11:59 9,3 C 6,2 C 0,0 C 30 % 69 % 1015,4 hPa 0,0 mm 12,0 km/h W-SW 244 3,9 C 2,1 C 23,8 km/h
19.02.2019 11:58 9,3 C 6,2 C 0,0 C 30 % 69 % 1015,5 hPa 0,0 mm 11,0 km/h W-SW 248 3,9 C 2,7 C 22,3 km/h
19.02.2019 11:57 9,3 C 6,2 C 0,0 C 30 % 69 % 1015,6 hPa 0,0 mm 13,1 km/h W 261 3,9 C 1,5 C 15,5 km/h
19.02.2019 11:56 9,3 C 6,2 C 0,0 C 30 % 69 % 1015,5 hPa 0,0 mm 11,5 km/h W-SW 254 3,9 C 2,4 C 18,7 km/h
19.02.2019 11:55 9,4 C 6,3 C 0,0 C 30 % 70 % 1015,5 hPa 0,0 mm 9,6 km/h W 272 4,2 C 3,8 C 20,5 km/h
19.02.2019 11:54 9,3 C 6,2 C 0,0 C 30 % 70 % 1015,5 hPa 0,0 mm 10,2 km/h W 259 4,1 C 3,3 C 13,7 km/h
19.02.2019 11:53 9,3 C 6,2 C 0,0 C 30 % 70 % 1015,6 hPa 0,0 mm 9,0 km/h W-SW 241 4,1 C 4,1 C 16,9 km/h
19.02.2019 11:52 9,2 C 6,1 C 0,0 C 30 % 72 % 1015,4 hPa 0,0 mm 9,0 km/h W-SW 254 4,4 C 4,0 C 11,9 km/h
19.02.2019 11:51 9,2 C 6,1 C 0,0 C 30 % 72 % 1015,4 hPa 0,0 mm 10,5 km/h W-SW 254 4,4 C 3,0 C 13,7 km/h
19.02.2019 11:50 9,2 C 6,1 C 0,0 C 30 % 72 % 1015,4 hPa 0,0 mm 9,9 km/h W-SW 241 4,4 C 3,4 C 16,9 km/h
19.02.2019 11:49 9,1 C 6,1 C 0,0 C 30 % 72 % 1015,5 hPa 0,0 mm 9,2 km/h W-SW 255 4,3 C 3,8 C 18,7 km/h
19.02.2019 11:48 9,1 C 6,1 C 0,0 C 30 % 72 % 1015,4 hPa 0,0 mm 9,8 km/h W 259 4,3 C 3,4 C 13,7 km/h
19.02.2019 11:47 9,0 C 6,0 C 0,0 C 30 % 72 % 1015,5 hPa 0,0 mm 10,1 km/h S-SW 204 4,2 C 3,1 C 15,5 km/h
19.02.2019 11:46 9,0 C 6,0 C 0,0 C 30 % 72 % 1015,5 hPa 0,0 mm 10,4 km/h W-SW 255 4,2 C 2,9 C 15,5 km/h
19.02.2019 11:45 8,9 C 5,9 C 0,0 C 30 % 72 % 1015,5 hPa 0,0 mm 10,6 km/h W-SW 245 4,1 C 2,7 C 13,7 km/h
19.02.2019 11:44 8,9 C 5,9 C 0,0 C 30 % 72 % 1015,5 hPa 0,0 mm 11,7 km/h W-NW 288 4,1 C 2,0 C 13,7 km/h
19.02.2019 11:43 8,9 C 5,9 C 0,0 C 30 % 72 % 1015,5 hPa 0,0 mm 11,6 km/h SW 223 4,1 C 2,0 C 18,7 km/h
19.02.2019 11:42 8,9 C 5,9 C 0,0 C 30 % 73 % 1015,5 hPa 0,0 mm 10,3 km/h S-SW 197 4,3 C 2,9 C 23,8 km/h
19.02.2019 11:41 8,8 C 5,9 C 0,0 C 30 % 73 % 1015,5 hPa 0,0 mm 9,1 km/h W-SW 238 4,2 C 3,7 C 16,9 km/h
19.02.2019 11:40 8,8 C 5,9 C 0,0 C 30 % 73 % 1015,5 hPa 0,0 mm 7,7 km/h S-SW 210 4,2 C 4,8 C 15,5 km/h
19.02.2019 11:39 8,8 C 5,9 C 0,0 C 30 % 74 % 1015,5 hPa 0,0 mm 6,4 km/h W 281 4,4 C 5,9 C 13,7 km/h
19.02.2019 11:38 8,8 C 5,9 C 0,0 C 30 % 74 % 1015,6 hPa 0,0 mm 5,7 km/h W 278 4,4 C 5,9 C 11,9 km/h
19.02.2019 11:37 8,7 C 5,8 C 0,0 C 30 % 74 % 1015,6 hPa 0,0 mm 5,1 km/h W-SW 245 4,3 C 5,8 C 8,6 km/h
19.02.2019 11:36 8,7 C 5,8 C 0,0 C 30 % 74 % 1015,6 hPa 0,0 mm 5,1 km/h W-SW 241 4,3 C 5,8 C 8,6 km/h
19.02.2019 11:35 8,7 C 5,8 C 0,0 C 30 % 74 % 1015,5 hPa 0,0 mm 6,9 km/h W-NW 283 4,3 C 5,4 C 6,9 km/h
19.02.2019 11:34 8,7 C 5,8 C 0,0 C 30 % 75 % 1015,5 hPa 0,0 mm 7,5 km/h W-SW 243 4,5 C 4,9 C 16,9 km/h
19.02.2019 11:33 8,7 C 5,8 C 0,0 C 30 % 75 % 1015,5 hPa 0,0 mm 8,3 km/h SW 226 4,5 C 4,2 C 10,1 km/h
19.02.2019 11:32 8,7 C 5,8 C 0,0 C 30 % 75 % 1015,5 hPa 0,0 mm 8,1 km/h SW 227 4,5 C 4,4 C 16,9 km/h
19.02.2019 11:31 8,6 C 5,7 C 0,0 C 30 % 75 % 1015,6 hPa 0,0 mm 6,3 km/h SW 217 4,4 C 5,7 C 11,9 km/h
19.02.2019 11:30 8,6 C 5,7 C 0,0 C 30 % 75 % 1015,5 hPa 0,0 mm 6,3 km/h W-SW 237 4,4 C 5,7 C 8,6 km/h
19.02.2019 11:29 8,6 C 5,7 C 0,0 C 30 % 75 % 1015,5 hPa 0,0 mm 5,1 km/h SW 235 4,4 C 5,7 C 10,1 km/h
19.02.2019 11:28 8,6 C 5,7 C 0,0 C 30 % 75 % 1015,5 hPa 0,0 mm 4,2 km/h SW 233 4,4 C 5,7 C 10,1 km/h
19.02.2019 11:27 8,6 C 5,7 C 0,0 C 30 % 75 % 1015,6 hPa 0,0 mm 6,5 km/h W-SW 258 4,4 C 5,6 C 8,6 km/h
19.02.2019 11:26 8,6 C 5,7 C 0,0 C 30 % 75 % 1015,6 hPa 0,0 mm 7,0 km/h S-SW 195 4,4 C 5,2 C 11,9 km/h
19.02.2019 11:25 8,6 C 5,7 C 0,0 C 30 % 75 % 1015,5 hPa 0,0 mm 4,8 km/h SW 226 4,4 C 5,7 C 13,7 km/h
19.02.2019 11:24 8,6 C 5,7 C 0,0 C 30 % 75 % 1015,5 hPa 0,0 mm 3,9 km/h W-SW 247 4,4 C 5,7 C 6,8 km/h
19.02.2019 11:23 8,6 C 5,7 C 0,0 C 30 % 75 % 1015,5 hPa 0,0 mm 4,7 km/h W 261 4,4 C 5,7 C 6,8 km/h
19.02.2019 11:22 8,6 C 5,7 C 0,0 C 30 % 75 % 1015,6 hPa 0,0 mm 7,1 km/h W-SW 247 4,4 C 5,1 C 7,1 km/h
19.02.2019 11:21 8,6 C 5,7 C 0,0 C 30 % 75 % 1015,6 hPa 0,0 mm 9,1 km/h SW 226 4,4 C 3,5 C 11,9 km/h
19.02.2019 11:20 8,6 C 5,7 C 0,0 C 30 % 75 % 1015,5 hPa 0,0 mm 9,8 km/h W-SW 243 4,4 C 3,0 C 20,5 km/h
19.02.2019 11:19 8,6 C 5,7 C 0,0 C 30 % 75 % 1015,6 hPa 0,0 mm 8,8 km/h W-NW 295 4,4 C 3,7 C 11,9 km/h
19.02.2019 11:18 8,6 C 5,7 C 0,0 C 30 % 76 % 1015,5 hPa 0,0 mm 6,3 km/h SW 233 4,6 C 5,7 C 16,9 km/h
19.02.2019 11:17 8,6 C 5,7 C 0,0 C 30 % 75 % 1015,6 hPa 0,0 mm 5,8 km/h W-SW 247 4,4 C 5,7 C 8,6 km/h
19.02.2019 11:16 8,6 C 5,7 C 0,0 C 30 % 76 % 1015,6 hPa 0,0 mm 5,8 km/h W-SW 257 4,6 C 5,7 C 8,6 km/h
19.02.2019 11:15 8,6 C 5,7 C 0,0 C 30 % 75 % 1015,5 hPa 0,0 mm 7,0 km/h W 264 4,4 C 5,2 C 10,1 km/h
19.02.2019 11:14 8,6 C 5,7 C 0,0 C 30 % 76 % 1015,6 hPa 0,0 mm 7,2 km/h O-SO 106 4,6 C 5,0 C 13,7 km/h
19.02.2019 11:13 8,6 C 5,7 C 0,0 C 30 % 76 % 1015,5 hPa 0,0 mm 5,6 km/h W-SW 240 4,6 C 5,7 C 15,5 km/h
19.02.2019 11:12 8,6 C 5,7 C 0,0 C 30 % 76 % 1015,5 hPa 0,0 mm 5,3 km/h W-SW 243 4,6 C 5,7 C 11,9 km/h
19.02.2019 11:11 8,6 C 5,7 C 0,0 C 30 % 76 % 1015,5 hPa 0,0 mm 6,0 km/h W-NW 286 4,6 C 5,7 C 6,8 km/h
19.02.2019 11:10 8,6 C 5,7 C 0,0 C 30 % 76 % 1015,5 hPa 0,0 mm 6,3 km/h W-SW 252 4,6 C 5,7 C 13,7 km/h
19.02.2019 11:09 8,6 C 5,7 C 0,0 C 30 % 76 % 1015,5 hPa 0,0 mm 6,2 km/h W-SW 248 4,6 C 5,7 C 11,9 km/h
19.02.2019 11:08 8,5 C 5,7 C 0,0 C 30 % 76 % 1015,5 hPa 0,0 mm 7,5 km/h W-SW 238 4,5 C 4,8 C 7,5 km/h
19.02.2019 11:07 8,5 C 5,7 C 0,0 C 30 % 76 % 1015,4 hPa 0,0 mm 7,6 km/h W 275 4,5 C 4,7 C 13,7 km/h
19.02.2019 11:06 8,5 C 5,7 C 0,0 C 30 % 76 % 1015,5 hPa 0,0 mm 5,8 km/h SW 228 4,5 C 5,7 C 10,1 km/h
19.02.2019 11:05 8,5 C 5,7 C 0,0 C 30 % 76 % 1015,5 hPa 0,0 mm 5,1 km/h W-SW 247 4,5 C 5,7 C 11,9 km/h
19.02.2019 11:04 8,5 C 5,7 C 0,0 C 30 % 76 % 1015,4 hPa 0,0 mm 4,5 km/h W-SW 248 4,5 C 5,7 C 10,1 km/h
19.02.2019 11:03 8,5 C 5,7 C 0,0 C 30 % 77 % 1015,4 hPa 0,0 mm 3,6 km/h W-SW 245 4,7 C 5,7 C 6,8 km/h
19.02.2019 11:02 8,4 C 5,6 C 0,0 C 30 % 76 % 1015,5 hPa 0,0 mm 4,2 km/h W-SW 257 4,4 C 5,6 C 6,8 km/h
19.02.2019 11:01 8,4 C 5,6 C 0,0 C 30 % 76 % 1015,4 hPa 0,0 mm 4,7 km/h W 272 4,4 C 5,6 C 6,8 km/h
19.02.2019 11:00 8,4 C 5,6 C 0,0 C 30 % 76 % 1015,4 hPa 0,0 mm 4,2 km/h SW 235 4,4 C 5,6 C 8,6 km/h
19.02.2019 10:59 8,4 C 5,6 C 0,0 C 30 % 76 % 1015,4 hPa 0,0 mm 4,9 km/h W-SW 238 4,4 C 5,6 C 8,6 km/h
19.02.2019 10:58 8,4 C 5,6 C 0,0 C 30 % 76 % 1015,4 hPa 0,0 mm 5,9 km/h W-SW 254 4,4 C 5,6 C 6,8 km/h
19.02.2019 10:57 8,4 C 5,6 C 0,0 C 30 % 76 % 1015,4 hPa 0,0 mm 6,1 km/h W 268 4,4 C 5,6 C 8,6 km/h
19.02.2019 10:56 8,4 C 5,6 C 0,0 C 30 % 76 % 1015,4 hPa 0,0 mm 5,4 km/h SW 234 4,4 C 5,6 C 10,1 km/h
19.02.2019 10:55 8,4 C 5,6 C 0,0 C 30 % 76 % 1015,3 hPa 0,0 mm 5,3 km/h W 278 4,4 C 5,6 C 11,9 km/h
19.02.2019 10:54 8,4 C 5,6 C 0,0 C 30 % 76 % 1015,3 hPa 0,0 mm 5,2 km/h W-SW 245 4,4 C 5,6 C 8,6 km/h
19.02.2019 10:53 8,4 C 5,6 C 0,0 C 30 % 77 % 1015,4 hPa 0,0 mm 4,6 km/h SW 220 4,6 C 5,6 C 10,1 km/h
19.02.2019 10:52 8,4 C 5,6 C 0,0 C 30 % 76 % 1015,3 hPa 0,0 mm 5,8 km/h W-SW 251 4,4 C 5,6 C 5,8 km/h
19.02.2019 10:51 8,4 C 5,6 C 0,0 C 30 % 76 % 1015,4 hPa 0,0 mm 5,8 km/h W-SW 248 4,4 C 5,6 C 8,6 km/h
19.02.2019 10:50 8,4 C 5,6 C 0,0 C 30 % 76 % 1015,3 hPa 0,0 mm 4,6 km/h W-SW 245 4,4 C 5,6 C 10,1 km/h
19.02.2019 10:49 8,4 C 5,6 C 0,0 C 30 % 77 % 1015,3 hPa 0,0 mm 3,9 km/h W 259 4,6 C 5,6 C 6,8 km/h
19.02.2019 10:48 8,4 C 5,6 C 0,0 C 30 % 77 % 1015,3 hPa 0,0 mm 3,1 km/h W-NW 285 4,6 C 5,6 C 6,8 km/h
19.02.2019 10:47 8,3 C 5,5 C 0,0 C 30 % 77 % 1015,3 hPa 0,0 mm 3,2 km/h W-SW 238 4,5 C 5,5 C 5,0 km/h
19.02.2019 10:46 8,3 C 5,5 C 0,0 C 30 % 76 % 1015,3 hPa 0,0 mm 3,7 km/h W-SW 243 4,3 C 5,5 C 5,0 km/h
19.02.2019 10:45 8,3 C 5,5 C 0,0 C 30 % 76 % 1015,3 hPa 0,0 mm 4,6 km/h W-SW 244 4,3 C 5,5 C 5,0 km/h
19.02.2019 10:44 8,3 C 5,5 C 0,0 C 30 % 76 % 1015,4 hPa 0,0 mm 6,1 km/h SW 224 4,3 C 5,5 C 6,8 km/h
19.02.2019 10:43 8,3 C 5,5 C 0,0 C 30 % 76 % 1015,4 hPa 0,0 mm 6,5 km/h W-SW 243 4,3 C 5,4 C 10,1 km/h
19.02.2019 10:42 8,3 C 5,5 C 0,0 C 30 % 76 % 1015,3 hPa 0,0 mm 5,5 km/h SW 233 4,3 C 5,5 C 13,7 km/h
19.02.2019 10:41 8,3 C 5,5 C 0,0 C 30 % 76 % 1015,3 hPa 0,0 mm 5,8 km/h SW 233 4,3 C 5,5 C 8,6 km/h
19.02.2019 10:40 8,3 C 5,5 C 0,0 C 30 % 77 % 1015,3 hPa 0,0 mm 6,2 km/h SW 216 4,5 C 5,5 C 8,6 km/h
19.02.2019 10:39 8,3 C 5,5 C 0,0 C 30 % 77 % 1015,2 hPa 0,0 mm 5,8 km/h W-SW 247 4,5 C 5,5 C 10,1 km/h
19.02.2019 10:38 8,3 C 5,5 C 0,0 C 30 % 77 % 1015,3 hPa 0,0 mm 5,5 km/h W 262 4,5 C 5,5 C 8,6 km/h
19.02.2019 10:37 8,2 C 5,5 C 0,0 C 30 % 76 % 1015,3 hPa 0,0 mm 6,3 km/h SW 227 4,2 C 5,5 C 8,6 km/h
19.02.2019 10:36 8,2 C 5,5 C 0,0 C 30 % 77 % 1015,2 hPa 0,0 mm 6,8 km/h W-SW 245 4,4 C 5,2 C 10,1 km/h
19.02.2019 10:35 8,2 C 5,5 C 0,0 C 30 % 77 % 1015,3 hPa 0,0 mm 6,4 km/h W-SW 255 4,4 C 5,5 C 13,7 km/h
19.02.2019 10:34 8,2 C 5,5 C 0,0 C 30 % 77 % 1015,3 hPa 0,0 mm 6,3 km/h W 275 4,4 C 5,5 C 8,6 km/h
19.02.2019 10:33 8,2 C 5,5 C 0,0 C 30 % 77 % 1015,3 hPa 0,0 mm 7,7 km/h S-SW 195 4,4 C 4,4 C 8,6 km/h
19.02.2019 10:32 8,2 C 5,5 C 0,0 C 30 % 77 % 1015,2 hPa 0,0 mm 7,2 km/h W-SW 250 4,4 C 4,8 C 10,1 km/h
19.02.2019 10:31 8,2 C 5,5 C 0,0 C 30 % 77 % 1015,2 hPa 0,0 mm 5,0 km/h S-SW 204 4,4 C 5,5 C 11,9 km/h
19.02.2019 10:30 8,1 C 5,4 C 0,0 C 30 % 77 % 1015,2 hPa 0,0 mm 5,6 km/h SW 230 4,3 C 5,4 C 6,8 km/h
19.02.2019 10:29 8,1 C 5,4 C 0,0 C 30 % 77 % 1015,2 hPa 0,0 mm 6,5 km/h W 259 4,3 C 5,3 C 13,7 km/h
19.02.2019 10:28 8,1 C 5,4 C 0,0 C 30 % 77 % 1015,2 hPa 0,0 mm 5,6 km/h W-NW 282 4,3 C 5,4 C 11,9 km/h
19.02.2019 10:27 8,1 C 5,4 C 0,0 C 30 % 77 % 1015,2 hPa 0,0 mm 4,8 km/h W 271 4,3 C 5,4 C 6,8 km/h
19.02.2019 10:26 8,1 C 5,4 C 0,0 C 30 % 77 % 1015,2 hPa 0,0 mm 6,3 km/h W-SW 254 4,3 C 5,4 C 6,8 km/h
19.02.2019 10:25 8,1 C 5,4 C 0,0 C 30 % 77 % 1015,2 hPa 0,0 mm 7,7 km/h W-SW 244 4,3 C 4,3 C 10,1 km/h
19.02.2019 10:24 8,1 C 5,4 C 0,0 C 30 % 77 % 1015,2 hPa 0,0 mm 7,7 km/h W-SW 241 4,3 C 4,3 C 11,9 km/h
19.02.2019 10:23 8,1 C 5,4 C 0,0 C 30 % 77 % 1015,3 hPa 0,0 mm 6,2 km/h W-SW 250 4,3 C 5,4 C 11,9 km/h
19.02.2019 10:22 8,1 C 5,4 C 0,0 C 30 % 77 % 1015,2 hPa 0,0 mm 5,0 km/h W-SW 250 4,3 C 5,4 C 11,9 km/h
19.02.2019 10:21 8,1 C 5,4 C 0,0 C 30 % 77 % 1015,3 hPa 0,0 mm 4,7 km/h SW 235 4,3 C 5,4 C 6,8 km/h
19.02.2019 10:20 8,1 C 5,4 C 0,0 C 30 % 77 % 1015,3 hPa 0,0 mm 4,5 km/h W-SW 252 4,3 C 5,4 C 8,6 km/h
19.02.2019 10:19 8,1 C 5,4 C 0,0 C 30 % 77 % 1015,3 hPa 0,0 mm 4,8 km/h W-SW 241 4,3 C 5,4 C 6,8 km/h
19.02.2019 10:18 8,0 C 5,3 C 0,0 C 30 % 77 % 1015,3 hPa 0,0 mm 5,0 km/h W-SW 244 4,2 C 5,3 C 6,8 km/h
19.02.2019 10:17 8,0 C 5,3 C 0,0 C 30 % 77 % 1015,3 hPa 0,0 mm 5,0 km/h W-SW 245 4,2 C 5,3 C 6,8 km/h
19.02.2019 10:16 8,0 C 5,3 C 0,0 C 30 % 77 % 1015,3 hPa 0,0 mm 5,8 km/h W-SW 241 4,2 C 5,3 C 8,6 km/h
19.02.2019 10:15 8,0 C 5,3 C 0,0 C 30 % 77 % 1015,2 hPa 0,0 mm 6,2 km/h SW 224 4,2 C 5,3 C 8,6 km/h
19.02.2019 10:14 8,0 C 5,3 C 0,0 C 30 % 77 % 1015,2 hPa 0,0 mm 5,3 km/h SW 227 4,2 C 5,3 C 11,9 km/h
19.02.2019 10:13 8,0 C 5,3 C 0,0 C 30 % 77 % 1015,2 hPa 0,0 mm 4,8 km/h SW 227 4,2 C 5,3 C 6,8 km/h
19.02.2019 10:12 8,0 C 5,3 C 0,0 C 30 % 77 % 1015,2 hPa 0,0 mm 5,1 km/h W 261 4,2 C 5,3 C 8,6 km/h
19.02.2019 10:11 8,0 C 5,3 C 0,0 C 30 % 77 % 1015,2 hPa 0,0 mm 6,2 km/h SW 223 4,2 C 5,3 C 10,1 km/h
19.02.2019 10:10 8,0 C 5,3 C 0,0 C 30 % 77 % 1015,2 hPa 0,0 mm 7,1 km/h W-SW 252 4,2 C 4,7 C 11,9 km/h
19.02.2019 10:09 7,9 C 5,3 C 0,0 C 30 % 77 % 1015,2 hPa 0,0 mm 6,2 km/h W-SW 247 4,1 C 5,3 C 11,9 km/h
19.02.2019 10:08 7,9 C 5,3 C 0,0 C 30 % 77 % 1015,2 hPa 0,0 mm 5,5 km/h SW 231 4,1 C 5,3 C 10,1 km/h
19.02.2019 10:07 7,9 C 5,3 C 0,0 C 30 % 77 % 1015,2 hPa 0,0 mm 5,4 km/h SW 221 4,1 C 5,3 C 10,1 km/h
19.02.2019 10:06 7,9 C 5,3 C 0,0 C 30 % 77 % 1015,1 hPa 0,0 mm 5,1 km/h W-SW 250 4,1 C 5,3 C 8,6 km/h
19.02.2019 10:05 7,9 C 5,3 C 0,0 C 30 % 77 % 1015,2 hPa 0,0 mm 5,9 km/h W-SW 237 4,1 C 5,3 C 11,9 km/h
19.02.2019 10:04 7,9 C 5,3 C 0,0 C 30 % 77 % 1015,2 hPa 0,0 mm 6,4 km/h W 262 4,1 C 5,3 C 10,1 km/h
19.02.2019 10:03 7,9 C 5,3 C 0,0 C 30 % 77 % 1015,2 hPa 0,0 mm 5,6 km/h W-SW 251 4,1 C 5,3 C 10,1 km/h
19.02.2019 10:02 7,9 C 5,3 C 0,0 C 30 % 77 % 1015,2 hPa 0,0 mm 5,8 km/h W-SW 238 4,1 C 5,3 C 6,8 km/h
19.02.2019 10:01 7,9 C 5,3 C 0,0 C 30 % 77 % 1015,1 hPa 0,0 mm 6,4 km/h SW 220 4,1 C 5,3 C 11,9 km/h
19.02.2019 10:00 7,9 C 5,3 C 0,0 C 30 % 77 % 1015,2 hPa 0,0 mm 6,4 km/h W-SW 250 4,1 C 5,3 C 8,6 km/h
19.02.2019 09:59 7,9 C 5,3 C 0,0 C 30 % 77 % 1015,2 hPa 0,0 mm 5,3 km/h W-SW 248 4,1 C 5,3 C 10,1 km/h
19.02.2019 09:58 7,9 C 5,3 C 0,0 C 30 % 77 % 1015,1 hPa 0,0 mm 5,0 km/h W-SW 240 4,1 C 5,3 C 8,6 km/h
19.02.2019 09:57 7,9 C 5,3 C 0,0 C 30 % 77 % 1015,2 hPa 0,0 mm 5,9 km/h SW 217 4,1 C 5,3 C 8,6 km/h
19.02.2019 09:56 7,9 C 5,3 C 0,0 C 30 % 77 % 1015,2 hPa 0,0 mm 5,1 km/h W 279 4,1 C 5,3 C 10,1 km/h
19.02.2019 09:55 7,9 C 5,3 C 0,0 C 30 % 77 % 1015,1 hPa 0,0 mm 4,3 km/h W-SW 258 4,1 C 5,3 C 10,1 km/h
19.02.2019 09:54 7,9 C 5,3 C 0,0 C 30 % 77 % 1015,1 hPa 0,0 mm 4,8 km/h W-SW 238 4,1 C 5,3 C 5,0 km/h
19.02.2019 09:53 7,9 C 5,3 C 0,0 C 30 % 77 % 1015,1 hPa 0,0 mm 5,5 km/h W-SW 254 4,1 C 5,3 C 6,8 km/h
19.02.2019 09:52 7,9 C 5,3 C 0,0 C 30 % 77 % 1015,2 hPa 0,0 mm 5,6 km/h W-SW 244 4,1 C 5,3 C 8,6 km/h
19.02.2019 09:51 7,9 C 5,3 C 0,0 C 30 % 77 % 1015,1 hPa 0,0 mm 5,8 km/h W 272 4,1 C 5,3 C 8,6 km/h
19.02.2019 09:50 7,9 C 5,3 C 0,0 C 30 % 77 % 1015,1 hPa 0,0 mm 5,3 km/h W-SW 241 4,1 C 5,3 C 13,7 km/h
19.02.2019 09:49 7,8 C 5,2 C 0,0 C 30 % 77 % 1015,1 hPa 0,0 mm 5,5 km/h W-SW 250 4,0 C 5,2 C 8,6 km/h
19.02.2019 09:48 7,8 C 5,2 C 0,0 C 30 % 77 % 1015,1 hPa 0,0 mm 6,3 km/h W-SW 243 4,0 C 5,2 C 6,8 km/h
19.02.2019 09:47 7,8 C 5,2 C 0,0 C 30 % 77 % 1015,1 hPa 0,0 mm 6,0 km/h W-SW 247 4,0 C 5,2 C 10,1 km/h
19.02.2019 09:46 7,8 C 5,2 C 0,0 C 30 % 77 % 1015,1 hPa 0,0 mm 5,9 km/h W-NW 293 4,0 C 5,2 C 10,1 km/h
19.02.2019 09:45 7,8 C 5,2 C 0,0 C 30 % 77 % 1015,0 hPa 0,0 mm 6,1 km/h W-SW 258 4,0 C 5,2 C 8,6 km/h
19.02.2019 09:44 7,8 C 5,2 C 0,0 C 30 % 77 % 1015,1 hPa 0,0 mm 6,3 km/h SW 235 4,0 C 5,2 C 10,1 km/h
19.02.2019 09:43 7,8 C 5,2 C 0,0 C 30 % 77 % 1015,0 hPa 0,0 mm 7,0 km/h W-SW 251 4,0 C 4,7 C 7,0 km/h
19.02.2019 09:42 7,8 C 5,2 C 0,0 C 30 % 77 % 1015,1 hPa 0,0 mm 7,3 km/h W 266 4,0 C 4,4 C 13,7 km/h
19.02.2019 09:41 7,8 C 5,2 C 0,0 C 30 % 77 % 1015,0 hPa 0,0 mm 7,3 km/h SW 223 4,0 C 4,4 C 10,1 km/h
19.02.2019 09:40 7,8 C 5,2 C 0,0 C 30 % 77 % 1015,1 hPa 0,0 mm 6,5 km/h SW 235 4,0 C 5,1 C 11,9 km/h
19.02.2019 09:39 7,8 C 5,2 C 0,0 C 30 % 77 % 1015,1 hPa 0,0 mm 7,1 km/h SW 234 4,0 C 4,6 C 10,1 km/h
19.02.2019 09:38 7,8 C 5,2 C 0,0 C 30 % 77 % 1015,0 hPa 0,0 mm 8,0 km/h W-SW 237 4,0 C 3,8 C 8,6 km/h
19.02.2019 09:37 7,8 C 5,2 C 0,0 C 30 % 77 % 1015,0 hPa 0,0 mm 6,7 km/h W-SW 254 4,0 C 5,0 C 15,5 km/h
19.02.2019 09:36 7,8 C 5,2 C 0,0 C 30 % 77 % 1015,0 hPa 0,0 mm 6,3 km/h SW 219 4,0 C 5,2 C 8,6 km/h
19.02.2019 09:35 7,8 C 5,2 C 0,0 C 30 % 77 % 1015,0 hPa 0,0 mm 6,2 km/h W 259 4,0 C 5,2 C 11,9 km/h
19.02.2019 09:34 7,8 C 5,2 C 0,0 C 30 % 77 % 1015,0 hPa 0,0 mm 6,3 km/h W 275 4,0 C 5,2 C 10,1 km/h
19.02.2019 09:33 7,8 C 5,2 C 0,0 C 30 % 77 % 1015,0 hPa 0,0 mm 6,7 km/h W-SW 255 4,0 C 5,0 C 11,9 km/h
19.02.2019 09:32 7,8 C 5,2 C 0,0 C 30 % 77 % 1014,9 hPa 0,0 mm 6,7 km/h W 276 4,0 C 5,0 C 13,7 km/h
19.02.2019 09:31 7,8 C 5,2 C 0,0 C 30 % 77 % 1015,0 hPa 0,0 mm 6,4 km/h W-SW 255 4,0 C 5,2 C 8,6 km/h
19.02.2019 09:30 7,8 C 5,2 C 0,0 C 30 % 77 % 1014,9 hPa 0,0 mm 6,8 km/h W 272 4,0 C 4,9 C 11,9 km/h
19.02.2019 09:29 7,8 C 5,2 C 0,0 C 30 % 77 % 1014,9 hPa 0,0 mm 8,5 km/h W-SW 254 4,0 C 3,4 C 10,1 km/h
19.02.2019 09:28 7,8 C 5,2 C 0,0 C 30 % 77 % 1014,9 hPa 0,0 mm 8,1 km/h W-NW 282 4,0 C 3,7 C 10,1 km/h
19.02.2019 09:27 7,8 C 5,2 C 0,0 C 30 % 77 % 1014,9 hPa 0,0 mm 6,9 km/h W 259 4,0 C 4,8 C 16,9 km/h
19.02.2019 09:26 7,8 C 5,2 C 0,0 C 30 % 77 % 1014,9 hPa 0,0 mm 7,4 km/h W 259 4,0 C 4,3 C 10,1 km/h
19.02.2019 09:25 7,8 C 5,2 C 0,0 C 30 % 77 % 1014,9 hPa 0,0 mm 8,2 km/h W-SW 251 4,0 C 3,6 C 11,9 km/h
19.02.2019 09:24 7,8 C 5,2 C 0,0 C 30 % 77 % 1014,8 hPa 0,0 mm 7,7 km/h SW 221 4,0 C 4,1 C 11,9 km/h
19.02.2019 09:23 7,8 C 5,2 C 0,0 C 30 % 77 % 1014,9 hPa 0,0 mm 7,9 km/h W-SW 257 4,0 C 3,9 C 10,1 km/h
19.02.2019 09:22 7,8 C 5,2 C 0,0 C 30 % 77 % 1014,9 hPa 0,0 mm 8,1 km/h W-SW 247 4,0 C 3,7 C 11,9 km/h
19.02.2019 09:21 7,8 C 5,2 C 0,0 C 30 % 77 % 1014,9 hPa 0,0 mm 7,2 km/h W 281 4,0 C 4,5 C 13,7 km/h
19.02.2019 09:20 7,8 C 5,2 C 0,0 C 30 % 77 % 1014,9 hPa 0,0 mm 6,5 km/h W-SW 247 4,0 C 5,1 C 10,1 km/h
19.02.2019 09:19 7,8 C 5,2 C 0,0 C 30 % 77 % 1014,9 hPa 0,0 mm 7,2 km/h W-SW 247 4,0 C 4,5 C 11,9 km/h
19.02.2019 09:18 7,8 C 5,2 C 0,0 C 30 % 77 % 1014,9 hPa 0,0 mm 8,9 km/h W-SW 251 4,0 C 3,1 C 11,9 km/h
19.02.2019 09:17 7,8 C 5,2 C 0,0 C 30 % 77 % 1014,9 hPa 0,0 mm 9,6 km/h W-SW 248 4,0 C 2,6 C 13,7 km/h
19.02.2019 09:16 7,7 C 5,1 C 0,0 C 30 % 77 % 1015,0 hPa 0,0 mm 9,7 km/h W 264 3,9 C 2,4 C 13,7 km/h
19.02.2019 09:15 7,7 C 5,1 C 0,0 C 30 % 77 % 1014,9 hPa 0,0 mm 9,8 km/h W-SW 237 3,9 C 2,3 C 13,7 km/h
19.02.2019 09:14 7,7 C 5,1 C 0,0 C 30 % 77 % 1014,9 hPa 0,0 mm 8,6 km/h W-SW 250 3,9 C 3,2 C 15,5 km/h
19.02.2019 09:13 7,7 C 5,1 C 0,0 C 30 % 77 % 1014,9 hPa 0,0 mm 6,1 km/h SW 235 3,9 C 5,1 C 20,5 km/h
19.02.2019 09:12 7,7 C 5,1 C 0,0 C 30 % 77 % 1014,9 hPa 0,0 mm 4,7 km/h W-SW 237 3,9 C 5,1 C 6,8 km/h
19.02.2019 09:11 7,7 C 5,1 C 0,0 C 30 % 77 % 1014,9 hPa 0,0 mm 5,2 km/h SW 231 3,9 C 5,1 C 6,8 km/h
19.02.2019 09:10 7,7 C 5,1 C 0,0 C 30 % 77 % 1014,9 hPa 0,0 mm 6,5 km/h W-SW 248 3,9 C 5,0 C 6,8 km/h
19.02.2019 09:09 7,7 C 5,1 C 0,0 C 30 % 77 % 1014,8 hPa 0,0 mm 7,0 km/h SW 219 3,9 C 4,6 C 10,1 km/h
19.02.2019 09:08 7,7 C 5,1 C 0,0 C 30 % 77 % 1014,8 hPa 0,0 mm 6,4 km/h SW 219 3,9 C 5,1 C 11,9 km/h
19.02.2019 09:07 7,7 C 5,1 C 0,0 C 30 % 77 % 1014,8 hPa 0,0 mm 7,0 km/h W-NW 296 3,9 C 4,6 C 10,1 km/h
19.02.2019 09:06 7,7 C 5,1 C 0,0 C 30 % 77 % 1014,8 hPa 0,0 mm 7,1 km/h SW 235 3,9 C 4,5 C 8,6 km/h
19.02.2019 09:05 7,7 C 5,1 C 0,0 C 30 % 77 % 1014,9 hPa 0,0 mm 5,8 km/h W-SW 247 3,9 C 5,1 C 13,7 km/h
19.02.2019 09:04 7,7 C 5,1 C 0,0 C 30 % 77 % 1014,9 hPa 0,0 mm 5,2 km/h W 274 3,9 C 5,1 C 10,1 km/h
19.02.2019 09:03 7,7 C 5,1 C 0,0 C 30 % 77 % 1014,8 hPa 0,0 mm 4,9 km/h W-NW 285 3,9 C 5,1 C 6,8 km/h
19.02.2019 09:02 7,7 C 5,1 C 0,0 C 30 % 76 % 1014,8 hPa 0,0 mm 4,5 km/h SW 234 3,7 C 5,1 C 6,8 km/h
19.02.2019 09:01 7,7 C 5,1 C 0,0 C 30 % 76 % 1014,7 hPa 0,0 mm 5,7 km/h SW 235 3,7 C 5,1 C 6,8 km/h
19.02.2019 09:00 7,7 C 5,1 C 0,0 C 30 % 77 % 1014,8 hPa 0,0 mm 7,2 km/h W-SW 252 3,9 C 4,4 C 10,1 km/h
19.02.2019 08:59 7,6 C 5,1 C 0,0 C 30 % 77 % 1014,8 hPa 0,0 mm 6,2 km/h W-SW 247 3,8 C 5,1 C 15,5 km/h
19.02.2019 08:58 7,6 C 5,1 C 0,0 C 30 % 76 % 1014,8 hPa 0,0 mm 4,9 km/h W 275 3,6 C 5,1 C 10,1 km/h
19.02.2019 08:57 7,6 C 5,1 C 0,0 C 30 % 76 % 1014,8 hPa 0,0 mm 6,2 km/h W-NW 286 3,6 C 5,1 C 6,8 km/h
19.02.2019 08:56 7,6 C 5,1 C 0,0 C 30 % 76 % 1014,7 hPa 0,0 mm 6,9 km/h SW 219 3,6 C 4,7 C 11,9 km/h
19.02.2019 08:55 7,6 C 5,1 C 0,0 C 30 % 76 % 1014,7 hPa 0,0 mm 5,7 km/h W-SW 250 3,6 C 5,1 C 8,6 km/h
19.02.2019 08:54 7,6 C 5,1 C 0,0 C 30 % 76 % 1014,6 hPa 0,0 mm 5,5 km/h SW 234 3,6 C 5,1 C 10,1 km/h
19.02.2019 08:53 7,6 C 5,1 C 0,0 C 30 % 76 % 1014,7 hPa 0,0 mm 5,8 km/h SW 224 3,6 C 5,1 C 10,1 km/h
19.02.2019 08:52 7,6 C 5,1 C 0,0 C 30 % 76 % 1014,6 hPa 0,0 mm 5,8 km/h W-NW 289 3,6 C 5,1 C 8,6 km/h
19.02.2019 08:51 7,6 C 5,1 C 0,0 C 30 % 76 % 1014,7 hPa 0,0 mm 6,4 km/h W-SW 255 3,6 C 5,1 C 6,8 km/h
19.02.2019 08:50 7,6 C 5,1 C 0,0 C 30 % 76 % 1014,6 hPa 0,0 mm 6,7 km/h W-SW 241 3,6 C 4,9 C 8,6 km/h
19.02.2019 08:49 7,6 C 5,1 C 0,0 C 30 % 76 % 1014,6 hPa 0,0 mm 6,1 km/h SW 235 3,6 C 5,1 C 13,7 km/h
19.02.2019 08:48 7,6 C 5,1 C 0,0 C 30 % 76 % 1014,6 hPa 0,0 mm 6,3 km/h W-SW 244 3,6 C 5,1 C 15,5 km/h
19.02.2019 08:47 7,6 C 5,1 C 0,0 C 30 % 76 % 1014,6 hPa 0,0 mm 6,8 km/h SW 221 3,6 C 4,8 C 8,6 km/h
19.02.2019 08:46 7,6 C 5,1 C 0,0 C 30 % 76 % 1014,6 hPa 0,0 mm 5,6 km/h W-SW 238 3,6 C 5,1 C 16,9 km/h
19.02.2019 08:45 7,6 C 5,1 C 0,0 C 30 % 76 % 1014,6 hPa 0,0 mm 6,3 km/h W-SW 257 3,6 C 5,1 C 8,6 km/h
19.02.2019 08:44 7,6 C 5,1 C 0,0 C 30 % 75 % 1014,5 hPa 0,0 mm 8,4 km/h S-SW 203 3,5 C 3,4 C 10,1 km/h
19.02.2019 08:43 7,7 C 5,1 C 0,0 C 30 % 75 % 1014,5 hPa 0,0 mm 8,4 km/h W-NW 298 3,6 C 3,4 C 15,5 km/h
19.02.2019 08:42 7,7 C 5,1 C 0,0 C 30 % 75 % 1014,6 hPa 0,0 mm 8,7 km/h W-SW 238 3,6 C 3,1 C 13,7 km/h
19.02.2019 08:41 7,7 C 5,1 C 0,0 C 30 % 75 % 1014,6 hPa 0,0 mm 7,8 km/h W-SW 251 3,6 C 3,9 C 11,9 km/h
19.02.2019 08:40 7,7 C 5,1 C 0,0 C 30 % 75 % 1014,7 hPa 0,0 mm 5,8 km/h W-SW 243 3,6 C 5,1 C 13,7 km/h
19.02.2019 08:39 7,7 C 5,1 C 0,0 C 30 % 75 % 1014,6 hPa 0,0 mm 6,0 km/h W-SW 238 3,6 C 5,1 C 8,6 km/h
19.02.2019 08:38 7,7 C 5,1 C 0,0 C 30 % 75 % 1014,7 hPa 0,0 mm 9,4 km/h W-SW 248 3,6 C 2,6 C 9,4 km/h
19.02.2019 08:37 7,7 C 5,1 C 0,0 C 30 % 75 % 1014,6 hPa 0,0 mm 9,3 km/h W 269 3,6 C 2,7 C 20,5 km/h
19.02.2019 08:36 7,7 C 5,1 C 0,0 C 30 % 74 % 1014,5 hPa 0,0 mm 7,2 km/h W 274 3,4 C 4,4 C 15,5 km/h
19.02.2019 08:35 7,7 C 5,1 C 0,0 C 30 % 74 % 1014,5 hPa 0,0 mm 8,2 km/h W 275 3,4 C 3,5 C 10,1 km/h
19.02.2019 08:34 7,7 C 5,1 C 0,0 C 30 % 74 % 1014,6 hPa 0,0 mm 9,4 km/h W-SW 250 3,4 C 2,6 C 11,9 km/h
19.02.2019 08:33 7,7 C 5,1 C 0,0 C 30 % 74 % 1014,5 hPa 0,0 mm 8,7 km/h W 275 3,4 C 3,1 C 13,7 km/h
19.02.2019 08:32 7,8 C 5,2 C 0,0 C 30 % 74 % 1014,5 hPa 0,0 mm 7,6 km/h W-SW 244 3,5 C 4,1 C 18,7 km/h
19.02.2019 08:31 7,8 C 5,2 C 0,0 C 30 % 73 % 1014,5 hPa 0,0 mm 7,8 km/h SW 224 3,3 C 4,0 C 10,1 km/h
19.02.2019 08:30 7,8 C 5,2 C 0,0 C 30 % 73 % 1014,4 hPa 0,0 mm 6,5 km/h SW 235 3,3 C 5,1 C 13,7 km/h
19.02.2019 08:29 7,8 C 5,2 C 0,0 C 30 % 73 % 1014,4 hPa 0,0 mm 5,7 km/h W-SW 254 3,3 C 5,2 C 11,9 km/h
19.02.2019 08:28 7,8 C 5,2 C 0,0 C 30 % 73 % 1014,3 hPa 0,0 mm 6,1 km/h W 259 3,3 C 5,2 C 8,6 km/h
19.02.2019 08:27 7,8 C 5,2 C 0,0 C 30 % 73 % 1014,3 hPa 0,0 mm 8,8 km/h W-SW 258 3,3 C 3,2 C 8,8 km/h
19.02.2019 08:26 7,8 C 5,2 C 0,0 C 30 % 73 % 1014,2 hPa 0,0 mm 9,7 km/h W-SW 240 3,3 C 2,5 C 10,1 km/h
19.02.2019 08:25 7,8 C 5,2 C 0,0 C 30 % 73 % 1014,3 hPa 0,0 mm 7,6 km/h W 265 3,3 C 4,1 C 15,5 km/h
19.02.2019 08:24 7,8 C 5,2 C 0,0 C 30 % 73 % 1014,3 hPa 0,0 mm 8,4 km/h SW 219 3,3 C 3,5 C 8,6 km/h
19.02.2019 08:23 7,8 C 5,2 C 0,0 C 30 % 73 % 1014,2 hPa 0,0 mm 8,7 km/h W 266 3,3 C 3,3 C 11,9 km/h
19.02.2019 08:22 7,8 C 5,2 C 0,0 C 30 % 73 % 1014,3 hPa 0,0 mm 7,2 km/h W-SW 245 3,3 C 4,5 C 16,9 km/h
19.02.2019 08:21 7,8 C 5,2 C 0,0 C 30 % 73 % 1014,2 hPa 0,0 mm 6,4 km/h W 275 3,3 C 5,2 C 8,6 km/h
19.02.2019 08:20 7,8 C 5,2 C 0,0 C 30 % 72 % 1014,2 hPa 0,0 mm 5,7 km/h W-SW 250 3,1 C 5,2 C 15,5 km/h
19.02.2019 08:19 7,9 C 5,3 C 0,0 C 30 % 72 % 1014,2 hPa 0,0 mm 6,7 km/h W-SW 241 3,2 C 5,1 C 10,1 km/h
19.02.2019 08:18 7,9 C 5,3 C 0,0 C 30 % 72 % 1014,2 hPa 0,0 mm 8,3 km/h W-SW 237 3,2 C 3,7 C 10,1 km/h
19.02.2019 08:17 7,9 C 5,3 C 0,0 C 30 % 72 % 1014,1 hPa 0,0 mm 7,9 km/h W-SW 248 3,2 C 4,0 C 11,9 km/h
19.02.2019 08:16 7,9 C 5,3 C 0,0 C 30 % 72 % 1014,1 hPa 0,0 mm 6,2 km/h W-SW 243 3,2 C 5,3 C 16,9 km/h
19.02.2019 08:15 7,8 C 5,2 C 0,0 C 30 % 72 % 1014,1 hPa 0,0 mm 5,4 km/h W 275 3,1 C 5,2 C 8,6 km/h
19.02.2019 08:14 7,8 C 5,2 C 0,0 C 30 % 72 % 1014,1 hPa 0,0 mm 6,0 km/h W 269 3,1 C 5,2 C 10,1 km/h
19.02.2019 08:13 7,8 C 5,2 C 0,0 C 30 % 72 % 1014,1 hPa 0,0 mm 5,7 km/h W-SW 250 3,1 C 5,2 C 8,6 km/h
19.02.2019 08:12 7,8 C 5,2 C 0,0 C 30 % 72 % 1014,1 hPa 0,0 mm 5,6 km/h W-SW 240 3,1 C 5,2 C 15,5 km/h
19.02.2019 08:11 7,8 C 5,2 C 0,0 C 30 % 72 % 1014,1 hPa 0,0 mm 7,0 km/h W 259 3,1 C 4,7 C 8,6 km/h
19.02.2019 08:10 7,8 C 5,2 C 0,0 C 30 % 72 % 1014,1 hPa 0,0 mm 7,8 km/h W 276 3,1 C 4,0 C 11,9 km/h
19.02.2019 08:09 7,8 C 5,2 C 0,0 C 30 % 72 % 1014,1 hPa 0,0 mm 8,0 km/h SW 227 3,1 C 3,8 C 15,5 km/h
19.02.2019 08:08 7,8 C 5,2 C 0,0 C 30 % 72 % 1014,2 hPa 0,0 mm 8,8 km/h SW 231 3,1 C 3,2 C 10,1 km/h
19.02.2019 08:07 7,8 C 5,2 C 0,0 C 30 % 72 % 1014,2 hPa 0,0 mm 8,6 km/h W-SW 245 3,1 C 3,3 C 15,5 km/h
19.02.2019 08:06 7,8 C 5,2 C 0,0 C 30 % 72 % 1014,2 hPa 0,0 mm 7,8 km/h W 278 3,1 C 4,0 C 11,9 km/h
19.02.2019 08:05 7,8 C 5,2 C 0,0 C 30 % 72 % 1014,3 hPa 0,0 mm 6,9 km/h SW 230 3,1 C 4,8 C 11,9 km/h
19.02.2019 08:04 7,8 C 5,2 C 0,0 C 30 % 71 % 1014,2 hPa 0,0 mm 6,2 km/h W 266 2,9 C 5,2 C 10,1 km/h
19.02.2019 08:03 7,8 C 5,2 C 0,0 C 30 % 71 % 1014,2 hPa 0,0 mm 5,8 km/h S-SW 210 2,9 C 5,2 C 8,6 km/h
19.02.2019 08:02 7,8 C 5,2 C 0,0 C 30 % 71 % 1014,2 hPa 0,0 mm 5,5 km/h W-SW 244 2,9 C 5,2 C 8,6 km/h
19.02.2019 08:01 7,8 C 5,2 C 0,0 C 30 % 71 % 1014,2 hPa 0,0 mm 4,0 km/h W-SW 247 2,9 C 5,2 C 8,6 km/h
19.02.2019 08:00 7,8 C 5,2 C 0,0 C 30 % 71 % 1014,2 hPa 0,0 mm 2,6 km/h W 278 2,9 C 5,2 C 8,6 km/h
19.02.2019 07:59 7,8 C 5,2 C 0,0 C 30 % 71 % 1014,1 hPa 0,0 mm 4,1 km/h W-SW 240 2,9 C 5,2 C 4,1 km/h
19.02.2019 07:58 7,8 C 5,2 C 0,0 C 30 % 71 % 1014,2 hPa 0,0 mm 5,3 km/h W 264 2,9 C 5,2 C 10,1 km/h
19.02.2019 07:57 7,8 C 5,2 C 0,0 C 30 % 72 % 1014,1 hPa 0,0 mm 4,6 km/h W 275 3,1 C 5,2 C 8,6 km/h
19.02.2019 07:56 7,8 C 5,2 C 0,0 C 30 % 72 % 1014,1 hPa 0,0 mm 5,0 km/h W-NW 283 3,1 C 5,2 C 6,8 km/h
19.02.2019 07:55 7,8 C 5,2 C 0,0 C 30 % 72 % 1014,0 hPa 0,0 mm 4,7 km/h SW 233 3,1 C 5,2 C 11,9 km/h
19.02.2019 07:54 7,8 C 5,2 C 0,0 C 30 % 71 % 1014,1 hPa 0,0 mm 3,2 km/h SW 214 2,9 C 5,2 C 8,6 km/h
19.02.2019 07:53 7,8 C 5,2 C 0,0 C 30 % 71 % 1014,0 hPa 0,0 mm 3,7 km/h SW 228 2,9 C 5,2 C 3,7 km/h
19.02.2019 07:52 7,8 C 5,2 C 0,0 C 30 % 72 % 1014,0 hPa 0,0 mm 4,0 km/h SW 231 3,1 C 5,2 C 6,8 km/h
19.02.2019 07:51 7,8 C 5,2 C 0,0 C 30 % 72 % 1014,0 hPa 0,0 mm 4,7 km/h SW 231 3,1 C 5,2 C 6,8 km/h
19.02.2019 07:50 7,7 C 5,1 C 0,0 C 30 % 72 % 1014,0 hPa 0,0 mm 5,4 km/h W-SW 247 3,0 C 5,1 C 8,6 km/h
19.02.2019 07:49 7,7 C 5,1 C 0,0 C 30 % 72 % 1014,0 hPa 0,0 mm 4,3 km/h W 275 3,0 C 5,1 C 11,9 km/h
19.02.2019 07:48 7,7 C 5,1 C 0,0 C 30 % 71 % 1014,0 hPa 0,0 mm 3,2 km/h W-NW 282 2,8 C 5,1 C 6,8 km/h
19.02.2019 07:47 7,7 C 5,1 C 0,0 C 30 % 71 % 1014,0 hPa 0,0 mm 4,2 km/h SW 230 2,8 C 5,1 C 4,2 km/h
19.02.2019 07:46 7,7 C 5,1 C 0,0 C 30 % 71 % 1014,0 hPa 0,0 mm 5,4 km/h W-SW 244 2,8 C 5,1 C 6,8 km/h
19.02.2019 07:45 7,7 C 5,1 C 0,0 C 30 % 72 % 1013,9 hPa 0,0 mm 5,2 km/h W 271 3,0 C 5,1 C 8,6 km/h
19.02.2019 07:44 7,7 C 5,1 C 0,0 C 30 % 71 % 1013,9 hPa 0,0 mm 5,6 km/h W-SW 257 2,8 C 5,1 C 10,1 km/h
19.02.2019 07:43 7,7 C 5,1 C 0,0 C 30 % 71 % 1014,0 hPa 0,0 mm 5,2 km/h W-SW 251 2,8 C 5,1 C 10,1 km/h
19.02.2019 07:42 7,7 C 5,1 C 0,0 C 30 % 71 % 1014,0 hPa 0,0 mm 4,1 km/h N 355 2,8 C 5,1 C 11,9 km/h
19.02.2019 07:41 7,6 C 5,1 C 0,0 C 30 % 71 % 1014,0 hPa 0,0 mm 4,1 km/h W-SW 252 2,7 C 5,1 C 6,8 km/h
19.02.2019 07:40 7,6 C 5,1 C 0,0 C 30 % 71 % 1014,0 hPa 0,0 mm 4,4 km/h W-SW 247 2,7 C 5,1 C 5,0 km/h
19.02.2019 07:39 7,6 C 5,1 C 0,0 C 30 % 71 % 1014,0 hPa 0,0 mm 4,1 km/h S-SW 206 2,7 C 5,1 C 5,0 km/h
19.02.2019 07:38 7,6 C 5,1 C 0,0 C 30 % 71 % 1013,9 hPa 0,0 mm 2,9 km/h SW 226 2,7 C 5,1 C 8,6 km/h
19.02.2019 07:37 7,6 C 5,1 C 0,0 C 30 % 71 % 1014,0 hPa 0,0 mm 2,5 km/h W-SW 257 2,7 C 5,1 C 3,2 km/h
19.02.2019 07:36 7,6 C 5,1 C 0,0 C 30 % 71 % 1014,0 hPa 0,0 mm 2,7 km/h W 274 2,7 C 5,1 C 5,0 km/h
19.02.2019 07:35 7,6 C 5,1 C 0,0 C 30 % 71 % 1013,9 hPa 0,0 mm 3,0 km/h SW 231 2,7 C 5,1 C 5,0 km/h
19.02.2019 07:34 7,6 C 5,1 C 0,0 C 30 % 71 % 1013,9 hPa 0,0 mm 3,5 km/h W 276 2,7 C 5,1 C 5,0 km/h
19.02.2019 07:33 7,6 C 5,1 C 0,0 C 30 % 71 % 1013,9 hPa 0,0 mm 3,9 km/h W 275 2,7 C 5,1 C 6,8 km/h
19.02.2019 07:32 7,5 C 5,0 C 0,0 C 30 % 71 % 1013,9 hPa 0,0 mm 3,8 km/h W-SW 257 2,6 C 5,0 C 6,8 km/h
19.02.2019 07:31 7,5 C 5,0 C 0,0 C 30 % 71 % 1013,9 hPa 0,0 mm 3,9 km/h W-NW 289 2,6 C 5,0 C 6,8 km/h
19.02.2019 07:30 7,5 C 5,0 C 0,0 C 30 % 71 % 1013,9 hPa 0,0 mm 4,2 km/h W-SW 247 2,6 C 5,0 C 5,0 km/h
19.02.2019 07:29 7,5 C 5,0 C 0,0 C 30 % 71 % 1013,9 hPa 0,0 mm 3,7 km/h W-SW 245 2,6 C 5,0 C 8,6 km/h
19.02.2019 07:28 7,5 C 5,0 C 0,0 C 30 % 71 % 1013,9 hPa 0,0 mm 3,1 km/h W-NW 292 2,6 C 5,0 C 6,8 km/h
19.02.2019 07:27 7,5 C 5,0 C 0,0 C 30 % 71 % 1013,9 hPa 0,0 mm 3,6 km/h SW 217 2,6 C 5,0 C 6,8 km/h
19.02.2019 07:26 7,4 C 4,9 C 0,0 C 30 % 71 % 1013,9 hPa 0,0 mm 2,6 km/h SW 231 2,5 C 4,9 C 6,8 km/h
19.02.2019 07:25 7,4 C 4,9 C 0,0 C 30 % 71 % 1014,0 hPa 0,0 mm 1,7 km/h SW 230 2,5 C 4,9 C 6,8 km/h
19.02.2019 07:24 7,4 C 4,9 C 0,0 C 30 % 71 % 1014,0 hPa 0,0 mm 1,9 km/h W 274 2,5 C 4,9 C 3,2 km/h
19.02.2019 07:23 7,4 C 4,9 C 0,0 C 30 % 71 % 1013,9 hPa 0,0 mm 1,9 km/h W-SW 248 2,5 C 4,9 C 5,0 km/h
19.02.2019 07:22 7,4 C 4,9 C 0,0 C 30 % 71 % 1013,9 hPa 0,0 mm 2,6 km/h W-SW 251 2,5 C 4,9 C 3,2 km/h
19.02.2019 07:21 7,4 C 4,9 C 0,0 C 30 % 71 % 1013,8 hPa 0,0 mm 3,0 km/h SW 226 2,5 C 4,9 C 6,8 km/h
19.02.2019 07:20 7,4 C 4,9 C 0,0 C 30 % 71 % 1013,9 hPa 0,0 mm 2,3 km/h SW 235 2,5 C 4,9 C 5,0 km/h
19.02.2019 07:19 7,4 C 4,9 C 0,0 C 30 % 71 % 1013,9 hPa 0,0 mm 2,4 km/h W-SW 255 2,5 C 4,9 C 5,0 km/h
19.02.2019 07:18 7,4 C 4,9 C 0,0 C 30 % 71 % 1013,8 hPa 0,0 mm 3,0 km/h W-SW 255 2,5 C 4,9 C 5,0 km/h
19.02.2019 07:17 7,4 C 4,9 C 0,0 C 30 % 71 % 1013,8 hPa 0,0 mm 2,7 km/h W 279 2,5 C 4,9 C 5,0 km/h
19.02.2019 07:16 7,4 C 4,9 C 0,0 C 30 % 71 % 1013,9 hPa 0,0 mm 2,2 km/h W-SW 251 2,5 C 4,9 C 5,0 km/h
19.02.2019 07:15 7,4 C 4,9 C 0,0 C 30 % 71 % 1013,8 hPa 0,0 mm 2,6 km/h W-NW 283 2,5 C 4,9 C 3,2 km/h
19.02.2019 07:14 7,4 C 4,9 C 0,0 C 30 % 71 % 1013,8 hPa 0,0 mm 2,4 km/h W-SW 240 2,5 C 4,9 C 5,0 km/h
19.02.2019 07:13 7,4 C 4,9 C 0,0 C 30 % 71 % 1013,8 hPa 0,0 mm 1,8 km/h W-SW 254 2,5 C 4,9 C 3,2 km/h
19.02.2019 07:12 7,4 C 4,9 C 0,0 C 30 % 71 % 1013,9 hPa 0,0 mm 1,8 km/h W-SW 238 2,5 C 4,9 C 3,2 km/h
19.02.2019 07:11 7,4 C 4,9 C 0,0 C 30 % 71 % 1013,9 hPa 0,0 mm 1,4 km/h SW 223 2,5 C 4,9 C 3,2 km/h
19.02.2019 07:10 7,4 C 4,9 C 0,0 C 30 % 71 % 1013,9 hPa 0,0 mm 1,8 km/h S-SW 212 2,5 C 4,9 C 3,2 km/h
19.02.2019 07:09 7,4 C 4,9 C 0,0 C 30 % 71 % 1013,8 hPa 0,0 mm 1,9 km/h SW 224 2,5 C 4,9 C 6,8 km/h
19.02.2019 07:08 7,4 C 4,9 C 0,0 C 30 % 71 % 1013,9 hPa 0,0 mm 1,9 km/h W-NW 285 2,5 C 4,9 C 6,8 km/h
19.02.2019 07:07 7,4 C 4,9 C 0,0 C 30 % 71 % 1013,7 hPa 0,0 mm 1,9 km/h SW 231 2,5 C 4,9 C 3,2 km/h
19.02.2019 07:06 7,4 C 4,9 C 0,0 C 30 % 70 % 1013,8 hPa 0,0 mm 1,1 km/h W 266 2,3 C 4,9 C 6,8 km/h
19.02.2019 07:05 7,4 C 4,9 C 0,0 C 30 % 71 % 1013,8 hPa 0,0 mm 1,6 km/h W-NW 298 2,5 C 4,9 C 1,8 km/h
19.02.2019 07:04 7,4 C 4,9 C 0,0 C 30 % 71 % 1013,8 hPa 0,0 mm 4,5 km/h S-SW 206 2,5 C 4,9 C 4,5 km/h
19.02.2019 07:03 7,4 C 4,9 C 0,0 C 30 % 71 % 1013,8 hPa 0,0 mm 7,9 km/h W 265 2,5 C 3,6 C 8,6 km/h
19.02.2019 07:02 7,3 C 4,9 C 0,0 C 30 % 71 % 1013,8 hPa 0,0 mm 6,5 km/h W-NW 288 2,4 C 4,8 C 11,9 km/h
19.02.2019 07:01 7,3 C 4,9 C 0,0 C 30 % 71 % 1013,8 hPa 0,0 mm 3,4 km/h W 275 2,4 C 4,9 C 11,9 km/h
19.02.2019 07:00 7,3 C 4,9 C 0,0 C 30 % 71 % 1013,8 hPa 0,0 mm 2,5 km/h W 279 2,4 C 4,9 C 6,8 km/h
19.02.2019 06:59 7,3 C 4,9 C 0,0 C 30 % 71 % 1013,8 hPa 0,0 mm 2,5 km/h S-SW 209 2,4 C 4,9 C 3,2 km/h
19.02.2019 06:58 7,2 C 4,8 C 0,0 C 30 % 71 % 1013,8 hPa 0,0 mm 3,2 km/h W 259 2,3 C 4,8 C 3,2 km/h
19.02.2019 06:57 7,2 C 4,8 C 0,0 C 30 % 72 % 1013,7 hPa 0,0 mm 4,3 km/h W 268 2,5 C 4,8 C 6,8 km/h
19.02.2019 06:56 7,2 C 4,8 C 0,0 C 30 % 72 % 1013,8 hPa 0,0 mm 4,1 km/h W-SW 248 2,5 C 4,8 C 10,1 km/h
19.02.2019 06:55 7,2 C 4,8 C 0,0 C 30 % 72 % 1013,8 hPa 0,0 mm 3,0 km/h W 261 2,5 C 4,8 C 6,8 km/h
19.02.2019 06:54 7,2 C 4,8 C 0,0 C 30 % 72 % 1013,7 hPa 0,0 mm 2,8 km/h W-SW 243 2,5 C 4,8 C 3,2 km/h
19.02.2019 06:53 7,1 C 4,7 C 0,0 C 30 % 72 % 1013,7 hPa 0,0 mm 3,5 km/h SW 233 2,4 C 4,7 C 3,5 km/h
19.02.2019 06:52 7,1 C 4,7 C 0,0 C 30 % 72 % 1013,6 hPa 0,0 mm 4,8 km/h W-SW 250 2,4 C 4,7 C 5,0 km/h
19.02.2019 06:51 7,1 C 4,7 C 0,0 C 30 % 72 % 1013,7 hPa 0,0 mm 5,0 km/h W-SW 257 2,4 C 4,7 C 6,8 km/h
19.02.2019 06:50 7,0 C 4,7 C 0,0 C 30 % 72 % 1013,6 hPa 0,0 mm 3,3 km/h W-SW 243 2,3 C 4,7 C 10,1 km/h
19.02.2019 06:49 7,0 C 4,7 C 0,0 C 30 % 72 % 1013,6 hPa 0,0 mm 3,0 km/h SW 220 2,3 C 4,7 C 6,8 km/h
19.02.2019 06:48 6,9 C 4,6 C 0,0 C 30 % 72 % 1013,6 hPa 0,0 mm 2,9 km/h SW 228 2,2 C 4,6 C 3,2 km/h
19.02.2019 06:47 6,9 C 4,6 C 0,0 C 30 % 72 % 1013,6 hPa 0,0 mm 1,8 km/h W-SW 254 2,2 C 4,6 C 8,6 km/h
19.02.2019 06:46 6,9 C 4,6 C 0,0 C 30 % 72 % 1013,6 hPa 0,0 mm 1,6 km/h W-SW 258 2,2 C 4,6 C 3,2 km/h
19.02.2019 06:45 6,9 C 4,6 C 0,0 C 30 % 72 % 1013,6 hPa 0,0 mm 1,6 km/h W-SW 237 2,2 C 4,6 C 3,2 km/h
19.02.2019 06:44 6,9 C 4,6 C 0,0 C 30 % 72 % 1013,7 hPa 0,0 mm 1,6 km/h W-SW 243 2,2 C 4,6 C 3,2 km/h
19.02.2019 06:43 6,9 C 4,6 C 0,0 C 30 % 72 % 1013,6 hPa 0,0 mm 2,1 km/h W-SW 252 2,2 C 4,6 C 3,2 km/h
19.02.2019 06:42 6,9 C 4,6 C 0,0 C 30 % 73 % 1013,5 hPa 0,0 mm 1,8 km/h SW 227 2,4 C 4,6 C 5,0 km/h
19.02.2019 06:41 6,9 C 4,6 C 0,0 C 30 % 73 % 1013,6 hPa 0,0 mm 1,8 km/h W-SW 258 2,4 C 4,6 C 3,2 km/h
19.02.2019 06:40 6,8 C 4,5 C 0,0 C 30 % 73 % 1013,5 hPa 0,0 mm 2,2 km/h W-SW 255 2,3 C 4,5 C 3,2 km/h
19.02.2019 06:39 6,8 C 4,5 C 0,0 C 30 % 73 % 1013,5 hPa 0,0 mm 2,0 km/h W-SW 237 2,3 C 4,5 C 8,6 km/h
19.02.2019 06:38 6,8 C 4,5 C 0,0 C 30 % 73 % 1013,4 hPa 0,0 mm 1,4 km/h W-SW 254 2,3 C 4,5 C 3,2 km/h
19.02.2019 06:37 6,7 C 4,5 C 0,0 C 30 % 73 % 1013,4 hPa 0,0 mm 1,4 km/h W 264 2,2 C 4,5 C 3,2 km/h
19.02.2019 06:36 6,7 C 4,5 C 0,0 C 30 % 74 % 1013,4 hPa 0,0 mm 1,9 km/h W 281 2,4 C 4,5 C 3,2 km/h
19.02.2019 06:35 6,6 C 4,4 C 0,0 C 30 % 74 % 1013,4 hPa 0,0 mm 2,0 km/h SW 217 2,3 C 4,4 C 3,2 km/h
19.02.2019 06:34 6,5 C 4,3 C 0,0 C 30 % 74 % 1013,4 hPa 0,0 mm 2,0 km/h W-SW 237 2,2 C 4,3 C 5,0 km/h
19.02.2019 06:33 6,4 C 4,3 C 0,0 C 30 % 75 % 1013,4 hPa 0,0 mm 2,0 km/h SW 216 2,3 C 4,3 C 3,2 km/h
19.02.2019 06:32 6,3 C 4,2 C 0,0 C 30 % 75 % 1013,4 hPa 0,0 mm 1,9 km/h W-SW 240 2,2 C 4,2 C 5,0 km/h
19.02.2019 06:31 6,2 C 4,1 C 0,0 C 30 % 76 % 1013,3 hPa 0,0 mm 2,2 km/h S-SW 212 2,3 C 4,1 C 6,8 km/h
19.02.2019 06:30 6,2 C 4,1 C 0,0 C 30 % 76 % 1013,3 hPa 0,0 mm 2,5 km/h SW 228 2,3 C 4,1 C 3,2 km/h
19.02.2019 06:29 6,0 C 4,0 C 0,0 C 30 % 76 % 1013,3 hPa 0,0 mm 1,8 km/h W-SW 245 2,1 C 4,0 C 6,8 km/h
19.02.2019 06:28 5,9 C 3,9 C 0,0 C 30 % 77 % 1013,3 hPa 0,0 mm 0,7 km/h SW 226 2,2 C 3,9 C 3,2 km/h
19.02.2019 06:27 5,8 C 3,9 C 0,0 C 30 % 77 % 1013,3 hPa 0,0 mm 0,0 km/h SW 224 2,1 C 3,9 C 1,8 km/h
19.02.2019 06:26 5,7 C 3,8 C 0,0 C 30 % 77 % 1013,3 hPa 0,0 mm 0,0 km/h SW 235 2,0 C 3,8 C 1,8 km/h
19.02.2019 06:25 5,7 C 3,8 C 0,0 C 30 % 76 % 1013,3 hPa 0,0 mm 0,0 km/h O 96 1,8 C 3,8 C 0,0 km/h
19.02.2019 06:24 5,6 C 3,7 C 0,0 C 30 % 76 % 1013,3 hPa 0,0 mm 0,0 km/h O 96 1,7 C 3,7 C 0,0 km/h
19.02.2019 06:23 5,6 C 3,7 C 0,0 C 30 % 76 % 1013,3 hPa 0,0 mm 0,0 km/h O 96 1,7 C 3,7 C 0,0 km/h
19.02.2019 06:22 5,6 C 3,7 C 0,0 C 30 % 76 % 1013,3 hPa 0,0 mm 0,0 km/h O 96 1,7 C 3,7 C 0,0 km/h
19.02.2019 06:21 5,6 C 3,7 C 0,0 C 30 % 76 % 1013,3 hPa 0,0 mm 0,0 km/h O 96 1,7 C 3,7 C 0,0 km/h
19.02.2019 06:20 5,6 C 3,7 C 0,0 C 30 % 76 % 1013,3 hPa 0,0 mm 0,0 km/h O 96 1,7 C 3,7 C 0,0 km/h
19.02.2019 06:19 5,6 C 3,7 C 0,0 C 30 % 75 % 1013,3 hPa 0,0 mm 0,0 km/h O 96 1,5 C 3,7 C 0,0 km/h
19.02.2019 06:18 5,7 C 3,8 C 0,0 C 30 % 75 % 1013,3 hPa 0,0 mm 0,0 km/h O 96 1,6 C 3,8 C 0,0 km/h
19.02.2019 06:17 5,7 C 3,8 C 0,0 C 30 % 75 % 1013,3 hPa 0,0 mm 0,0 km/h O 96 1,6 C 3,8 C 0,0 km/h
19.02.2019 06:16 5,7 C 3,8 C 0,0 C 30 % 75 % 1013,4 hPa 0,0 mm 0,0 km/h O 96 1,6 C 3,8 C 0,0 km/h
19.02.2019 06:15 5,7 C 3,8 C 0,0 C 30 % 75 % 1013,4 hPa 0,0 mm 0,0 km/h O 96 1,6 C 3,8 C 0,0 km/h
19.02.2019 06:14 5,7 C 3,8 C 0,0 C 30 % 75 % 1013,4 hPa 0,0 mm 0,0 km/h O 96 1,6 C 3,8 C 0,0 km/h
19.02.2019 06:13 5,7 C 3,8 C 0,0 C 30 % 75 % 1013,3 hPa 0,0 mm 0,0 km/h O 96 1,6 C 3,8 C 0,0 km/h
19.02.2019 06:12 5,8 C 3,9 C 0,0 C 30 % 75 % 1013,3 hPa 0,0 mm 0,0 km/h O 96 1,7 C 3,9 C 0,0 km/h
19.02.2019 06:11 5,8 C 3,9 C 0,0 C 30 % 74 % 1013,3 hPa 0,0 mm 0,0 km/h O 96 1,5 C 3,9 C 0,0 km/h
19.02.2019 06:10 5,8 C 3,9 C 0,0 C 30 % 74 % 1013,3 hPa 0,0 mm 0,0 km/h O 96 1,5 C 3,9 C 0,0 km/h
19.02.2019 06:09 5,8 C 3,9 C 0,0 C 30 % 74 % 1013,2 hPa 0,0 mm 0,0 km/h O 96 1,5 C 3,9 C 0,0 km/h
19.02.2019 06:08 5,8 C 3,9 C 0,0 C 30 % 74 % 1013,3 hPa 0,0 mm 0,0 km/h O 96 1,5 C 3,9 C 0,0 km/h
19.02.2019 06:07 5,8 C 3,9 C 0,0 C 30 % 75 % 1013,3 hPa 0,0 mm 0,0 km/h O 96 1,7 C 3,9 C 0,0 km/h
19.02.2019 06:06 5,8 C 3,9 C 0,0 C 30 % 74 % 1013,3 hPa 0,0 mm 0,0 km/h O 96 1,5 C 3,9 C 0,0 km/h
19.02.2019 06:05 5,8 C 3,9 C 0,0 C 30 % 74 % 1013,3 hPa 0,0 mm 0,0 km/h O 96 1,5 C 3,9 C 0,0 km/h
19.02.2019 06:04 5,8 C 3,9 C 0,0 C 30 % 74 % 1013,2 hPa 0,0 mm 0,0 km/h O 96 1,5 C 3,9 C 0,0 km/h
19.02.2019 06:03 5,8 C 3,9 C 0,0 C 30 % 74 % 1013,3 hPa 0,0 mm 0,0 km/h O 96 1,5 C 3,9 C 0,0 km/h
19.02.2019 06:02 5,8 C 3,9 C 0,0 C 30 % 74 % 1013,4 hPa 0,0 mm 0,0 km/h O 96 1,5 C 3,9 C 0,0 km/h
19.02.2019 06:01 5,8 C 3,9 C 0,0 C 30 % 74 % 1013,3 hPa 0,0 mm 0,0 km/h O 96 1,5 C 3,9 C 0,0 km/h
19.02.2019 06:00 5,8 C 3,9 C 0,0 C 30 % 74 % 1013,4 hPa 0,0 mm 0,0 km/h O 96 1,5 C 3,9 C 0,0 km/h
19.02.2019 05:59 5,9 C 3,9 C 0,0 C 30 % 74 % 1013,3 hPa 0,0 mm 0,0 km/h O 96 1,6 C 3,9 C 0,0 km/h
19.02.2019 05:58 5,9 C 3,9 C 0,0 C 30 % 74 % 1013,3 hPa 0,0 mm 0,0 km/h O 93 1,6 C 3,9 C 0,0 km/h
19.02.2019 05:57 5,9 C 3,9 C 0,0 C 30 % 73 % 1013,4 hPa 0,0 mm 0,0 km/h O 93 1,4 C 3,9 C 1,8 km/h
19.02.2019 05:56 5,9 C 3,9 C 0,0 C 30 % 73 % 1013,4 hPa 0,0 mm 0,0 km/h O-SO 106 1,4 C 3,9 C 0,0 km/h
19.02.2019 05:55 5,9 C 3,9 C 0,0 C 30 % 73 % 1013,4 hPa 0,0 mm 0,0 km/h N-NW 345 1,4 C 3,9 C 1,8 km/h
19.02.2019 05:54 6,0 C 4,0 C 0,0 C 30 % 73 % 1013,4 hPa 0,0 mm 0,1 km/h N 0 1,5 C 4,0 C 0,1 km/h
19.02.2019 05:53 6,0 C 4,0 C 0,0 C 30 % 72 % 1013,3 hPa 0,0 mm 0,3 km/h O-NO 68 1,3 C 4,0 C 1,8 km/h
19.02.2019 05:52 6,1 C 4,1 C 0,0 C 30 % 72 % 1013,3 hPa 0,0 mm 0,0 km/h O 97 1,4 C 4,1 C 1,8 km/h
19.02.2019 05:51 6,1 C 4,1 C 0,0 C 30 % 72 % 1013,3 hPa 0,0 mm 0,0 km/h O 97 1,4 C 4,1 C 1,8 km/h
19.02.2019 05:50 6,1 C 4,1 C 0,0 C 30 % 72 % 1013,3 hPa 0,0 mm 0,0 km/h O 96 1,4 C 4,1 C 0,0 km/h
19.02.2019 05:49 6,2 C 4,1 C 0,0 C 30 % 72 % 1013,4 hPa 0,0 mm 0,0 km/h O 96 1,5 C 4,1 C 1,8 km/h
19.02.2019 05:48 6,2 C 4,1 C 0,0 C 30 % 71 % 1013,3 hPa 0,0 mm 0,0 km/h S-SO 161 1,3 C 4,1 C 1,8 km/h
19.02.2019 05:47 6,3 C 4,2 C 0,0 C 30 % 71 % 1013,3 hPa 0,0 mm 0,0 km/h S 179 1,4 C 4,2 C 1,8 km/h
19.02.2019 05:46 6,3 C 4,2 C 0,0 C 30 % 71 % 1013,3 hPa 0,0 mm 0,0 km/h O 93 1,4 C 4,2 C 0,0 km/h
19.02.2019 05:45 6,4 C 4,3 C 0,0 C 30 % 71 % 1013,3 hPa 0,0 mm 0,0 km/h O 93 1,5 C 4,3 C 1,8 km/h
19.02.2019 05:44 6,4 C 4,3 C 0,0 C 30 % 71 % 1013,3 hPa 0,0 mm 0,0 km/h O 93 1,5 C 4,3 C 0,0 km/h
19.02.2019 05:43 6,5 C 4,3 C 0,0 C 30 % 71 % 1013,3 hPa 0,0 mm 0,0 km/h S-SW 204 1,6 C 4,3 C 1,8 km/h
19.02.2019 05:42 6,6 C 4,4 C 0,0 C 30 % 70 % 1013,3 hPa 0,0 mm 0,0 km/h O 79 1,5 C 4,4 C 0,0 km/h
19.02.2019 05:41 6,6 C 4,4 C 0,0 C 30 % 70 % 1013,3 hPa 0,0 mm 0,0 km/h O 79 1,5 C 4,4 C 0,0 km/h
19.02.2019 05:40 6,7 C 4,5 C 0,0 C 30 % 70 % 1013,3 hPa 0,0 mm 0,0 km/h O 79 1,6 C 4,5 C 0,0 km/h
19.02.2019 05:39 6,7 C 4,5 C 0,0 C 30 % 70 % 1013,3 hPa 0,0 mm 0,3 km/h O 79 1,6 C 4,5 C 1,8 km/h
19.02.2019 05:38 6,8 C 4,5 C 0,0 C 30 % 71 % 1013,3 hPa 0,0 mm 0,0 km/h O 79 1,9 C 4,5 C 1,8 km/h
19.02.2019 05:37 6,8 C 4,5 C 0,0 C 30 % 71 % 1013,4 hPa 0,0 mm 0,6 km/h SW 214 1,9 C 4,5 C 1,8 km/h
19.02.2019 05:36 6,8 C 4,5 C 0,0 C 30 % 71 % 1013,3 hPa 0,0 mm 1,4 km/h SW 231 1,9 C 4,5 C 1,8 km/h
19.02.2019 05:35 6,8 C 4,5 C 0,0 C 30 % 70 % 1013,3 hPa 0,0 mm 0,9 km/h SW 214 1,7 C 4,5 C 5,0 km/h
19.02.2019 05:34 6,8 C 4,5 C 0,0 C 30 % 70 % 1013,4 hPa 0,0 mm 0,4 km/h SW 216 1,7 C 4,5 C 1,8 km/h
19.02.2019 05:33 6,8 C 4,5 C 0,0 C 30 % 70 % 1013,4 hPa 0,0 mm 0,5 km/h SW 226 1,7 C 4,5 C 1,8 km/h
19.02.2019 05:32 6,8 C 4,5 C 0,0 C 30 % 70 % 1013,4 hPa 0,0 mm 1,4 km/h SW 216 1,7 C 4,5 C 1,4 km/h
19.02.2019 05:31 6,8 C 4,5 C 0,0 C 30 % 70 % 1013,3 hPa 0,0 mm 1,9 km/h SW 216 1,7 C 4,5 C 6,8 km/h
19.02.2019 05:30 6,8 C 4,5 C 0,0 C 30 % 70 % 1013,3 hPa 0,0 mm 1,2 km/h W-SW 247 1,7 C 4,5 C 3,2 km/h
19.02.2019 05:29 6,9 C 4,6 C 0,0 C 30 % 69 % 1013,4 hPa 0,0 mm 0,8 km/h S-SW 207 1,6 C 4,6 C 6,8 km/h
19.02.2019 05:28 6,9 C 4,6 C 0,0 C 30 % 69 % 1013,4 hPa 0,0 mm 0,4 km/h O-SO 110 1,6 C 4,6 C 1,8 km/h
19.02.2019 05:27 7,0 C 4,7 C 0,0 C 30 % 69 % 1013,4 hPa 0,0 mm 0,0 km/h SW 233 1,7 C 4,7 C 1,8 km/h
19.02.2019 05:26 7,1 C 4,7 C 0,0 C 30 % 69 % 1013,4 hPa 0,0 mm 0,0 km/h O-SO 118 1,8 C 4,7 C 1,8 km/h
19.02.2019 05:25 7,1 C 4,7 C 0,0 C 30 % 69 % 1013,4 hPa 0,0 mm 0,3 km/h O-SO 117 1,8 C 4,7 C 0,3 km/h
19.02.2019 05:24 7,1 C 4,7 C 0,0 C 30 % 69 % 1013,5 hPa 0,0 mm 0,4 km/h O-SO 118 1,8 C 4,7 C 1,8 km/h
19.02.2019 05:23 7,2 C 4,8 C 0,0 C 30 % 69 % 1013,4 hPa 0,0 mm 0,6 km/h O-SO 110 1,9 C 4,8 C 1,8 km/h
19.02.2019 05:22 7,2 C 4,8 C 0,0 C 30 % 68 % 1013,5 hPa 0,0 mm 0,6 km/h W-SW 238 1,7 C 4,8 C 1,8 km/h
19.02.2019 05:21 7,2 C 4,8 C 0,0 C 30 % 68 % 1013,4 hPa 0,0 mm 0,1 km/h S-SO 164 1,7 C 4,8 C 3,2 km/h
19.02.2019 05:20 7,3 C 4,9 C 0,0 C 30 % 68 % 1013,4 hPa 0,0 mm 0,0 km/h O-NO 73 1,8 C 4,9 C 0,0 km/h
19.02.2019 05:19 7,4 C 4,9 C 0,0 C 30 % 68 % 1013,4 hPa 0,0 mm 0,0 km/h SW 219 1,9 C 4,9 C 0,0 km/h
19.02.2019 05:18 7,4 C 4,9 C 0,0 C 30 % 68 % 1013,4 hPa 0,0 mm 0,2 km/h SW 217 1,9 C 4,9 C 0,2 km/h
19.02.2019 05:17 7,4 C 4,9 C 0,0 C 30 % 68 % 1013,4 hPa 0,0 mm 0,7 km/h SW 219 1,9 C 4,9 C 0,7 km/h
19.02.2019 05:16 7,5 C 5,0 C 0,0 C 30 % 68 % 1013,4 hPa 0,0 mm 1,0 km/h SW 219 2,0 C 5,0 C 3,2 km/h
19.02.2019 05:15 7,6 C 5,1 C 0,0 C 30 % 67 % 1013,4 hPa 0,0 mm 0,7 km/h W-SW 241 1,9 C 5,1 C 0,7 km/h
19.02.2019 05:14 7,6 C 5,1 C 0,0 C 30 % 67 % 1013,4 hPa 0,0 mm 0,4 km/h SW 226 1,9 C 5,1 C 3,2 km/h
19.02.2019 05:13 7,7 C 5,1 C 0,0 C 30 % 67 % 1013,5 hPa 0,0 mm 0,8 km/h S-SW 207 2,0 C 5,1 C 0,8 km/h
19.02.2019 05:12 7,7 C 5,1 C 0,0 C 30 % 67 % 1013,3 hPa 0,0 mm 1,3 km/h S-SW 206 2,0 C 5,1 C 1,8 km/h
19.02.2019 05:11 7,7 C 5,1 C 0,0 C 30 % 67 % 1013,4 hPa 0,0 mm 1,4 km/h W-SW 251 2,0 C 5,1 C 3,2 km/h
19.02.2019 05:10 7,7 C 5,1 C 0,0 C 30 % 67 % 1013,4 hPa 0,0 mm 1,5 km/h S-SW 212 2,0 C 5,1 C 1,8 km/h
19.02.2019 05:09 7,7 C 5,1 C 0,0 C 30 % 66 % 1013,4 hPa 0,0 mm 1,4 km/h SW 224 1,8 C 5,1 C 5,0 km/h
19.02.2019 05:08 7,8 C 5,2 C 0,0 C 30 % 66 % 1013,3 hPa 0,0 mm 1,2 km/h S-SW 199 1,9 C 5,2 C 3,2 km/h
19.02.2019 05:07 7,8 C 5,2 C 0,0 C 30 % 66 % 1013,3 hPa 0,0 mm 0,9 km/h SW 227 1,9 C 5,2 C 3,2 km/h
19.02.2019 05:06 7,8 C 5,2 C 0,0 C 30 % 66 % 1013,3 hPa 0,0 mm 1,1 km/h SW 235 1,9 C 5,2 C 3,2 km/h
19.02.2019 05:05 7,8 C 5,2 C 0,0 C 30 % 66 % 1013,3 hPa 0,0 mm 1,2 km/h SW 223 1,9 C 5,2 C 3,2 km/h
19.02.2019 05:04 7,9 C 5,3 C 0,0 C 30 % 66 % 1013,3 hPa 0,0 mm 0,9 km/h W-SW 241 1,9 C 5,3 C 3,2 km/h
19.02.2019 05:03 7,9 C 5,3 C 0,0 C 30 % 66 % 1013,3 hPa 0,0 mm 0,8 km/h W-SW 245 1,9 C 5,3 C 1,8 km/h
19.02.2019 05:02 7,8 C 5,2 C 0,0 C 30 % 67 % 1013,4 hPa 0,0 mm 2,7 km/h S-SW 213 2,1 C 5,2 C 2,7 km/h
19.02.2019 05:01 7,8 C 5,2 C 0,0 C 30 % 67 % 1013,3 hPa 0,0 mm 4,7 km/h W-NW 293 2,1 C 5,2 C 5,0 km/h
19.02.2019 05:00 7,7 C 5,1 C 0,0 C 30 % 67 % 1013,4 hPa 0,0 mm 3,7 km/h S-SW 204 2,0 C 5,1 C 10,1 km/h
19.02.2019 04:59 7,7 C 5,1 C 0,0 C 30 % 68 % 1013,3 hPa 0,0 mm 2,2 km/h S-SW 199 2,2 C 5,1 C 5,0 km/h
19.02.2019 04:58 7,6 C 5,1 C 0,0 C 30 % 68 % 1013,3 hPa 0,0 mm 1,6 km/h W-SW 243 2,1 C 5,1 C 5,0 km/h
19.02.2019 04:57 7,6 C 5,1 C 0,0 C 30 % 68 % 1013,3 hPa 0,0 mm 0,9 km/h W-SW 238 2,1 C 5,1 C 3,2 km/h
19.02.2019 04:56 7,6 C 5,1 C 0,0 C 30 % 67 % 1013,3 hPa 0,0 mm 0,8 km/h SW 216 1,9 C 5,1 C 0,8 km/h
19.02.2019 04:55 7,6 C 5,1 C 0,0 C 30 % 67 % 1013,4 hPa 0,0 mm 1,2 km/h W-NW 293 1,9 C 5,1 C 3,2 km/h
19.02.2019 04:54 7,6 C 5,1 C 0,0 C 30 % 67 % 1013,3 hPa 0,0 mm 1,9 km/h W-SW 243 1,9 C 5,1 C 1,9 km/h
19.02.2019 04:53 7,6 C 5,1 C 0,0 C 30 % 67 % 1013,3 hPa 0,0 mm 1,6 km/h W-NW 286 1,9 C 5,1 C 5,0 km/h
19.02.2019 04:52 7,6 C 5,1 C 0,0 C 30 % 67 % 1013,3 hPa 0,0 mm 0,8 km/h SW 221 1,9 C 5,1 C 1,8 km/h
19.02.2019 04:51 7,6 C 5,1 C 0,0 C 30 % 67 % 1013,3 hPa 0,0 mm 1,2 km/h SW 230 1,9 C 5,1 C 1,8 km/h
19.02.2019 04:50 7,6 C 5,1 C 0,0 C 30 % 67 % 1013,2 hPa 0,0 mm 1,4 km/h W-SW 245 1,9 C 5,1 C 3,2 km/h
19.02.2019 04:49 7,6 C 5,1 C 0,0 C 30 % 67 % 1013,3 hPa 0,0 mm 0,9 km/h SW 219 1,9 C 5,1 C 1,8 km/h
19.02.2019 04:48 7,6 C 5,1 C 0,0 C 30 % 67 % 1013,2 hPa 0,0 mm 0,7 km/h W 259 1,9 C 5,1 C 3,2 km/h
19.02.2019 04:47 7,6 C 5,1 C 0,0 C 30 % 67 % 1013,2 hPa 0,0 mm 1,5 km/h W-SW 247 1,9 C 5,1 C 1,8 km/h
19.02.2019 04:46 7,6 C 5,1 C 0,0 C 30 % 68 % 1013,2 hPa 0,0 mm 2,7 km/h S-SW 195 2,1 C 5,1 C 3,2 km/h
19.02.2019 04:45 7,6 C 5,1 C 0,0 C 30 % 67 % 1013,2 hPa 0,0 mm 2,3 km/h W-SW 247 1,9 C 5,1 C 8,6 km/h
19.02.2019 04:44 7,6 C 5,1 C 0,0 C 30 % 67 % 1013,2 hPa 0,0 mm 0,6 km/h SW 234 1,9 C 5,1 C 5,0 km/h
19.02.2019 04:43 7,6 C 5,1 C 0,0 C 30 % 67 % 1013,3 hPa 0,0 mm 0,5 km/h SW 223 1,9 C 5,1 C 0,5 km/h
19.02.2019 04:42 7,6 C 5,1 C 0,0 C 30 % 67 % 1013,3 hPa 0,0 mm 1,5 km/h W-SW 245 1,9 C 5,1 C 1,5 km/h
19.02.2019 04:41 7,6 C 5,1 C 0,0 C 30 % 67 % 1013,3 hPa 0,0 mm 1,9 km/h W-SW 247 1,9 C 5,1 C 3,2 km/h
19.02.2019 04:40 7,7 C 5,1 C 0,0 C 30 % 66 % 1013,3 hPa 0,0 mm 1,9 km/h SW 227 1,8 C 5,1 C 3,2 km/h
19.02.2019 04:39 7,7 C 5,1 C 0,0 C 30 % 66 % 1013,3 hPa 0,0 mm 1,6 km/h W 262 1,8 C 5,1 C 3,2 km/h
19.02.2019 04:38 7,7 C 5,1 C 0,0 C 30 % 66 % 1013,2 hPa 0,0 mm 1,1 km/h W 268 1,8 C 5,1 C 3,2 km/h
19.02.2019 04:37 7,8 C 5,2 C 0,0 C 30 % 66 % 1013,3 hPa 0,0 mm 1,1 km/h SW 227 1,9 C 5,2 C 1,8 km/h
19.02.2019 04:36 7,8 C 5,2 C 0,0 C 30 % 66 % 1013,3 hPa 0,0 mm 1,4 km/h S-SW 197 1,9 C 5,2 C 3,2 km/h
19.02.2019 04:35 7,8 C 5,2 C 0,0 C 30 % 66 % 1013,2 hPa 0,0 mm 1,2 km/h SW 221 1,9 C 5,2 C 1,8 km/h
19.02.2019 04:34 7,9 C 5,3 C 0,0 C 30 % 66 % 1013,2 hPa 0,0 mm 1,5 km/h W-SW 240 1,9 C 5,3 C 3,2 km/h
19.02.2019 04:33 7,9 C 5,3 C 0,0 C 30 % 66 % 1013,2 hPa 0,0 mm 2,0 km/h W-SW 240 1,9 C 5,3 C 3,2 km/h
19.02.2019 04:32 7,9 C 5,3 C 0,0 C 30 % 66 % 1013,3 hPa 0,0 mm 2,0 km/h SW 217 1,9 C 5,3 C 5,0 km/h
19.02.2019 04:31 7,9 C 5,3 C 0,0 C 30 % 65 % 1013,2 hPa 0,0 mm 2,2 km/h S-SW 212 1,7 C 5,3 C 5,0 km/h
19.02.2019 04:30 7,9 C 5,3 C 0,0 C 30 % 65 % 1013,1 hPa 0,0 mm 2,7 km/h SW 216 1,7 C 5,3 C 5,0 km/h
19.02.2019 04:29 7,9 C 5,3 C 0,0 C 30 % 65 % 1013,1 hPa 0,0 mm 2,9 km/h SW 228 1,7 C 5,3 C 6,8 km/h
19.02.2019 04:28 7,9 C 5,3 C 0,0 C 30 % 66 % 1013,2 hPa 0,0 mm 3,0 km/h SW 233 1,9 C 5,3 C 8,6 km/h
19.02.2019 04:27 7,9 C 5,3 C 0,0 C 30 % 66 % 1013,2 hPa 0,0 mm 4,0 km/h SW 217 1,9 C 5,3 C 5,0 km/h
19.02.2019 04:26 7,9 C 5,3 C 0,0 C 30 % 66 % 1013,2 hPa 0,0 mm 4,2 km/h S-SW 209 1,9 C 5,3 C 10,1 km/h
19.02.2019 04:25 7,9 C 5,3 C 0,0 C 30 % 66 % 1013,2 hPa 0,0 mm 3,1 km/h SW 226 1,9 C 5,3 C 10,1 km/h
19.02.2019 04:24 7,9 C 5,3 C 0,0 C 30 % 66 % 1013,1 hPa 0,0 mm 2,8 km/h S-SW 210 1,9 C 5,3 C 5,0 km/h
19.02.2019 04:23 7,9 C 5,3 C 0,0 C 30 % 66 % 1013,2 hPa 0,0 mm 1,8 km/h W-SW 240 1,9 C 5,3 C 5,0 km/h
19.02.2019 04:22 7,9 C 5,3 C 0,0 C 30 % 66 % 1013,2 hPa 0,0 mm 1,5 km/h W-NW 286 1,9 C 5,3 C 5,0 km/h
19.02.2019 04:21 7,9 C 5,3 C 0,0 C 30 % 66 % 1013,3 hPa 0,0 mm 1,3 km/h W-SW 247 1,9 C 5,3 C 3,2 km/h
19.02.2019 04:20 7,9 C 5,3 C 0,0 C 30 % 66 % 1013,3 hPa 0,0 mm 1,1 km/h SW 228 1,9 C 5,3 C 3,2 km/h
19.02.2019 04:19 7,9 C 5,3 C 0,0 C 30 % 66 % 1013,2 hPa 0,0 mm 1,9 km/h W-SW 247 1,9 C 5,3 C 3,2 km/h
19.02.2019 04:18 7,9 C 5,3 C 0,0 C 30 % 66 % 1013,3 hPa 0,0 mm 2,3 km/h SW 230 1,9 C 5,3 C 3,2 km/h
19.02.2019 04:17 7,8 C 5,2 C 0,0 C 30 % 66 % 1013,2 hPa 0,0 mm 1,8 km/h W-SW 238 1,9 C 5,2 C 6,8 km/h
19.02.2019 04:16 7,8 C 5,2 C 0,0 C 30 % 66 % 1013,3 hPa 0,0 mm 1,3 km/h W-SW 251 1,9 C 5,2 C 3,2 km/h
19.02.2019 04:15 7,8 C 5,2 C 0,0 C 30 % 66 % 1013,3 hPa 0,0 mm 3,3 km/h W 271 1,9 C 5,2 C 3,3 km/h
19.02.2019 04:14 7,8 C 5,2 C 0,0 C 30 % 66 % 1013,3 hPa 0,0 mm 3,5 km/h S-SO 157 1,9 C 5,2 C 8,6 km/h
19.02.2019 04:13 7,7 C 5,1 C 0,0 C 30 % 67 % 1013,2 hPa 0,0 mm 2,6 km/h SW 224 2,0 C 5,1 C 10,1 km/h
19.02.2019 04:12 7,7 C 5,1 C 0,0 C 30 % 67 % 1013,3 hPa 0,0 mm 1,6 km/h W-SW 251 2,0 C 5,1 C 5,0 km/h
19.02.2019 04:11 7,7 C 5,1 C 0,0 C 30 % 66 % 1013,2 hPa 0,0 mm 1,0 km/h SW 223 1,8 C 5,1 C 5,0 km/h
19.02.2019 04:10 7,7 C 5,1 C 0,0 C 30 % 66 % 1013,2 hPa 0,0 mm 1,0 km/h S-SW 209 1,8 C 5,1 C 3,2 km/h
19.02.2019 04:09 7,7 C 5,1 C 0,0 C 30 % 66 % 1013,2 hPa 0,0 mm 0,4 km/h SW 220 1,8 C 5,1 C 1,8 km/h
19.02.2019 04:08 7,7 C 5,1 C 0,0 C 30 % 66 % 1013,2 hPa 0,0 mm 0,5 km/h W 272 1,8 C 5,1 C 1,8 km/h
19.02.2019 04:07 7,7 C 5,1 C 0,0 C 30 % 66 % 1013,2 hPa 0,0 mm 1,7 km/h W-NW 289 1,8 C 5,1 C 1,7 km/h
19.02.2019 04:06 7,7 C 5,1 C 0,0 C 30 % 67 % 1013,2 hPa 0,0 mm 2,0 km/h W-NW 295 2,0 C 5,1 C 5,0 km/h
19.02.2019 04:05 7,6 C 5,1 C 0,0 C 30 % 67 % 1013,2 hPa 0,0 mm 1,2 km/h SW 228 1,9 C 5,1 C 8,6 km/h
19.02.2019 04:04 7,6 C 5,1 C 0,0 C 30 % 67 % 1013,2 hPa 0,0 mm 1,9 km/h SW 234 1,9 C 5,1 C 1,9 km/h
19.02.2019 04:03 7,6 C 5,1 C 0,0 C 30 % 67 % 1013,2 hPa 0,0 mm 2,0 km/h SW 231 1,9 C 5,1 C 5,0 km/h
19.02.2019 04:02 7,5 C 5,0 C 0,0 C 30 % 67 % 1013,2 hPa 0,0 mm 2,4 km/h SW 230 1,8 C 5,0 C 5,0 km/h
19.02.2019 04:01 7,4 C 4,9 C 0,0 C 30 % 67 % 1013,2 hPa 0,0 mm 2,8 km/h SW 234 1,7 C 4,9 C 5,0 km/h
19.02.2019 04:00 7,4 C 4,9 C 0,0 C 30 % 67 % 1013,2 hPa 0,0 mm 1,1 km/h W 265 1,7 C 4,9 C 11,9 km/h
19.02.2019 03:59 7,4 C 4,9 C 0,0 C 30 % 66 % 1013,2 hPa 0,0 mm 0,0 km/h SW 221 1,5 C 4,9 C 0,0 km/h
19.02.2019 03:58 7,5 C 5,0 C 0,0 C 30 % 67 % 1013,3 hPa 0,0 mm 0,0 km/h NW 323 1,8 C 5,0 C 0,0 km/h
19.02.2019 03:57 7,5 C 5,0 C 0,0 C 30 % 67 % 1013,3 hPa 0,0 mm 0,3 km/h SW 230 1,8 C 5,0 C 0,3 km/h
19.02.2019 03:56 7,5 C 5,0 C 0,0 C 30 % 66 % 1013,2 hPa 0,0 mm 0,4 km/h S-SW 209 1,6 C 5,0 C 0,4 km/h
19.02.2019 03:55 7,6 C 5,1 C 0,0 C 30 % 66 % 1013,3 hPa 0,0 mm 0,3 km/h SW 219 1,7 C 5,1 C 1,8 km/h
19.02.2019 03:54 7,6 C 5,1 C 0,0 C 30 % 66 % 1013,3 hPa 0,0 mm 0,5 km/h SW 226 1,7 C 5,1 C 0,5 km/h
19.02.2019 03:53 7,6 C 5,1 C 0,0 C 30 % 66 % 1013,3 hPa 0,0 mm 0,9 km/h S-SW 213 1,7 C 5,1 C 3,2 km/h
19.02.2019 03:52 7,7 C 5,1 C 0,0 C 30 % 66 % 1013,3 hPa 0,0 mm 0,7 km/h O 100 1,8 C 5,1 C 3,2 km/h
19.02.2019 03:51 7,7 C 5,1 C 0,0 C 30 % 66 % 1013,3 hPa 0,0 mm 0,8 km/h O-SO 102 1,8 C 5,1 C 0,8 km/h
19.02.2019 03:50 7,7 C 5,1 C 0,0 C 30 % 66 % 1013,3 hPa 0,0 mm 1,3 km/h S-SW 192 1,8 C 5,1 C 3,2 km/h
19.02.2019 03:49 7,8 C 5,2 C 0,0 C 30 % 65 % 1013,3 hPa 0,0 mm 2,4 km/h S 178 1,6 C 5,2 C 2,4 km/h
19.02.2019 03:48 7,8 C 5,2 C 0,0 C 30 % 65 % 1013,3 hPa 0,0 mm 2,9 km/h SW 214 1,6 C 5,2 C 5,0 km/h
19.02.2019 03:47 7,9 C 5,3 C 0,0 C 30 % 65 % 1013,3 hPa 0,0 mm 2,9 km/h S-SW 193 1,7 C 5,3 C 5,0 km/h
19.02.2019 03:46 7,9 C 5,3 C 0,0 C 30 % 65 % 1013,2 hPa 0,0 mm 2,7 km/h SW 219 1,7 C 5,3 C 5,0 km/h
19.02.2019 03:45 7,9 C 5,3 C 0,0 C 30 % 65 % 1013,3 hPa 0,0 mm 3,9 km/h W-SW 254 1,7 C 5,3 C 6,8 km/h
19.02.2019 03:44 7,9 C 5,3 C 0,0 C 30 % 65 % 1013,3 hPa 0,0 mm 3,7 km/h S-SW 212 1,7 C 5,3 C 10,1 km/h
19.02.2019 03:43 7,9 C 5,3 C 0,0 C 30 % 65 % 1013,3 hPa 0,0 mm 2,8 km/h S-SW 207 1,7 C 5,3 C 5,0 km/h
19.02.2019 03:42 7,9 C 5,3 C 0,0 C 30 % 65 % 1013,3 hPa 0,0 mm 3,1 km/h SW 221 1,7 C 5,3 C 10,1 km/h
19.02.2019 03:41 7,9 C 5,3 C 0,0 C 30 % 65 % 1013,3 hPa 0,0 mm 3,0 km/h SW 217 1,7 C 5,3 C 6,8 km/h
19.02.2019 03:40 7,9 C 5,3 C 0,0 C 30 % 65 % 1013,3 hPa 0,0 mm 3,1 km/h SW 233 1,7 C 5,3 C 6,8 km/h
19.02.2019 03:39 7,9 C 5,3 C 0,0 C 30 % 65 % 1013,3 hPa 0,0 mm 3,1 km/h W-SW 255 1,7 C 5,3 C 6,8 km/h
19.02.2019 03:38 7,9 C 5,3 C 0,0 C 30 % 65 % 1013,3 hPa 0,0 mm 2,3 km/h W-NW 282 1,7 C 5,3 C 5,0 km/h
19.02.2019 03:37 7,9 C 5,3 C 0,0 C 30 % 65 % 1013,2 hPa 0,0 mm 2,2 km/h W-SW 248 1,7 C 5,3 C 6,8 km/h
19.02.2019 03:36 7,9 C 5,3 C 0,0 C 30 % 65 % 1013,3 hPa 0,0 mm 3,5 km/h W-SW 250 1,7 C 5,3 C 3,5 km/h
19.02.2019 03:35 7,9 C 5,3 C 0,0 C 30 % 65 % 1013,3 hPa 0,0 mm 3,0 km/h S-SW 206 1,7 C 5,3 C 13,7 km/h
19.02.2019 03:34 7,9 C 5,3 C 0,0 C 30 % 65 % 1013,3 hPa 0,0 mm 2,4 km/h S-SW 207 1,7 C 5,3 C 5,0 km/h
19.02.2019 03:33 7,9 C 5,3 C 0,0 C 30 % 65 % 1013,3 hPa 0,0 mm 3,2 km/h SW 214 1,7 C 5,3 C 6,8 km/h
19.02.2019 03:32 7,9 C 5,3 C 0,0 C 30 % 65 % 1013,3 hPa 0,0 mm 2,5 km/h W-SW 258 1,7 C 5,3 C 6,8 km/h
19.02.2019 03:31 7,9 C 5,3 C 0,0 C 30 % 65 % 1013,3 hPa 0,0 mm 2,5 km/h SW 233 1,7 C 5,3 C 5,0 km/h
19.02.2019 03:30 8,0 C 5,3 C 0,0 C 30 % 65 % 1013,3 hPa 0,0 mm 3,7 km/h SW 231 1,8 C 5,3 C 3,7 km/h
19.02.2019 03:29 8,0 C 5,3 C 0,0 C 30 % 65 % 1013,3 hPa 0,0 mm 4,8 km/h SW 220 1,8 C 5,3 C 6,8 km/h
19.02.2019 03:28 8,0 C 5,3 C 0,0 C 30 % 65 % 1013,3 hPa 0,0 mm 4,4 km/h SW 227 1,8 C 5,3 C 6,8 km/h
19.02.2019 03:27 8,1 C 5,4 C 0,0 C 30 % 65 % 1013,2 hPa 0,0 mm 4,1 km/h SW 220 1,9 C 5,4 C 10,1 km/h
19.02.2019 03:26 8,1 C 5,4 C 0,0 C 30 % 65 % 1013,3 hPa 0,0 mm 4,2 km/h SW 223 1,9 C 5,4 C 6,8 km/h
19.02.2019 03:25 8,1 C 5,4 C 0,0 C 30 % 64 % 1013,3 hPa 0,0 mm 3,7 km/h S-SW 210 1,7 C 5,4 C 11,9 km/h
19.02.2019 03:24 8,2 C 5,5 C 0,0 C 30 % 64 % 1013,3 hPa 0,0 mm 3,9 km/h SW 234 1,8 C 5,5 C 3,9 km/h
19.02.2019 03:23 8,2 C 5,5 C 0,0 C 30 % 64 % 1013,4 hPa 0,0 mm 5,0 km/h W 261 1,8 C 5,5 C 6,8 km/h
19.02.2019 03:22 8,2 C 5,5 C 0,0 C 30 % 64 % 1013,3 hPa 0,0 mm 4,1 km/h W-SW 243 1,8 C 5,5 C 10,1 km/h
19.02.2019 03:21 8,2 C 5,5 C 0,0 C 30 % 64 % 1013,4 hPa 0,0 mm 3,0 km/h W-SW 254 1,8 C 5,5 C 6,8 km/h
19.02.2019 03:20 8,2 C 5,5 C 0,0 C 30 % 64 % 1013,4 hPa 0,0 mm 3,1 km/h S 178 1,8 C 5,5 C 5,0 km/h
19.02.2019 03:19 8,2 C 5,5 C 0,0 C 30 % 64 % 1013,3 hPa 0,0 mm 2,1 km/h W-SW 248 1,8 C 5,5 C 6,8 km/h
19.02.2019 03:18 8,2 C 5,5 C 0,0 C 30 % 64 % 1013,4 hPa 0,0 mm 2,0 km/h SW 224 1,8 C 5,5 C 5,0 km/h
19.02.2019 03:17 8,2 C 5,5 C 0,0 C 30 % 64 % 1013,4 hPa 0,0 mm 3,9 km/h SW 219 1,8 C 5,5 C 3,9 km/h
19.02.2019 03:16 8,2 C 5,5 C 0,0 C 30 % 64 % 1013,3 hPa 0,0 mm 4,7 km/h W-SW 252 1,8 C 5,5 C 6,8 km/h
19.02.2019 03:15 8,2 C 5,5 C 0,0 C 30 % 64 % 1013,4 hPa 0,0 mm 4,7 km/h SW 227 1,8 C 5,5 C 8,6 km/h
19.02.2019 03:14 8,2 C 5,5 C 0,0 C 30 % 64 % 1013,3 hPa 0,0 mm 4,7 km/h W-SW 247 1,8 C 5,5 C 5,0 km/h
19.02.2019 03:13 8,2 C 5,5 C 0,0 C 30 % 64 % 1013,3 hPa 0,0 mm 4,3 km/h SW 234 1,8 C 5,5 C 6,8 km/h
19.02.2019 03:12 8,3 C 5,5 C 0,0 C 30 % 64 % 1013,3 hPa 0,0 mm 4,2 km/h SW 228 1,9 C 5,5 C 8,6 km/h
19.02.2019 03:11 8,3 C 5,5 C 0,0 C 30 % 64 % 1013,3 hPa 0,0 mm 4,8 km/h SW 220 1,9 C 5,5 C 8,6 km/h
19.02.2019 03:10 8,3 C 5,5 C 0,0 C 30 % 64 % 1013,3 hPa 0,0 mm 5,0 km/h W-SW 252 1,9 C 5,5 C 6,8 km/h
19.02.2019 03:09 8,3 C 5,5 C 0,0 C 30 % 64 % 1013,3 hPa 0,0 mm 5,2 km/h W-SW 252 1,9 C 5,5 C 10,1 km/h
19.02.2019 03:08 8,3 C 5,5 C 0,0 C 30 % 64 % 1013,4 hPa 0,0 mm 5,3 km/h SW 226 1,9 C 5,5 C 6,8 km/h
19.02.2019 03:07 8,3 C 5,5 C 0,0 C 30 % 64 % 1013,3 hPa 0,0 mm 4,7 km/h W-SW 245 1,9 C 5,5 C 6,8 km/h
19.02.2019 03:06 8,3 C 5,5 C 0,0 C 30 % 64 % 1013,3 hPa 0,0 mm 4,2 km/h SW 233 1,9 C 5,5 C 8,6 km/h
19.02.2019 03:05 8,3 C 5,5 C 0,0 C 30 % 64 % 1013,4 hPa 0,0 mm 4,7 km/h W-SW 238 1,9 C 5,5 C 8,6 km/h
19.02.2019 03:04 8,3 C 5,5 C 0,0 C 30 % 64 % 1013,4 hPa 0,0 mm 5,8 km/h W-SW 248 1,9 C 5,5 C 6,8 km/h
19.02.2019 03:03 8,3 C 5,5 C 0,0 C 30 % 64 % 1013,3 hPa 0,0 mm 5,3 km/h W-SW 240 1,9 C 5,5 C 10,1 km/h
19.02.2019 03:02 8,3 C 5,5 C 0,0 C 30 % 63 % 1013,4 hPa 0,0 mm 5,1 km/h W-SW 247 1,7 C 5,5 C 10,1 km/h
19.02.2019 03:01 8,4 C 5,6 C 0,0 C 30 % 63 % 1013,4 hPa 0,0 mm 5,5 km/h SW 228 1,8 C 5,6 C 8,6 km/h
19.02.2019 03:00 8,4 C 5,6 C 0,0 C 30 % 63 % 1013,4 hPa 0,0 mm 5,3 km/h W 262 1,8 C 5,6 C 8,6 km/h
19.02.2019 02:59 8,4 C 5,6 C 0,0 C 30 % 64 % 1013,4 hPa 0,0 mm 6,6 km/h W 262 2,0 C 5,4 C 8,6 km/h
19.02.2019 02:58 8,4 C 5,6 C 0,0 C 30 % 63 % 1013,4 hPa 0,0 mm 5,9 km/h W-SW 243 1,8 C 5,6 C 10,1 km/h
19.02.2019 02:57 8,4 C 5,6 C 0,0 C 30 % 63 % 1013,4 hPa 0,0 mm 4,3 km/h W 271 1,8 C 5,6 C 10,1 km/h
19.02.2019 02:56 8,4 C 5,6 C 0,0 C 30 % 63 % 1013,5 hPa 0,0 mm 5,0 km/h W 261 1,8 C 5,6 C 5,0 km/h
19.02.2019 02:55 8,4 C 5,6 C 0,0 C 30 % 63 % 1013,4 hPa 0,0 mm 6,8 km/h W-SW 240 1,8 C 5,3 C 6,8 km/h
19.02.2019 02:54 8,4 C 5,6 C 0,0 C 30 % 63 % 1013,4 hPa 0,0 mm 7,1 km/h W-SW 245 1,8 C 5,0 C 13,7 km/h
19.02.2019 02:53 8,4 C 5,6 C 0,0 C 30 % 63 % 1013,5 hPa 0,0 mm 7,2 km/h W-SW 250 1,8 C 4,9 C 15,5 km/h
19.02.2019 02:52 8,4 C 5,6 C 0,0 C 30 % 63 % 1013,4 hPa 0,0 mm 8,0 km/h W-SW 255 1,8 C 4,2 C 11,9 km/h
19.02.2019 02:51 8,4 C 5,6 C 0,0 C 30 % 63 % 1013,4 hPa 0,0 mm 7,9 km/h SW 217 1,8 C 4,3 C 11,9 km/h
19.02.2019 02:50 8,4 C 5,6 C 0,0 C 30 % 63 % 1013,4 hPa 0,0 mm 7,0 km/h W-SW 241 1,8 C 5,1 C 10,1 km/h
19.02.2019 02:49 8,4 C 5,6 C 0,0 C 30 % 63 % 1013,4 hPa 0,0 mm 5,5 km/h SW 235 1,8 C 5,6 C 10,1 km/h
19.02.2019 02:48 8,4 C 5,6 C 0,0 C 30 % 63 % 1013,5 hPa 0,0 mm 4,9 km/h S-SW 209 1,8 C 5,6 C 6,8 km/h
19.02.2019 02:47 8,4 C 5,6 C 0,0 C 30 % 63 % 1013,4 hPa 0,0 mm 5,2 km/h SW 226 1,8 C 5,6 C 8,6 km/h
19.02.2019 02:46 8,4 C 5,6 C 0,0 C 30 % 63 % 1013,4 hPa 0,0 mm 6,2 km/h S-SW 209 1,8 C 5,6 C 10,1 km/h
19.02.2019 02:45 8,4 C 5,6 C 0,0 C 30 % 63 % 1013,4 hPa 0,0 mm 6,8 km/h S-SW 203 1,8 C 5,3 C 8,6 km/h
19.02.2019 02:44 8,5 C 5,7 C 0,0 C 30 % 63 % 1013,5 hPa 0,0 mm 6,7 km/h W-SW 247 1,9 C 5,5 C 10,1 km/h
19.02.2019 02:43 8,5 C 5,7 C 0,0 C 30 % 63 % 1013,5 hPa 0,0 mm 5,7 km/h SW 234 1,9 C 5,7 C 13,7 km/h
19.02.2019 02:42 8,5 C 5,7 C 0,0 C 30 % 63 % 1013,5 hPa 0,0 mm 5,2 km/h W-SW 244 1,9 C 5,7 C 8,6 km/h
19.02.2019 02:41 8,5 C 5,7 C 0,0 C 30 % 63 % 1013,5 hPa 0,0 mm 5,1 km/h W-SW 254 1,9 C 5,7 C 8,6 km/h
19.02.2019 02:40 8,6 C 5,7 C 0,0 C 30 % 63 % 1013,5 hPa 0,0 mm 5,4 km/h W-SW 241 2,0 C 5,7 C 6,8 km/h
19.02.2019 02:39 8,6 C 5,7 C 0,0 C 30 % 63 % 1013,5 hPa 0,0 mm 6,6 km/h W 262 2,0 C 5,6 C 8,6 km/h
19.02.2019 02:38 8,6 C 5,7 C 0,0 C 30 % 63 % 1013,5 hPa 0,0 mm 7,6 km/h S-SW 212 2,0 C 4,7 C 10,1 km/h
19.02.2019 02:37 8,6 C 5,7 C 0,0 C 30 % 63 % 1013,5 hPa 0,0 mm 7,7 km/h W-SW 257 2,0 C 4,6 C 15,5 km/h
19.02.2019 02:36 8,6 C 5,7 C 0,0 C 30 % 63 % 1013,5 hPa 0,0 mm 7,9 km/h SW 224 2,0 C 4,4 C 10,1 km/h
19.02.2019 02:35 8,5 C 5,7 C 0,0 C 30 % 63 % 1013,5 hPa 0,0 mm 7,7 km/h W-SW 240 1,9 C 4,6 C 15,5 km/h
19.02.2019 02:34 8,5 C 5,7 C 0,0 C 30 % 63 % 1013,5 hPa 0,0 mm 6,7 km/h SW 234 1,9 C 5,5 C 11,9 km/h
19.02.2019 02:33 8,5 C 5,7 C 0,0 C 30 % 63 % 1013,5 hPa 0,0 mm 5,3 km/h W 271 1,9 C 5,7 C 11,9 km/h
19.02.2019 02:32 8,5 C 5,7 C 0,0 C 30 % 63 % 1013,5 hPa 0,0 mm 4,7 km/h W-SW 240 1,9 C 5,7 C 8,6 km/h
19.02.2019 02:31 8,6 C 5,7 C 0,0 C 30 % 63 % 1013,5 hPa 0,0 mm 5,3 km/h S-SW 210 2,0 C 5,7 C 6,8 km/h
19.02.2019 02:30 8,6 C 5,7 C 0,0 C 30 % 63 % 1013,4 hPa 0,0 mm 6,3 km/h SW 227 2,0 C 5,7 C 8,6 km/h
19.02.2019 02:29 8,6 C 5,7 C 0,0 C 30 % 62 % 1013,4 hPa 0,0 mm 6,1 km/h W-SW 255 1,7 C 5,7 C 11,9 km/h
19.02.2019 02:28 8,6 C 5,7 C 0,0 C 30 % 62 % 1013,5 hPa 0,0 mm 5,8 km/h SW 228 1,7 C 5,7 C 10,1 km/h
19.02.2019 02:27 8,7 C 5,8 C 0,0 C 30 % 62 % 1013,4 hPa 0,0 mm 6,3 km/h SW 234 1,8 C 5,8 C 10,1 km/h
19.02.2019 02:26 8,7 C 5,8 C 0,0 C 30 % 62 % 1013,6 hPa 0,0 mm 6,4 km/h W-SW 245 1,8 C 5,8 C 8,6 km/h
19.02.2019 02:25 8,7 C 5,8 C 0,0 C 30 % 62 % 1013,5 hPa 0,0 mm 6,1 km/h W-SW 250 1,8 C 5,8 C 11,9 km/h
19.02.2019 02:24 8,7 C 5,8 C 0,0 C 30 % 62 % 1013,6 hPa 0,0 mm 5,9 km/h SW 224 1,8 C 5,8 C 10,1 km/h
19.02.2019 02:23 8,8 C 5,9 C 0,0 C 30 % 62 % 1013,6 hPa 0,0 mm 5,8 km/h SW 233 1,9 C 5,9 C 10,1 km/h
19.02.2019 02:22 8,8 C 5,9 C 0,0 C 30 % 62 % 1013,5 hPa 0,0 mm 6,8 km/h W-SW 248 1,9 C 5,6 C 8,6 km/h
19.02.2019 02:21 8,8 C 5,9 C 0,0 C 30 % 62 % 1013,6 hPa 0,0 mm 7,1 km/h W-SW 244 1,9 C 5,3 C 8,6 km/h
19.02.2019 02:20 8,8 C 5,9 C 0,0 C 30 % 62 % 1013,6 hPa 0,0 mm 6,2 km/h W-SW 244 1,9 C 5,9 C 16,9 km/h
19.02.2019 02:19 8,8 C 5,9 C 0,0 C 30 % 62 % 1013,6 hPa 0,0 mm 5,3 km/h W-SW 243 1,9 C 5,9 C 8,6 km/h
19.02.2019 02:18 8,8 C 5,9 C 0,0 C 30 % 62 % 1013,5 hPa 0,0 mm 4,1 km/h SW 227 1,9 C 5,9 C 8,6 km/h
19.02.2019 02:17 8,8 C 5,9 C 0,0 C 30 % 62 % 1013,5 hPa 0,0 mm 6,4 km/h W 278 1,9 C 5,9 C 6,8 km/h
19.02.2019 02:16 8,8 C 5,9 C 0,0 C 30 % 62 % 1013,5 hPa 0,0 mm 7,4 km/h W 261 1,9 C 5,0 C 13,7 km/h
19.02.2019 02:15 8,8 C 5,9 C 0,0 C 30 % 61 % 1013,6 hPa 0,0 mm 6,2 km/h W 275 1,7 C 5,9 C 11,9 km/h
19.02.2019 02:14 8,9 C 5,9 C 0,0 C 30 % 61 % 1013,5 hPa 0,0 mm 5,6 km/h W-SW 255 1,8 C 5,9 C 6,8 km/h
19.02.2019 02:13 8,9 C 5,9 C 0,0 C 30 % 61 % 1013,6 hPa 0,0 mm 5,3 km/h W-NW 289 1,8 C 5,9 C 8,6 km/h
19.02.2019 02:12 9,0 C 6,0 C 0,0 C 30 % 61 % 1013,6 hPa 0,0 mm 5,8 km/h W-SW 243 1,9 C 6,0 C 6,8 km/h
19.02.2019 02:11 9,0 C 6,0 C 0,0 C 30 % 61 % 1013,5 hPa 0,0 mm 7,8 km/h W-SW 252 1,9 C 4,8 C 11,9 km/h
19.02.2019 02:10 9,0 C 6,0 C 0,0 C 30 % 61 % 1013,6 hPa 0,0 mm 8,7 km/h W-SW 238 1,9 C 4,1 C 13,7 km/h
19.02.2019 02:09 9,0 C 6,0 C 0,0 C 30 % 61 % 1013,5 hPa 0,0 mm 7,2 km/h W-SW 243 1,9 C 5,3 C 15,5 km/h
19.02.2019 02:08 9,0 C 6,0 C 0,0 C 30 % 61 % 1013,5 hPa 0,0 mm 8,3 km/h W 261 1,9 C 4,4 C 11,9 km/h
19.02.2019 02:07 9,0 C 6,0 C 0,0 C 30 % 61 % 1013,6 hPa 0,0 mm 8,6 km/h SW 230 1,9 C 4,2 C 16,9 km/h
19.02.2019 02:06 9,1 C 6,1 C 0,0 C 30 % 61 % 1013,6 hPa 0,0 mm 7,5 km/h W-SW 238 2,0 C 5,2 C 15,5 km/h
19.02.2019 02:05 9,1 C 6,1 C 0,0 C 30 % 61 % 1013,6 hPa 0,0 mm 7,0 km/h SW 234 2,0 C 5,6 C 15,5 km/h
19.02.2019 02:04 9,1 C 6,1 C 0,0 C 30 % 61 % 1013,6 hPa 0,0 mm 7,3 km/h W 259 2,0 C 5,3 C 7,3 km/h
19.02.2019 02:03 9,1 C 6,1 C 0,0 C 30 % 61 % 1013,5 hPa 0,0 mm 7,5 km/h W-SW 250 2,0 C 5,2 C 13,7 km/h
19.02.2019 02:02 9,1 C 6,1 C 0,0 C 30 % 61 % 1013,5 hPa 0,0 mm 6,6 km/h W-SW 241 2,0 C 6,0 C 11,9 km/h
19.02.2019 02:01 9,1 C 6,1 C 0,0 C 30 % 61 % 1013,6 hPa 0,0 mm 7,6 km/h S-SW 209 2,0 C 5,1 C 8,6 km/h
19.02.2019 02:00 9,1 C 6,1 C 0,0 C 30 % 61 % 1013,6 hPa 0,0 mm 9,6 km/h SW 234 2,0 C 3,6 C 11,9 km/h
19.02.2019 01:59 9,1 C 6,1 C 0,0 C 30 % 61 % 1013,6 hPa 0,0 mm 9,2 km/h SW 224 2,0 C 3,8 C 18,7 km/h
19.02.2019 01:58 9,0 C 6,0 C 0,0 C 30 % 61 % 1013,7 hPa 0,0 mm 8,0 km/h S-SW 204 1,9 C 4,7 C 15,5 km/h
19.02.2019 01:57 9,0 C 6,0 C 0,0 C 30 % 61 % 1013,6 hPa 0,0 mm 7,5 km/h SW 228 1,9 C 5,1 C 13,7 km/h
19.02.2019 01:56 9,0 C 6,0 C 0,0 C 30 % 61 % 1013,7 hPa 0,0 mm 6,7 km/h SW 230 1,9 C 5,8 C 11,9 km/h
19.02.2019 01:55 9,0 C 6,0 C 0,0 C 30 % 61 % 1013,6 hPa 0,0 mm 5,3 km/h W-SW 250 1,9 C 6,0 C 10,1 km/h
19.02.2019 01:54 9,1 C 6,1 C 0,0 C 30 % 61 % 1013,6 hPa 0,0 mm 6,1 km/h SW 219 2,0 C 6,1 C 8,6 km/h
19.02.2019 01:53 9,1 C 6,1 C 0,0 C 30 % 61 % 1013,6 hPa 0,0 mm 7,4 km/h W-SW 243 2,0 C 5,3 C 8,6 km/h
19.02.2019 01:52 9,1 C 6,1 C 0,0 C 30 % 61 % 1013,6 hPa 0,0 mm 7,9 km/h W-SW 252 2,0 C 4,8 C 13,7 km/h
19.02.2019 01:51 9,1 C 6,1 C 0,0 C 30 % 61 % 1013,6 hPa 0,0 mm 6,1 km/h W-SW 254 2,0 C 6,1 C 11,9 km/h
19.02.2019 01:50 9,1 C 6,1 C 0,0 C 30 % 61 % 1013,5 hPa 0,0 mm 4,6 km/h W 259 2,0 C 6,1 C 10,1 km/h
19.02.2019 01:49 9,1 C 6,1 C 0,0 C 30 % 61 % 1013,6 hPa 0,0 mm 5,1 km/h SW 233 2,0 C 6,1 C 5,1 km/h
19.02.2019 01:48 9,1 C 6,1 C 0,0 C 30 % 60 % 1013,7 hPa 0,0 mm 6,4 km/h W-SW 255 1,8 C 6,1 C 13,7 km/h
19.02.2019 01:47 9,1 C 6,1 C 0,0 C 30 % 60 % 1013,5 hPa 0,0 mm 7,6 km/h W-SW 238 1,8 C 5,1 C 10,1 km/h
19.02.2019 01:46 9,2 C 6,1 C 0,0 C 30 % 60 % 1013,5 hPa 0,0 mm 6,4 km/h W-SW 240 1,8 C 6,1 C 15,5 km/h
19.02.2019 01:45 9,2 C 6,1 C 0,0 C 30 % 60 % 1013,5 hPa 0,0 mm 5,8 km/h W-SW 244 1,8 C 6,1 C 10,1 km/h
19.02.2019 01:44 9,2 C 6,1 C 0,0 C 30 % 60 % 1013,6 hPa 0,0 mm 6,3 km/h SW 224 1,8 C 6,1 C 10,1 km/h
19.02.2019 01:43 9,2 C 6,1 C 0,0 C 30 % 60 % 1013,6 hPa 0,0 mm 5,7 km/h W-SW 237 1,8 C 6,1 C 11,9 km/h
19.02.2019 01:42 9,2 C 6,1 C 0,0 C 30 % 60 % 1013,6 hPa 0,0 mm 6,4 km/h SW 231 1,8 C 6,1 C 8,6 km/h
19.02.2019 01:41 9,2 C 6,1 C 0,0 C 30 % 60 % 1013,7 hPa 0,0 mm 6,7 km/h SW 234 1,8 C 5,9 C 11,9 km/h
19.02.2019 01:40 9,3 C 6,2 C 0,0 C 30 % 60 % 1013,5 hPa 0,0 mm 7,1 km/h W-SW 243 1,9 C 5,6 C 10,1 km/h
19.02.2019 01:39 9,3 C 6,2 C 0,0 C 30 % 60 % 1013,6 hPa 0,0 mm 7,7 km/h W-SW 245 1,9 C 5,1 C 10,1 km/h
19.02.2019 01:38 9,3 C 6,2 C 0,0 C 30 % 60 % 1013,6 hPa 0,0 mm 9,1 km/h W-SW 245 1,9 C 4,0 C 11,9 km/h
19.02.2019 01:37 9,3 C 6,2 C 0,0 C 30 % 60 % 1013,6 hPa 0,0 mm 10,0 km/h W-NW 288 1,9 C 3,4 C 15,5 km/h
19.02.2019 01:36 9,3 C 6,2 C 0,0 C 30 % 60 % 1013,6 hPa 0,0 mm 8,7 km/h W-SW 237 1,9 C 4,3 C 16,9 km/h
19.02.2019 01:35 9,3 C 6,2 C 0,0 C 30 % 60 % 1013,6 hPa 0,0 mm 8,4 km/h W 262 1,9 C 4,6 C 15,5 km/h
19.02.2019 01:34 9,3 C 6,2 C 0,0 C 30 % 60 % 1013,6 hPa 0,0 mm 8,8 km/h SW 230 1,9 C 4,2 C 11,9 km/h
19.02.2019 01:33 9,3 C 6,2 C 0,0 C 30 % 60 % 1013,6 hPa 0,0 mm 8,3 km/h W-SW 241 1,9 C 4,6 C 15,5 km/h
19.02.2019 01:32 9,3 C 6,2 C 0,0 C 30 % 60 % 1013,7 hPa 0,0 mm 6,6 km/h W-SW 244 1,9 C 6,1 C 18,7 km/h
19.02.2019 01:31 9,3 C 6,2 C 0,0 C 30 % 60 % 1013,6 hPa 0,0 mm 6,4 km/h W-SW 241 1,9 C 6,2 C 11,9 km/h
19.02.2019 01:30 9,3 C 6,2 C 0,0 C 30 % 60 % 1013,6 hPa 0,0 mm 6,6 km/h W-SW 238 1,9 C 6,1 C 10,1 km/h
19.02.2019 01:29 9,3 C 6,2 C 0,0 C 30 % 59 % 1013,6 hPa 0,0 mm 6,5 km/h W-SW 258 1,7 C 6,1 C 11,9 km/h
19.02.2019 01:28 9,4 C 6,3 C 0,0 C 30 % 59 % 1013,6 hPa 0,0 mm 8,1 km/h SW 234 1,8 C 4,9 C 10,1 km/h
19.02.2019 01:27 9,4 C 6,3 C 0,0 C 30 % 59 % 1013,6 hPa 0,0 mm 8,8 km/h W 261 1,8 C 4,4 C 13,7 km/h
19.02.2019 01:26 9,4 C 6,3 C 0,0 C 30 % 59 % 1013,7 hPa 0,0 mm 7,8 km/h SW 220 1,8 C 5,1 C 13,7 km/h
19.02.2019 01:25 9,4 C 6,3 C 0,0 C 30 % 59 % 1013,6 hPa 0,0 mm 7,8 km/h W 272 1,8 C 5,1 C 10,1 km/h
19.02.2019 01:24 9,4 C 6,3 C 0,0 C 30 % 59 % 1013,7 hPa 0,0 mm 9,4 km/h SW 226 1,8 C 3,9 C 10,1 km/h
19.02.2019 01:23 9,4 C 6,3 C 0,0 C 30 % 59 % 1013,6 hPa 0,0 mm 9,5 km/h S-SW 213 1,8 C 3,9 C 13,7 km/h
19.02.2019 01:22 9,4 C 6,3 C 0,0 C 30 % 59 % 1013,6 hPa 0,0 mm 9,1 km/h W-SW 244 1,8 C 4,1 C 13,7 km/h
19.02.2019 01:21 9,4 C 6,3 C 0,0 C 30 % 59 % 1013,7 hPa 0,0 mm 11,1 km/h W-SW 250 1,8 C 2,8 C 11,1 km/h
19.02.2019 01:20 9,4 C 6,3 C 0,0 C 30 % 59 % 1013,7 hPa 0,0 mm 10,4 km/h SW 234 1,8 C 3,2 C 18,7 km/h
19.02.2019 01:19 9,4 C 6,3 C 0,0 C 30 % 59 % 1013,6 hPa 0,0 mm 8,8 km/h W 264 1,8 C 4,4 C 18,7 km/h
19.02.2019 01:18 9,4 C 6,3 C 0,0 C 30 % 59 % 1013,6 hPa 0,0 mm 9,8 km/h W-SW 243 1,8 C 3,6 C 18,7 km/h
19.02.2019 01:17 9,4 C 6,3 C 0,0 C 30 % 60 % 1013,6 hPa 0,0 mm 9,9 km/h W-SW 248 2,0 C 3,6 C 15,5 km/h
19.02.2019 01:16 9,3 C 6,2 C 0,0 C 30 % 60 % 1013,7 hPa 0,0 mm 9,2 km/h S-SW 210 1,9 C 4,0 C 20,5 km/h
19.02.2019 01:15 9,3 C 6,2 C 0,0 C 30 % 60 % 1013,6 hPa 0,0 mm 10,0 km/h W-SW 248 1,9 C 3,4 C 11,9 km/h
19.02.2019 01:14 9,2 C 6,1 C 0,0 C 30 % 60 % 1013,6 hPa 0,0 mm 9,6 km/h W-SW 247 1,8 C 3,6 C 13,7 km/h
19.02.2019 01:13 9,2 C 6,1 C 0,0 C 30 % 60 % 1013,7 hPa 0,0 mm 8,7 km/h SW 226 1,8 C 4,2 C 15,5 km/h
19.02.2019 01:12 9,2 C 6,1 C 0,0 C 30 % 60 % 1013,6 hPa 0,0 mm 9,1 km/h S-SW 209 1,8 C 3,9 C 11,9 km/h
19.02.2019 01:11 9,1 C 6,1 C 0,0 C 30 % 60 % 1013,6 hPa 0,0 mm 8,9 km/h W-SW 245 1,8 C 4,1 C 11,9 km/h
19.02.2019 01:10 9,1 C 6,1 C 0,0 C 30 % 60 % 1013,6 hPa 0,0 mm 7,9 km/h W-SW 245 1,8 C 4,8 C 15,5 km/h
19.02.2019 01:09 9,1 C 6,1 C 0,0 C 30 % 60 % 1013,7 hPa 0,0 mm 6,6 km/h S-SW 206 1,8 C 6,0 C 11,9 km/h
19.02.2019 01:08 9,1 C 6,1 C 0,0 C 30 % 60 % 1013,7 hPa 0,0 mm 6,9 km/h SW 227 1,8 C 5,7 C 10,1 km/h
19.02.2019 01:07 9,1 C 6,1 C 0,0 C 30 % 60 % 1013,7 hPa 0,0 mm 7,6 km/h W-SW 257 1,8 C 5,1 C 10,1 km/h
19.02.2019 01:06 9,1 C 6,1 C 0,0 C 30 % 60 % 1013,7 hPa 0,0 mm 7,6 km/h W-SW 258 1,8 C 5,1 C 10,1 km/h
19.02.2019 01:05 9,1 C 6,1 C 0,0 C 30 % 61 % 1013,7 hPa 0,0 mm 8,4 km/h W-SW 241 2,0 C 4,4 C 13,7 km/h
19.02.2019 01:04 8,9 C 5,9 C 0,0 C 30 % 61 % 1013,7 hPa 0,0 mm 9,0 km/h W-SW 251 1,8 C 3,8 C 16,9 km/h
19.02.2019 01:03 8,9 C 5,9 C 0,0 C 30 % 61 % 1013,7 hPa 0,0 mm 8,2 km/h W 275 1,8 C 4,4 C 15,5 km/h
19.02.2019 01:02 8,9 C 5,9 C 0,0 C 30 % 61 % 1013,7 hPa 0,0 mm 7,3 km/h SW 216 1,8 C 5,1 C 11,9 km/h
19.02.2019 01:01 8,9 C 5,9 C 0,0 C 30 % 61 % 1013,7 hPa 0,0 mm 7,6 km/h SW 220 1,8 C 4,9 C 13,7 km/h
19.02.2019 01:00 8,8 C 5,9 C 0,0 C 30 % 61 % 1013,7 hPa 0,0 mm 7,4 km/h W-SW 247 1,7 C 5,0 C 10,1 km/h
19.02.2019 00:59 8,8 C 5,9 C 0,0 C 30 % 61 % 1013,8 hPa 0,0 mm 6,7 km/h SW 223 1,7 C 5,7 C 10,1 km/h
19.02.2019 00:58 8,7 C 5,8 C 0,0 C 30 % 62 % 1013,8 hPa 0,0 mm 7,2 km/h W 262 1,8 C 5,1 C 8,6 km/h
19.02.2019 00:57 8,7 C 5,8 C 0,0 C 30 % 62 % 1013,8 hPa 0,0 mm 8,1 km/h W 265 1,8 C 4,4 C 10,1 km/h
19.02.2019 00:56 8,6 C 5,7 C 0,0 C 30 % 63 % 1013,8 hPa 0,0 mm 7,8 km/h W-SW 244 2,0 C 4,5 C 13,7 km/h
19.02.2019 00:55 8,4 C 5,6 C 0,0 C 30 % 63 % 1013,8 hPa 0,0 mm 7,7 km/h W-SW 250 1,8 C 4,5 C 11,9 km/h
19.02.2019 00:54 8,3 C 5,5 C 0,0 C 30 % 63 % 1013,8 hPa 0,0 mm 7,7 km/h W 265 1,7 C 4,4 C 10,1 km/h
19.02.2019 00:53 8,2 C 5,5 C 0,0 C 30 % 63 % 1013,8 hPa 0,0 mm 6,2 km/h W-SW 252 1,6 C 5,5 C 20,5 km/h
19.02.2019 00:52 8,2 C 5,5 C 0,0 C 30 % 64 % 1013,8 hPa 0,0 mm 5,9 km/h S-SW 195 1,8 C 5,5 C 8,6 km/h
19.02.2019 00:51 8,1 C 5,4 C 0,0 C 30 % 64 % 1013,8 hPa 0,0 mm 6,5 km/h W-SW 245 1,7 C 5,3 C 11,9 km/h
19.02.2019 00:50 8,1 C 5,4 C 0,0 C 30 % 64 % 1013,9 hPa 0,0 mm 5,4 km/h W 275 1,7 C 5,4 C 8,6 km/h
19.02.2019 00:49 8,0 C 5,3 C 0,0 C 30 % 64 % 1013,9 hPa 0,0 mm 4,7 km/h W-SW 251 1,6 C 5,3 C 8,6 km/h
19.02.2019 00:48 8,0 C 5,3 C 0,0 C 30 % 63 % 1013,8 hPa 0,0 mm 5,5 km/h SW 233 1,4 C 5,3 C 6,8 km/h
19.02.2019 00:47 8,1 C 5,4 C 0,0 C 30 % 63 % 1013,9 hPa 0,0 mm 4,8 km/h W-NW 290 1,5 C 5,4 C 11,9 km/h
19.02.2019 00:46 8,1 C 5,4 C 0,0 C 30 % 63 % 1013,9 hPa 0,0 mm 3,5 km/h SW 233 1,5 C 5,4 C 10,1 km/h
19.02.2019 00:45 8,2 C 5,5 C 0,0 C 30 % 62 % 1013,9 hPa 0,0 mm 4,4 km/h SW 235 1,4 C 5,5 C 5,0 km/h
19.02.2019 00:44 8,3 C 5,5 C 0,0 C 30 % 62 % 1013,9 hPa 0,0 mm 5,2 km/h W-SW 244 1,5 C 5,5 C 10,1 km/h
19.02.2019 00:43 8,4 C 5,6 C 0,0 C 30 % 62 % 1013,9 hPa 0,0 mm 5,5 km/h SW 216 1,6 C 5,6 C 8,6 km/h
19.02.2019 00:42 8,4 C 5,6 C 0,0 C 30 % 61 % 1013,9 hPa 0,0 mm 5,5 km/h SW 219 1,3 C 5,6 C 10,1 km/h
19.02.2019 00:41 8,6 C 5,7 C 0,0 C 30 % 61 % 1013,8 hPa 0,0 mm 4,7 km/h S-SW 210 1,5 C 5,7 C 8,6 km/h
19.02.2019 00:40 8,6 C 5,7 C 0,0 C 30 % 61 % 1013,9 hPa 0,0 mm 5,1 km/h SW 226 1,5 C 5,7 C 5,1 km/h
19.02.2019 00:39 8,6 C 5,7 C 0,0 C 30 % 61 % 1013,8 hPa 0,0 mm 5,3 km/h W 264 1,5 C 5,7 C 10,1 km/h
19.02.2019 00:38 8,6 C 5,7 C 0,0 C 30 % 61 % 1013,8 hPa 0,0 mm 4,0 km/h SW 226 1,5 C 5,7 C 10,1 km/h
19.02.2019 00:37 8,7 C 5,8 C 0,0 C 30 % 61 % 1013,8 hPa 0,0 mm 2,9 km/h SW 234 1,6 C 5,8 C 5,0 km/h
19.02.2019 00:36 8,7 C 5,8 C 0,0 C 30 % 61 % 1013,8 hPa 0,0 mm 2,7 km/h S 188 1,6 C 5,8 C 6,8 km/h
19.02.2019 00:35 8,8 C 5,9 C 0,0 C 30 % 61 % 1013,9 hPa 0,0 mm 3,4 km/h S 175 1,7 C 5,9 C 5,0 km/h
19.02.2019 00:34 8,8 C 5,9 C 0,0 C 30 % 60 % 1013,9 hPa 0,0 mm 3,1 km/h W-SW 257 1,5 C 5,9 C 5,0 km/h
19.02.2019 00:33 8,8 C 5,9 C 0,0 C 30 % 60 % 1013,9 hPa 0,0 mm 3,1 km/h SW 223 1,5 C 5,9 C 6,8 km/h
19.02.2019 00:32 8,8 C 5,9 C 0,0 C 30 % 61 % 1013,8 hPa 0,0 mm 5,3 km/h SW 219 1,7 C 5,9 C 5,3 km/h
19.02.2019 00:31 8,8 C 5,9 C 0,0 C 30 % 61 % 1013,9 hPa 0,0 mm 5,8 km/h W-SW 247 1,7 C 5,9 C 15,5 km/h
19.02.2019 00:30 8,7 C 5,8 C 0,0 C 30 % 61 % 1013,9 hPa 0,0 mm 4,4 km/h W-SW 254 1,6 C 5,8 C 8,6 km/h
19.02.2019 00:29 8,6 C 5,7 C 0,0 C 30 % 61 % 1013,9 hPa 0,0 mm 4,7 km/h S 173 1,5 C 5,7 C 8,6 km/h
19.02.2019 00:28 8,6 C 5,7 C 0,0 C 30 % 62 % 1013,8 hPa 0,0 mm 4,5 km/h SW 224 1,7 C 5,7 C 6,8 km/h
19.02.2019 00:27 8,4 C 5,6 C 0,0 C 30 % 63 % 1013,9 hPa 0,0 mm 5,0 km/h SW 235 1,8 C 5,6 C 10,1 km/h
19.02.2019 00:26 8,2 C 5,5 C 0,0 C 30 % 64 % 1013,9 hPa 0,0 mm 4,8 km/h W-SW 244 1,8 C 5,5 C 8,6 km/h
19.02.2019 00:25 8,1 C 5,4 C 0,0 C 30 % 64 % 1013,9 hPa 0,0 mm 4,6 km/h S-SW 210 1,7 C 5,4 C 11,9 km/h
19.02.2019 00:24 7,8 C 5,2 C 0,0 C 30 % 65 % 1013,9 hPa 0,0 mm 5,0 km/h S-SW 206 1,6 C 5,2 C 6,8 km/h
19.02.2019 00:23 7,7 C 5,1 C 0,0 C 30 % 65 % 1013,9 hPa 0,0 mm 3,9 km/h W 265 1,5 C 5,1 C 10,1 km/h
19.02.2019 00:22 7,6 C 5,1 C 0,0 C 30 % 65 % 1013,8 hPa 0,0 mm 2,6 km/h W-SW 248 1,5 C 5,1 C 6,8 km/h
19.02.2019 00:21 7,6 C 5,1 C 0,0 C 30 % 65 % 1013,8 hPa 0,0 mm 3,0 km/h SO 145 1,5 C 5,1 C 3,2 km/h
19.02.2019 00:20 7,5 C 5,0 C 0,0 C 30 % 65 % 1013,8 hPa 0,0 mm 3,7 km/h W 268 1,4 C 5,0 C 5,0 km/h
19.02.2019 00:19 7,4 C 4,9 C 0,0 C 30 % 65 % 1013,8 hPa 0,0 mm 3,9 km/h SW 228 1,3 C 4,9 C 6,8 km/h
19.02.2019 00:18 7,4 C 4,9 C 0,0 C 30 % 65 % 1013,8 hPa 0,0 mm 4,3 km/h SW 235 1,3 C 4,9 C 6,8 km/h
19.02.2019 00:17 7,4 C 4,9 C 0,0 C 30 % 64 % 1013,8 hPa 0,0 mm 4,4 km/h W 262 1,0 C 4,9 C 10,1 km/h
19.02.2019 00:16 7,5 C 5,0 C 0,0 C 30 % 64 % 1013,8 hPa 0,0 mm 3,3 km/h SW 226 1,1 C 5,0 C 8,6 km/h
19.02.2019 00:15 7,6 C 5,1 C 0,0 C 30 % 64 % 1013,8 hPa 0,0 mm 2,9 km/h SW 216 1,2 C 5,1 C 6,8 km/h
19.02.2019 00:14 7,7 C 5,1 C 0,0 C 30 % 65 % 1013,8 hPa 0,0 mm 3,8 km/h W-SW 238 1,5 C 5,1 C 5,0 km/h
19.02.2019 00:13 7,6 C 5,1 C 0,0 C 30 % 65 % 1013,8 hPa 0,0 mm 4,4 km/h SW 214 1,5 C 5,1 C 8,6 km/h
19.02.2019 00:12 7,5 C 5,0 C 0,0 C 30 % 65 % 1013,8 hPa 0,0 mm 3,6 km/h S-SW 206 1,4 C 5,0 C 10,1 km/h
19.02.2019 00:11 7,4 C 4,9 C 0,0 C 30 % 66 % 1013,9 hPa 0,0 mm 2,2 km/h SW 216 1,5 C 4,9 C 6,8 km/h
19.02.2019 00:10 7,4 C 4,9 C 0,0 C 30 % 66 % 1013,9 hPa 0,0 mm 1,8 km/h S-SW 203 1,5 C 4,9 C 3,2 km/h
19.02.2019 00:09 7,3 C 4,9 C 0,0 C 30 % 66 % 1014,0 hPa 0,0 mm 2,0 km/h S-SW 200 1,4 C 4,9 C 3,2 km/h
19.02.2019 00:08 7,3 C 4,9 C 0,0 C 30 % 66 % 1014,0 hPa 0,0 mm 1,4 km/h SW 231 1,4 C 4,9 C 3,2 km/h
19.02.2019 00:07 7,3 C 4,9 C 0,0 C 30 % 66 % 1014,1 hPa 0,0 mm 0,2 km/h SW 228 1,4 C 4,9 C 3,2 km/h
19.02.2019 00:06 7,4 C 4,9 C 0,0 C 30 % 65 % 1014,1 hPa 0,0 mm 0,0 km/h W-SW 237 1,3 C 4,9 C 0,0 km/h
19.02.2019 00:05 7,4 C 4,9 C 0,0 C 30 % 65 % 1014,1 hPa 0,0 mm 0,0 km/h W-SW 237 1,3 C 4,9 C 1,8 km/h
19.02.2019 00:04 7,5 C 5,0 C 0,0 C 30 % 65 % 1014,1 hPa 0,0 mm 0,0 km/h W-SW 237 1,4 C 5,0 C 1,8 km/h
19.02.2019 00:03 7,6 C 5,1 C 0,0 C 30 % 65 % 1014,0 hPa 0,0 mm 0,0 km/h W-SW 237 1,5 C 5,1 C 0,0 km/h
19.02.2019 00:02 7,6 C 5,1 C 0,0 C 30 % 64 % 1014,1 hPa 0,0 mm 0,3 km/h W-SW 237 1,2 C 5,1 C 0,3 km/h
19.02.2019 00:01 7,7 C 5,1 C 0,0 C 30 % 64 % 1014,0 hPa 0,0 mm 0,4 km/h W-SW 237 1,3 C 5,1 C 1,8 km/h
19.02.2019 00:00 7,7 C 5,1 C 0,0 C 30 % 64 % 1014,1 hPa 0,0 mm 0,1 km/h W-SW 240 1,3 C 5,1 C 1,8 km/h
18.02.2019 23:59 7,8 C 5,2 C 0,0 C 30 % 64 % 1014,0 hPa 0,0 mm 0,0 km/h SO 124 1,4 C 5,2 C 1,8 km/h
18.02.2019 23:58 7,9 C 5,3 C 0,0 C 30 % 63 % 1014,0 hPa 0,0 mm 0,0 km/h W-SW 245 1,3 C 5,3 C 0,0 km/h
18.02.2019 23:57 8,0 C 5,3 C 0,0 C 30 % 63 % 1014,0 hPa 0,0 mm 0,0 km/h SW 233 1,4 C 5,3 C 0,0 km/h
18.02.2019 23:56 8,1 C 5,4 C 0,0 C 30 % 63 % 1014,0 hPa 0,0 mm 0,0 km/h SW 233 1,5 C 5,4 C 0,0 km/h
18.02.2019 23:55 8,2 C 5,5 C 0,0 C 30 % 63 % 1014,0 hPa 0,0 mm 0,0 km/h SW 233 1,6 C 5,5 C 0,0 km/h
18.02.2019 23:54 8,2 C 5,5 C 0,0 C 30 % 63 % 1014,1 hPa 0,0 mm 0,0 km/h SW 233 1,6 C 5,5 C 0,0 km/h
18.02.2019 23:53 8,2 C 5,5 C 0,0 C 30 % 63 % 1014,1 hPa 0,0 mm 0,0 km/h SW 233 1,6 C 5,5 C 0,0 km/h
18.02.2019 23:52 8,2 C 5,5 C 0,0 C 30 % 63 % 1014,1 hPa 0,0 mm 0,7 km/h SW 233 1,6 C 5,5 C 1,8 km/h
18.02.2019 23:51 8,2 C 5,5 C 0,0 C 30 % 64 % 1014,1 hPa 0,0 mm 1,1 km/h SW 233 1,8 C 5,5 C 3,2 km/h
18.02.2019 23:50 8,1 C 5,4 C 0,0 C 30 % 64 % 1014,2 hPa 0,0 mm 0,3 km/h W-SW 237 1,7 C 5,4 C 3,2 km/h
18.02.2019 23:49 8,1 C 5,4 C 0,0 C 30 % 64 % 1014,1 hPa 0,0 mm 0,1 km/h SW 227 1,7 C 5,4 C 1,8 km/h
18.02.2019 23:48 8,0 C 5,3 C 0,0 C 30 % 64 % 1014,2 hPa 0,0 mm 0,0 km/h SW 230 1,6 C 5,3 C 1,8 km/h
18.02.2019 23:47 7,9 C 5,3 C 0,0 C 30 % 65 % 1014,1 hPa 0,0 mm 0,0 km/h SW 231 1,7 C 5,3 C 0,0 km/h
18.02.2019 23:46 7,8 C 5,2 C 0,0 C 30 % 65 % 1014,2 hPa 0,0 mm 0,0 km/h W-SW 238 1,6 C 5,2 C 0,0 km/h
18.02.2019 23:45 7,7 C 5,1 C 0,0 C 30 % 65 % 1014,2 hPa 0,0 mm 0,0 km/h S-SW 203 1,5 C 5,1 C 0,0 km/h
18.02.2019 23:44 7,7 C 5,1 C 0,0 C 30 % 65 % 1014,2 hPa 0,0 mm 0,0 km/h W-SW 244 1,5 C 5,1 C 0,0 km/h
18.02.2019 23:43 7,6 C 5,1 C 0,0 C 30 % 66 % 1014,2 hPa 0,0 mm 0,0 km/h W-SW 244 1,7 C 5,1 C 0,0 km/h
18.02.2019 23:42 7,6 C 5,1 C 0,0 C 30 % 65 % 1014,3 hPa 0,0 mm 0,0 km/h W-SW 244 1,5 C 5,1 C 0,0 km/h
18.02.2019 23:41 7,6 C 5,1 C 0,0 C 30 % 65 % 1014,2 hPa 0,0 mm 0,0 km/h W-SW 244 1,5 C 5,1 C 0,0 km/h
18.02.2019 23:40 7,7 C 5,1 C 0,0 C 30 % 65 % 1014,3 hPa 0,0 mm 0,0 km/h W-SW 244 1,5 C 5,1 C 0,0 km/h
18.02.2019 23:39 7,7 C 5,1 C 0,0 C 30 % 64 % 1014,2 hPa 0,0 mm 0,0 km/h W-SW 244 1,3 C 5,1 C 0,0 km/h
18.02.2019 23:38 7,8 C 5,2 C 0,0 C 30 % 64 % 1014,2 hPa 0,0 mm 0,0 km/h W-SW 244 1,4 C 5,2 C 0,0 km/h
18.02.2019 23:37 7,9 C 5,3 C 0,0 C 30 % 64 % 1014,2 hPa 0,0 mm 0,0 km/h W-SW 244 1,5 C 5,3 C 0,0 km/h
18.02.2019 23:36 8,0 C 5,3 C 0,0 C 30 % 64 % 1014,2 hPa 0,0 mm 0,0 km/h W-SW 244 1,6 C 5,3 C 0,0 km/h
18.02.2019 23:35 8,1 C 5,4 C 0,0 C 30 % 64 % 1014,3 hPa 0,0 mm 0,0 km/h W-SW 244 1,7 C 5,4 C 0,0 km/h
18.02.2019 23:34 8,1 C 5,4 C 0,0 C 30 % 64 % 1014,2 hPa 0,0 mm 0,0 km/h W-SW 244 1,7 C 5,4 C 0,0 km/h
18.02.2019 23:33 8,2 C 5,5 C 0,0 C 30 % 64 % 1014,2 hPa 0,0 mm 0,0 km/h W-SW 244 1,8 C 5,5 C 0,0 km/h
18.02.2019 23:32 8,2 C 5,5 C 0,0 C 30 % 64 % 1014,2 hPa 0,0 mm 0,0 km/h W-SW 244 1,8 C 5,5 C 0,0 km/h
18.02.2019 23:31 8,2 C 5,5 C 0,0 C 30 % 64 % 1014,2 hPa 0,0 mm 0,0 km/h W-SW 244 1,8 C 5,5 C 0,0 km/h
18.02.2019 23:30 8,2 C 5,5 C 0,0 C 30 % 64 % 1014,3 hPa 0,0 mm 0,3 km/h W-SW 248 1,8 C 5,5 C 0,3 km/h
18.02.2019 23:29 8,2 C 5,5 C 0,0 C 30 % 64 % 1014,3 hPa 0,0 mm 1,0 km/h SW 220 1,8 C 5,5 C 1,0 km/h
18.02.2019 23:28 8,1 C 5,4 C 0,0 C 30 % 65 % 1014,3 hPa 0,0 mm 2,1 km/h W 262 1,9 C 5,4 C 3,2 km/h
18.02.2019 23:27 8,0 C 5,3 C 0,0 C 30 % 65 % 1014,3 hPa 0,0 mm 2,0 km/h W-SW 238 1,8 C 5,3 C 5,0 km/h
18.02.2019 23:26 7,9 C 5,3 C 0,0 C 30 % 65 % 1014,3 hPa 0,0 mm 0,9 km/h SW 223 1,7 C 5,3 C 5,0 km/h
18.02.2019 23:25 7,9 C 5,3 C 0,0 C 30 % 66 % 1014,3 hPa 0,0 mm 0,4 km/h S 188 1,9 C 5,3 C 1,8 km/h
18.02.2019 23:24 7,8 C 5,2 C 0,0 C 30 % 66 % 1014,3 hPa 0,0 mm 0,4 km/h SW 233 1,9 C 5,2 C 1,8 km/h
18.02.2019 23:23 7,7 C 5,1 C 0,0 C 30 % 67 % 1014,4 hPa 0,0 mm 1,3 km/h W-SW 245 2,0 C 5,1 C 1,8 km/h
18.02.2019 23:22 7,6 C 5,1 C 0,0 C 30 % 67 % 1014,4 hPa 0,0 mm 1,3 km/h W-SW 248 1,9 C 5,1 C 3,2 km/h
18.02.2019 23:21 7,5 C 5,0 C 0,0 C 30 % 67 % 1014,4 hPa 0,0 mm 1,2 km/h W 265 1,8 C 5,0 C 5,0 km/h
18.02.2019 23:20 7,4 C 4,9 C 0,0 C 30 % 68 % 1014,4 hPa 0,0 mm 1,7 km/h SW 231 1,9 C 4,9 C 1,8 km/h
18.02.2019 23:19 7,3 C 4,9 C 0,0 C 30 % 68 % 1014,5 hPa 0,0 mm 2,1 km/h W 271 1,8 C 4,9 C 2,1 km/h
18.02.2019 23:18 7,2 C 4,8 C 0,0 C 30 % 69 % 1014,5 hPa 0,0 mm 2,5 km/h W 265 1,9 C 4,8 C 3,2 km/h
18.02.2019 23:17 7,0 C 4,7 C 0,0 C 30 % 70 % 1014,4 hPa 0,0 mm 2,8 km/h W 274 1,9 C 4,7 C 3,2 km/h
18.02.2019 23:16 6,8 C 4,5 C 0,0 C 30 % 71 % 1014,5 hPa 0,0 mm 2,9 km/h W-SW 237 1,9 C 4,5 C 5,0 km/h
18.02.2019 23:15 6,7 C 4,5 C 0,0 C 30 % 71 % 1014,4 hPa 0,0 mm 3,1 km/h SW 230 1,8 C 4,5 C 6,8 km/h
18.02.2019 23:14 6,5 C 4,3 C 0,0 C 30 % 73 % 1014,4 hPa 0,0 mm 3,5 km/h W-SW 237 2,0 C 4,3 C 3,5 km/h
18.02.2019 23:13 6,2 C 4,1 C 0,0 C 30 % 74 % 1014,3 hPa 0,0 mm 2,5 km/h W-SW 252 1,9 C 4,1 C 6,8 km/h
18.02.2019 23:12 6,0 C 4,0 C 0,0 C 30 % 74 % 1014,3 hPa 0,0 mm 0,9 km/h W-SW 238 1,7 C 4,0 C 8,6 km/h
18.02.2019 23:11 5,9 C 3,9 C 0,0 C 30 % 74 % 1014,3 hPa 0,0 mm 0,4 km/h SW 216 1,6 C 3,9 C 3,2 km/h
18.02.2019 23:10 5,8 C 3,9 C 0,0 C 30 % 74 % 1014,3 hPa 0,0 mm 0,2 km/h W-SW 255 1,5 C 3,9 C 3,2 km/h
18.02.2019 23:09 5,8 C 3,9 C 0,0 C 30 % 74 % 1014,2 hPa 0,0 mm 0,0 km/h SW 227 1,5 C 3,9 C 1,8 km/h
18.02.2019 23:08 5,8 C 3,9 C 0,0 C 30 % 75 % 1014,3 hPa 0,0 mm 0,0 km/h O-NO 76 1,7 C 3,9 C 0,0 km/h
18.02.2019 23:07 5,7 C 3,8 C 0,0 C 30 % 75 % 1014,3 hPa 0,0 mm 0,2 km/h SW 226 1,6 C 3,8 C 1,8 km/h
18.02.2019 23:06 5,7 C 3,8 C 0,0 C 30 % 75 % 1014,2 hPa 0,0 mm 0,4 km/h W-SW 240 1,6 C 3,8 C 0,4 km/h
18.02.2019 23:05 5,6 C 3,7 C 0,0 C 30 % 75 % 1014,3 hPa 0,0 mm 0,2 km/h S 188 1,5 C 3,7 C 1,8 km/h
18.02.2019 23:04 5,6 C 3,7 C 0,0 C 30 % 76 % 1014,3 hPa 0,0 mm 0,3 km/h W-SW 245 1,7 C 3,7 C 0,3 km/h
18.02.2019 23:03 5,5 C 3,7 C 0,0 C 30 % 76 % 1014,3 hPa 0,0 mm 0,4 km/h S 186 1,6 C 3,7 C 1,8 km/h
18.02.2019 23:02 5,4 C 3,6 C 0,0 C 30 % 76 % 1014,4 hPa 0,0 mm 0,0 km/h SW 219 1,5 C 3,6 C 1,8 km/h
18.02.2019 23:01 5,4 C 3,6 C 0,0 C 30 % 76 % 1014,3 hPa 0,0 mm 0,0 km/h NO 44 1,5 C 3,6 C 0,0 km/h
18.02.2019 23:00 5,4 C 3,6 C 0,0 C 30 % 76 % 1014,3 hPa 0,0 mm 0,0 km/h NO 44 1,5 C 3,6 C 0,0 km/h
18.02.2019 22:59 5,3 C 3,5 C 0,0 C 30 % 77 % 1014,3 hPa 0,0 mm 0,0 km/h W-SW 251 1,6 C 3,5 C 0,0 km/h
18.02.2019 22:58 5,3 C 3,5 C 0,0 C 30 % 77 % 1014,3 hPa 0,0 mm 0,0 km/h W-SW 251 1,6 C 3,5 C 0,0 km/h
18.02.2019 22:57 5,3 C 3,5 C 0,0 C 30 % 77 % 1014,3 hPa 0,0 mm 0,0 km/h SW 235 1,6 C 3,5 C 0,0 km/h
18.02.2019 22:56 5,3 C 3,5 C 0,0 C 30 % 77 % 1014,4 hPa 0,0 mm 0,0 km/h SW 235 1,6 C 3,5 C 0,0 km/h
18.02.2019 22:55 5,3 C 3,5 C 0,0 C 30 % 77 % 1014,3 hPa 0,0 mm 0,0 km/h S-SO 166 1,6 C 3,5 C 0,0 km/h
18.02.2019 22:54 5,3 C 3,5 C 0,0 C 30 % 77 % 1014,4 hPa 0,0 mm 0,0 km/h O-SO 109 1,6 C 3,5 C 0,0 km/h
18.02.2019 22:53 5,3 C 3,5 C 0,0 C 30 % 77 % 1014,4 hPa 0,0 mm 0,0 km/h O-NO 71 1,6 C 3,5 C 0,0 km/h
18.02.2019 22:52 5,3 C 3,5 C 0,0 C 30 % 78 % 1014,4 hPa 0,0 mm 0,0 km/h O-NO 71 1,8 C 3,5 C 0,0 km/h
18.02.2019 22:51 5,2 C 3,5 C 0,0 C 30 % 78 % 1014,4 hPa 0,0 mm 0,0 km/h SO 141 1,7 C 3,5 C 0,0 km/h
18.02.2019 22:50 5,2 C 3,5 C 0,0 C 30 % 78 % 1014,4 hPa 0,0 mm 0,0 km/h SO 141 1,7 C 3,5 C 0,0 km/h
18.02.2019 22:49 5,2 C 3,5 C 0,0 C 30 % 78 % 1014,4 hPa 0,0 mm 0,0 km/h O 83 1,7 C 3,5 C 0,0 km/h
18.02.2019 22:48 5,1 C 3,4 C 0,0 C 30 % 80 % 1014,4 hPa 0,0 mm 0,0 km/h O 83 1,9 C 3,4 C 0,0 km/h
18.02.2019 22:47 5,1 C 3,4 C 0,0 C 30 % 80 % 1014,5 hPa 0,0 mm 0,0 km/h SO 128 1,9 C 3,4 C 0,0 km/h
18.02.2019 22:46 4,9 C 3,3 C 0,0 C 30 % 80 % 1014,4 hPa 0,0 mm 0,0 km/h O-SO 123 1,7 C 3,3 C 0,0 km/h
18.02.2019 22:45 4,9 C 3,3 C 0,0 C 30 % 80 % 1014,5 hPa 0,0 mm 0,0 km/h O 85 1,7 C 3,3 C 0,0 km/h
18.02.2019 22:44 4,9 C 3,3 C 0,0 C 30 % 80 % 1014,4 hPa 0,0 mm 0,0 km/h O 85 1,7 C 3,3 C 0,0 km/h
18.02.2019 22:43 4,8 C 3,2 C 0,0 C 30 % 81 % 1014,4 hPa 0,0 mm 0,0 km/h O 85 1,8 C 3,2 C 0,0 km/h
18.02.2019 22:42 4,7 C 3,1 C 0,0 C 30 % 81 % 1014,4 hPa 0,0 mm 0,0 km/h O-NO 76 1,7 C 3,1 C 1,8 km/h
18.02.2019 22:41 4,7 C 3,1 C 0,0 C 30 % 82 % 1014,5 hPa 0,0 mm 0,0 km/h O-NO 75 1,9 C 3,1 C 1,8 km/h
18.02.2019 22:40 4,6 C 3,1 C 0,0 C 30 % 82 % 1014,5 hPa 0,0 mm 0,4 km/h O-NO 72 1,8 C 3,1 C 0,4 km/h
18.02.2019 22:39 4,5 C 3,0 C 0,0 C 30 % 83 % 1014,5 hPa 0,0 mm 0,4 km/h O-NO 72 1,9 C 3,0 C 1,8 km/h
18.02.2019 22:38 4,4 C 2,9 C 0,0 C 30 % 83 % 1014,5 hPa 0,0 mm 0,7 km/h O-NO 72 1,8 C 2,9 C 1,8 km/h
18.02.2019 22:37 4,3 C 2,9 C 0,0 C 30 % 83 % 1014,5 hPa 0,0 mm 1,3 km/h NO 41 1,7 C 2,9 C 3,2 km/h
18.02.2019 22:36 4,2 C 2,8 C 0,0 C 30 % 83 % 1014,4 hPa 0,0 mm 1,3 km/h O-NO 73 1,6 C 2,8 C 1,8 km/h
18.02.2019 22:35 4,1 C 2,7 C 0,0 C 30 % 83 % 1014,4 hPa 0,0 mm 1,5 km/h NO 49 1,5 C 2,7 C 3,2 km/h
18.02.2019 22:34 4,1 C 2,7 C 0,0 C 30 % 84 % 1014,4 hPa 0,0 mm 2,0 km/h NO 54 1,6 C 2,7 C 3,2 km/h
18.02.2019 22:33 4,1 C 2,7 C 0,0 C 30 % 84 % 1014,5 hPa 0,0 mm 1,2 km/h O-NO 69 1,6 C 2,7 C 3,2 km/h
18.02.2019 22:32 4,0 C 2,7 C 0,0 C 30 % 84 % 1014,4 hPa 0,0 mm 1,1 km/h NO 55 1,5 C 2,7 C 3,2 km/h
18.02.2019 22:31 3,9 C 2,6 C 0,0 C 30 % 85 % 1014,5 hPa 0,0 mm 1,1 km/h O-NO 65 1,6 C 2,6 C 3,2 km/h
18.02.2019 22:30 3,9 C 2,6 C 0,0 C 30 % 85 % 1014,4 hPa 0,0 mm 0,8 km/h O-NO 72 1,6 C 2,6 C 1,8 km/h
18.02.2019 22:29 3,8 C 2,5 C 0,0 C 30 % 86 % 1014,4 hPa 0,0 mm 0,6 km/h NO 55 1,7 C 2,5 C 3,2 km/h
18.02.2019 22:28 3,8 C 2,5 C 0,0 C 30 % 86 % 1014,5 hPa 0,0 mm 0,7 km/h O-SO 110 1,7 C 2,5 C 1,8 km/h
18.02.2019 22:27 3,7 C 2,5 C 0,0 C 30 % 86 % 1014,5 hPa 0,0 mm 0,7 km/h O-NO 72 1,6 C 2,5 C 3,2 km/h
18.02.2019 22:26 3,7 C 2,5 C 0,0 C 30 % 88 % 1014,5 hPa 0,0 mm 0,4 km/h O-NO 72 1,9 C 2,5 C 1,8 km/h
18.02.2019 22:25 3,6 C 2,4 C 0,0 C 30 % 89 % 1014,4 hPa 0,0 mm 1,1 km/h O 83 2,0 C 2,4 C 1,8 km/h
18.02.2019 22:24 3,5 C 2,3 C 0,0 C 30 % 88 % 1014,4 hPa 0,0 mm 1,4 km/h O 83 1,7 C 2,3 C 3,2 km/h
18.02.2019 22:23 3,3 C 2,2 C 0,0 C 30 % 88 % 1014,5 hPa 0,0 mm 0,4 km/h O-NO 59 1,5 C 2,2 C 5,0 km/h
18.02.2019 22:22 3,3 C 2,2 C 0,0 C 30 % 88 % 1014,5 hPa 0,0 mm 0,0 km/h N-NO 30 1,5 C 2,2 C 0,0 km/h
18.02.2019 22:21 3,2 C 2,1 C 0,0 C 30 % 89 % 1014,5 hPa 0,0 mm 0,0 km/h O-NO 63 1,6 C 2,1 C 0,0 km/h
18.02.2019 22:20 3,1 C 2,1 C 0,0 C 30 % 89 % 1014,5 hPa 0,0 mm 0,0 km/h O-NO 65 1,5 C 2,1 C 0,0 km/h
18.02.2019 22:19 3,1 C 2,1 C 0,0 C 30 % 89 % 1014,5 hPa 0,0 mm 0,0 km/h O-NO 66 1,5 C 2,1 C 0,0 km/h
18.02.2019 22:18 3,1 C 2,1 C 0,0 C 30 % 89 % 1014,5 hPa 0,0 mm 0,0 km/h NO 52 1,5 C 2,1 C 0,0 km/h
18.02.2019 22:17 3,0 C 2,0 C 0,0 C 30 % 89 % 1014,5 hPa 0,0 mm 0,0 km/h O-NO 76 1,4 C 2,0 C 0,0 km/h
18.02.2019 22:16 2,9 C 1,9 C 0,0 C 30 % 89 % 1014,5 hPa 0,0 mm 0,0 km/h O-NO 76 1,3 C 1,9 C 0,0 km/h
18.02.2019 22:15 2,9 C 1,9 C 0,0 C 30 % 89 % 1014,6 hPa 0,0 mm 0,0 km/h O 94 1,3 C 1,9 C 0,0 km/h
18.02.2019 22:14 2,9 C 1,9 C 0,0 C 30 % 89 % 1014,5 hPa 0,0 mm 0,0 km/h O 94 1,3 C 1,9 C 0,0 km/h
18.02.2019 22:13 2,8 C 1,9 C 0,0 C 30 % 89 % 1014,5 hPa 0,0 mm 0,0 km/h O-NO 58 1,2 C 1,9 C 0,0 km/h
18.02.2019 22:12 2,9 C 1,9 C 0,0 C 30 % 90 % 1014,6 hPa 0,0 mm 0,0 km/h O-NO 58 1,4 C 1,9 C 0,0 km/h
18.02.2019 22:11 2,8 C 1,9 C 0,0 C 30 % 90 % 1014,5 hPa 0,0 mm 0,0 km/h O-NO 58 1,3 C 1,9 C 0,0 km/h
18.02.2019 22:10 2,8 C 1,9 C 0,0 C 30 % 90 % 1014,5 hPa 0,0 mm 0,0 km/h O-NO 59 1,3 C 1,9 C 0,0 km/h
18.02.2019 22:09 2,8 C 1,9 C 0,0 C 30 % 90 % 1014,5 hPa 0,0 mm 0,0 km/h O-NO 59 1,3 C 1,9 C 0,0 km/h
18.02.2019 22:08 2,8 C 1,9 C 0,0 C 30 % 90 % 1014,6 hPa 0,0 mm 0,0 km/h O-NO 59 1,3 C 1,9 C 0,0 km/h
18.02.2019 22:07 2,7 C 1,8 C 0,0 C 30 % 90 % 1014,6 hPa 0,0 mm 0,0 km/h O-NO 59 1,2 C 1,8 C 0,0 km/h
18.02.2019 22:06 2,6 C 1,7 C 0,0 C 30 % 90 % 1014,6 hPa 0,0 mm 0,0 km/h O-NO 59 1,1 C 1,7 C 0,0 km/h
18.02.2019 22:05 2,6 C 1,7 C 0,0 C 30 % 90 % 1014,6 hPa 0,0 mm 0,0 km/h O-NO 59 1,1 C 1,7 C 0,0 km/h
18.02.2019 22:04 2,6 C 1,7 C 0,0 C 30 % 90 % 1014,5 hPa 0,0 mm 0,0 km/h O-NO 59 1,1 C 1,7 C 0,0 km/h
18.02.2019 22:03 2,5 C 1,7 C 0,0 C 30 % 91 % 1014,6 hPa 0,0 mm 0,0 km/h O-NO 59 1,2 C 1,7 C 0,0 km/h
18.02.2019 22:02 2,5 C 1,7 C 0,0 C 30 % 91 % 1014,6 hPa 0,0 mm 0,0 km/h O-NO 59 1,2 C 1,7 C 0,0 km/h
18.02.2019 22:01 2,3 C 1,5 C 0,0 C 30 % 90 % 1014,5 hPa 0,0 mm 0,0 km/h O-NO 59 0,8 C 1,5 C 0,0 km/h
18.02.2019 22:00 2,3 C 1,5 C 0,0 C 30 % 90 % 1014,6 hPa 0,0 mm 0,0 km/h O-NO 59 0,8 C 1,5 C 0,0 km/h
_ Min-Zeit 22:01 22:01 21:59 21:59 14:25 04:30 - 06:27 - - 22:01 19:48 06:25
Minimum _ 2,3 C 1,5 C 0,0 C 30 % 58 % 1013,1 hPa - 0,0 km/h - - 0,8 C -2,8 C 0,0 km/h
_ Max-Zeit 14:20 14:20 21:59 21:59 22:03 21:59 19:53 13:11 - - 11:03 12:23 19:46
Maximum _ 10,8 C 7,2 C 0,0 C 30 % 91 % 1017,7 hPa 0,2 mm 19,5 km/h
W-SW
- - 4,7 C 6,4 C 36,0 km/h
W
Durchschnitt _ 7,5 C 5,0 C 0,0 C 30 % 71 % 1014,9 hPa #0,8 mm 6,2 km/h W-SW - 2,6 C 3,7 C 10,3 km/h
L.Zimmermann Spplingen lars@die-zimmermaenner.com